[[{"header":{"parameterUnit":"m.s-1","parameterCategory":1,"la1":31.0,"la2":29.5877,"lo1":-88.7671,"lo2":-86.6584,"dy":0.0162,"dx":0.0185,"nx":115,"ny":88,"refTime":"2023-07-30T06:00:00:Z","depth":0,"parameterNumber":2,"parameterNumberName":"U-component_of_WINDS"},"data":[0.0,0.0,0.0,0.0,0.0,0.0,0.0,0.0,0.0,0.0,0.0,0.0,0.0,0.0,0.0,0.0,0.0,0.0,0.0,0.0,0.0,0.0,0.0,0.0,0.0,0.0,0.0,0.0,0.0,0.0,0.0,0.0,0.0,0.0,0.0,0.0,0.0,0.0,0.0,0.0,0.0,0.0,0.0,0.0,0.0,0.0,0.0,0.0,0.0,0.0,0.0,0.0,0.0,0.0,0.0,0.0,0.0,0.0,0.0,0.0,0.0,0.0,0.0,0.0,0.0,0.0,0.0,0.0,0.0,0.0,0.0,0.0,0.0,0.0,0.0,0.0,0.0,0.0,0.0,0.0,0.0,0.0,0.0,0.0,0.0,0.0,0.0,0.0,0.0,0.0,0.0,0.0,0.0,0.0,0.0,0.0,0.0,0.0,0.0,0.0,0.0,0.0,0.0,0.0,0.0,0.0,0.0,0.0,0.0,0.0,0.0,0.0,0.0,0.0,0.0,0.0,0.0,0.0,0.0,0.0,0.0,0.0,0.0,0.0,0.0,0.0,0.0,0.0,0.0,0.0,0.0,0.0,0.0,0.0,0.0,0.0,0.0,0.0,0.0,0.0,0.0,0.0,0.0,0.0,0.0,0.0,0.0,0.0,0.0,0.0,0.0,0.0,0.0,0.0,0.0,0.0,0.0,0.0,0.0,0.0,0.0,0.0,0.0,0.0,0.0,0.0,0.0,0.0,0.0,0.0,0.0,0.0,0.0,0.0,0.0,0.0,0.0,0.0,0.0,0.0,0.0,0.0,0.0,0.0,0.0,0.0,0.0,0.0,0.0,0.0,0.0,0.0,0.0,0.0,0.0,0.0,0.0,0.0,0.0,0.0,0.0,0.0,0.0,0.0,0.0,0.0,0.0,0.0,0.0,0.0,0.0,0.0,0.0,0.0,0.0,0.0,0.0,0.0,0.0,0.0,0.0,0.0,0.0,0.0,0.0,0.0,0.0,0.0,0.0,0.0,0.0,0.0,0.0,0.0,0.0,0.0,0.0,0.0,0.0,0.0,0.0,0.0,0.0,0.0,0.0,0.0,0.0,0.0,0.0,0.0,0.0,0.0,0.0,0.0,0.0,0.0,0.0,0.0,0.0,0.0,0.0,0.0,0.0,0.0,0.0,0.0,0.0,0.0,0.0,0.0,0.0,0.0,0.0,0.0,0.0,0.0,0.0,0.0,0.0,0.0,0.0,0.0,0.0,0.0,0.0,0.0,0.0,0.0,0.0,0.0,0.0,0.0,0.0,0.0,0.0,0.0,0.0,0.0,0.0,0.0,0.0,0.0,0.0,0.0,0.0,0.0,0.0,0.0,0.0,0.0,0.0,0.0,0.0,0.0,0.0,0.0,0.0,0.0,0.0,0.0,0.0,0.0,0.0,0.0,0.0,0.0,0.0,0.0,0.0,0.0,0.0,0.0,0.0,0.0,0.0,0.0,0.0,0.0,0.0,0.0,0.0,0.0,0.0,0.0,0.0,0.0,0.0,0.0,0.0,0.0,0.0,0.0,0.0,0.0,0.0,0.0,0.0,0.0,0.0,0.0,0.0,0.0,0.0,0.0,0.0,0.0,0.0,0.0,0.0,0.0,0.0,0.0,0.0,0.0,0.0,0.0,0.0,0.0,0.0,0.0,0.0,0.0,0.0,0.0,0.0,0.0,0.0,0.0,0.0,0.0,0.0,0.0,0.0,0.0,0.0,0.0,0.0,0.0,0.0,0.0,0.0,0.0,0.0,0.0,0.0,0.0,0.0,0.0,0.0,0.0,0.0,0.0,0.0,0.0,0.0,0.0,0.0,0.0,0.0,0.0,0.0,0.0,0.0,0.0,0.0,0.0,0.0,0.0,0.0,0.0,0.0,0.0,0.0,0.0,0.0,0.0,0.0,0.0,0.0,0.0,0.0,0.0,0.0,0.0,0.0,0.0,0.0,0.0,0.0,0.0,0.0,0.0,0.0,0.0,0.0,0.0,0.0,0.0,0.0,0.0,0.0,0.0,0.0,0.0,0.0,0.0,0.0,0.0,0.0,0.0,0.0,0.0,0.0,0.0,0.0,0.0,0.0,0.0,0.0,0.0,0.0,0.0,0.0,0.0,0.0,0.0,0.0,0.0,0.0,0.0,0.0,0.0,0.0,0.0,0.0,0.0,0.0,0.0,0.0,0.0,0.0,0.0,0.0,0.0,0.0,0.0,0.0,0.0,0.0,0.0,0.0,0.0,0.0,0.0,0.0,0.0,0.0,0.0,0.0,0.0,0.0,0.0,0.0,0.0,0.0,0.0,0.0,0.0,0.0,0.0,0.0,0.0,0.0,0.0,0.0,0.0,0.0,0.0,0.0,0.0,0.0,0.0,0.0,0.0,0.0,0.0,0.0,0.0,0.0,0.0,0.0,0.0,0.0,0.0,0.0,0.0,0.0,0.0,0.0,0.0,0.0,0.0,0.0,0.0,0.0,0.0,0.0,0.0,0.0,0.0,0.0,0.0,0.0,0.0,0.0,0.0,0.0,0.0,0.0,0.0,0.0,0.0,0.0,0.0,0.0,0.0,0.0,0.0,0.0,0.0,0.0,0.0,0.0,0.0,0.0,0.0,0.0,0.0,0.0,0.0,0.0,0.0,0.0,0.0,0.0,0.0,0.0,0.0,0.0,0.0,0.0,0.0,0.0,0.0,0.0,0.0,0.0,0.0,0.0,0.0,0.0,0.0,0.0,0.0,0.0,0.0,0.0,0.0,0.0,0.0,0.0,0.0,0.0,0.0,0.0,0.0,0.0,0.0,0.0,0.0,0.0,0.0,0.0,0.0,0.0,0.0,0.0,0.0,0.0,0.0,0.0,0.0,0.0,0.0,0.0,0.0,0.0,0.0,0.0,0.0,0.0,0.0,0.0,0.0,0.0,0.0,0.0,0.0,0.0,0.0,0.0,0.0,0.0,0.0,0.0,0.0,0.0,0.0,0.0,0.0,0.0,0.0,0.0,0.0,0.0,0.0,0.0,0.0,0.0,0.0,0.0,0.0,0.0,0.0,0.0,0.0,0.0,0.0,0.0,0.0,0.0,0.0,0.0,0.0,0.0,0.0,0.0,0.0,0.0,0.0,0.0,0.0,0.0,0.0,0.0,0.0,0.0,0.0,0.0,0.0,0.0,0.0,0.0,0.0,0.0,0.0,0.0,0.0,0.0,0.0,0.0,0.0,0.0,0.0,0.0,0.0,0.0,0.0,0.0,0.0,0.0,0.0,0.0,0.0,0.0,0.0,0.0,0.0,0.0,0.0,0.0,0.0,0.0,0.0,0.0,0.0,0.0,0.0,0.0,0.0,0.0,0.0,0.0,0.0,0.0,0.0,0.0,0.0,0.0,0.0,0.0,0.0,0.0,0.0,0.0,0.0,0.0,0.0,0.0,0.0,0.0,0.0,0.0,0.0,0.0,0.0,0.0,0.0,0.0,0.0,0.0,0.0,0.0,0.0,0.0,0.0,0.0,0.0,0.0,0.0,0.0,0.0,0.0,0.0,0.0,0.0,0.0,0.0,0.0,0.0,0.0,0.0,0.0,0.0,0.0,0.0,0.0,0.0,0.0,0.0,0.0,0.0,0.0,0.0,0.0,0.0,0.0,0.0,0.0,0.0,0.0,0.0,0.0,0.0,0.0,0.0,0.0,0.0,0.0,0.0,0.0,0.0,0.0,0.0,0.0,0.0,0.0,0.0,0.0,0.0,0.0,0.0,0.0,0.0,0.0,0.0,0.0,0.0,0.0,0.0,0.0,0.0,0.0,0.0,0.0,0.0,0.0,0.0,0.0,0.0,0.0,0.0,0.0,0.0,0.0,0.0,0.0,0.0,0.0,0.0,0.0,0.0,0.0,0.0,0.0,0.0,0.0,0.0,0.0,0.0,0.0,0.0,0.0,0.0,0.0,0.0,0.0,0.0,0.0,0.0,0.0,0.0,0.0,0.0,0.0,0.0,0.0,0.0,0.0,0.0,0.0,0.0,0.0,0.0,0.0,0.0,0.0,0.0,0.0,0.0,0.0,0.0,0.0,0.0,0.0,0.0,0.0,0.0,0.0,0.0,0.0,0.0,0.0,0.0,0.0,0.0,0.0,0.0,0.0,0.0,0.0,0.0,0.0,0.0,0.0,0.0,0.0,0.0,0.0,0.0,0.0,0.0,0.0,0.0,0.0,0.0,0.0,0.0,0.0,0.0,0.0,0.0,0.0,0.0,0.0,0.0,-3.8266,0.0,0.0,0.0,0.0,0.0,0.0,0.0,0.0,0.0,0.0,0.0,0.0,0.0,0.0,0.0,0.0,0.0,0.0,0.0,0.0,0.0,0.0,0.0,0.0,0.0,0.0,0.0,0.0,0.0,0.0,0.0,0.0,0.0,0.0,0.0,0.0,0.0,0.0,0.0,0.0,0.0,0.0,0.0,0.0,0.0,0.0,0.0,0.0,0.0,0.0,0.0,0.0,0.0,0.0,0.0,0.0,0.0,0.0,0.0,0.0,0.0,0.0,0.0,0.0,0.0,0.0,0.0,0.0,0.0,0.0,0.0,0.0,0.0,0.0,0.0,0.0,0.0,0.0,0.0,0.0,0.0,0.0,0.0,0.0,0.0,0.0,0.0,0.0,0.0,0.0,0.0,0.0,0.0,0.0,0.0,0.0,0.0,0.0,0.0,0.0,0.0,0.0,0.0,0.0,0.0,0.0,0.0,0.0,0.0,0.0,-4.0299,-4.0246,-4.0179,-3.9525,-3.8199,0.0,0.0,0.0,0.0,0.0,0.0,0.0,0.0,0.0,0.0,0.0,0.0,0.0,0.0,0.0,0.0,0.0,0.0,0.0,0.0,0.0,0.0,0.0,0.0,0.0,0.0,0.0,0.0,0.0,0.0,0.0,0.0,0.0,0.0,0.0,0.0,0.0,0.0,0.0,0.0,0.0,0.0,0.0,0.0,0.0,0.0,0.0,0.0,0.0,0.0,0.0,0.0,0.0,0.0,0.0,0.0,0.0,0.0,0.0,0.0,0.0,0.0,0.0,0.0,0.0,0.0,0.0,0.0,0.0,0.0,0.0,0.0,0.0,0.0,0.0,0.0,0.0,0.0,0.0,0.0,0.0,0.0,0.0,0.0,0.0,0.0,0.0,0.0,0.0,0.0,0.0,0.0,0.0,0.0,0.0,0.0,0.0,0.0,0.0,0.0,0.0,0.0,0.0,0.0,0.0,0.0,0.0,0.0,0.0,0.0,0.0,0.0,-3.9245,-3.8752,-3.7816,0.0,0.0,0.0,0.0,0.0,0.0,0.0,0.0,0.0,0.0,0.0,0.0,0.0,0.0,0.0,0.0,0.0,0.0,0.0,0.0,0.0,0.0,0.0,0.0,0.0,0.0,0.0,0.0,0.0,0.0,0.0,0.0,0.0,0.0,0.0,0.0,0.0,0.0,0.0,0.0,0.0,0.0,0.0,0.0,0.0,0.0,0.0,0.0,0.0,0.0,0.0,0.0,0.0,0.0,0.0,0.0,0.0,0.0,0.0,0.0,0.0,0.0,0.0,0.0,0.0,0.0,0.0,0.0,0.0,0.0,0.0,0.0,0.0,0.0,0.0,0.0,0.0,0.0,0.0,0.0,0.0,0.0,0.0,0.0,0.0,0.0,0.0,0.0,0.0,0.0,0.0,0.0,0.0,0.0,0.0,0.0,0.0,0.0,0.0,0.0,0.0,0.0,0.0,0.0,0.0,0.0,0.0,0.0,0.0,0.0,-3.8548,-3.8433,-3.8352,0.0,-3.6856,0.0,0.0,0.0,0.0,0.0,0.0,0.0,0.0,0.0,0.0,0.0,0.0,0.0,0.0,0.0,0.0,0.0,0.0,0.0,0.0,0.0,0.0,0.0,0.0,0.0,0.0,0.0,0.0,0.0,0.0,0.0,0.0,0.0,0.0,0.0,0.0,0.0,0.0,0.0,0.0,0.0,0.0,0.0,0.0,0.0,0.0,0.0,0.0,0.0,0.0,0.0,0.0,0.0,0.0,0.0,0.0,0.0,0.0,0.0,0.0,0.0,0.0,0.0,0.0,0.0,0.0,0.0,0.0,0.0,0.0,0.0,0.0,0.0,0.0,0.0,0.0,0.0,0.0,0.0,0.0,0.0,0.0,0.0,0.0,0.0,0.0,0.0,0.0,0.0,0.0,0.0,0.0,0.0,0.0,0.0,0.0,0.0,0.0,0.0,0.0,0.0,0.0,0.0,0.0,0.0,0.0,0.0,0.0,0.0,0.0,-3.8074,-3.7471,-3.6895,-3.6375,0.0,0.0,0.0,0.0,0.0,0.0,0.0,0.0,0.0,0.0,0.0,0.0,0.0,0.0,0.0,0.0,0.0,0.0,0.0,0.0,0.0,0.0,0.0,0.0,0.0,0.0,0.0,0.0,0.0,0.0,0.0,0.0,0.0,0.0,0.0,0.0,0.0,0.0,0.0,0.0,0.0,0.0,0.0,0.0,0.0,0.0,0.0,0.0,0.0,0.0,0.0,0.0,0.0,0.0,0.0,0.0,0.0,0.0,0.0,0.0,0.0,0.0,0.0,0.0,0.0,0.0,0.0,0.0,0.0,0.0,0.0,0.0,0.0,0.0,0.0,0.0,0.0,0.0,0.0,0.0,0.0,0.0,0.0,0.0,0.0,0.0,0.0,0.0,0.0,0.0,0.0,0.0,0.0,0.0,0.0,0.0,0.0,0.0,0.0,0.0,0.0,0.0,0.0,0.0,0.0,0.0,0.0,0.0,0.0,0.0,-3.7609,-3.7237,-3.654,-3.6054,-3.5744,-3.5634,0.0,0.0,0.0,0.0,0.0,0.0,0.0,0.0,0.0,0.0,0.0,0.0,0.0,0.0,0.0,0.0,0.0,0.0,0.0,0.0,0.0,0.0,0.0,0.0,0.0,0.0,0.0,0.0,0.0,0.0,0.0,0.0,0.0,0.0,0.0,0.0,0.0,0.0,0.0,0.0,0.0,0.0,0.0,0.0,0.0,0.0,0.0,0.0,0.0,0.0,0.0,0.0,0.0,0.0,0.0,0.0,0.0,0.0,0.0,0.0,0.0,0.0,0.0,0.0,0.0,0.0,0.0,0.0,0.0,0.0,0.0,0.0,0.0,0.0,0.0,0.0,0.0,0.0,0.0,0.0,0.0,0.0,0.0,0.0,0.0,0.0,0.0,0.0,0.0,0.0,0.0,0.0,0.0,0.0,0.0,0.0,0.0,0.0,0.0,0.0,0.0,0.0,0.0,0.0,0.0,0.0,0.0,0.0,-3.5946,-3.5902,-3.5759,-3.5617,-3.6223,-3.6514,0.0,0.0,0.0,0.0,0.0,0.0,0.0,0.0,0.0,0.0,0.0,0.0,0.0,0.0,0.0,0.0,0.0,0.0,0.0,0.0,0.0,0.0,0.0,0.0,0.0,0.0,0.0,0.0,0.0,0.0,0.0,0.0,0.0,0.0,0.0,0.0,0.0,0.0,0.0,0.0,0.0,0.0,0.0,0.0,0.0,0.0,0.0,0.0,0.0,0.0,0.0,0.0,0.0,0.0,0.0,0.0,0.0,0.0,0.0,0.0,0.0,0.0,0.0,0.0,0.0,0.0,0.0,0.0,0.0,0.0,0.0,0.0,0.0,0.0,0.0,0.0,0.0,0.0,0.0,0.0,0.0,0.0,0.0,0.0,0.0,0.0,0.0,0.0,0.0,0.0,0.0,0.0,0.0,0.0,0.0,0.0,0.0,0.0,0.0,0.0,0.0,0.0,0.0,0.0,0.0,0.0,0.0,0.0,0.0,-3.6571,-3.6957,-3.6877,-3.6315,-3.645,-3.647,0.0,0.0,0.0,0.0,0.0,0.0,0.0,0.0,0.0,0.0,0.0,0.0,0.0,0.0,0.0,0.0,0.0,0.0,0.0,0.0,0.0,0.0,0.0,0.0,0.0,0.0,0.0,0.0,0.0,0.0,0.0,0.0,0.0,0.0,0.0,0.0,0.0,0.0,0.0,0.0,0.0,0.0,0.0,0.0,0.0,0.0,0.0,0.0,0.0,0.0,0.0,0.0,0.0,0.0,0.0,0.0,0.0,0.0,0.0,0.0,0.0,0.0,0.0,0.0,0.0,0.0,0.0,0.0,0.0,0.0,0.0,0.0,0.0,0.0,0.0,0.0,0.0,0.0,0.0,0.0,0.0,0.0,0.0,0.0,0.0,0.0,0.0,0.0,0.0,0.0,0.0,0.0,0.0,0.0,0.0,0.0,0.0,0.0,0.0,0.0,0.0,0.0,0.0,0.0,0.0,0.0,0.0,0.0,0.0,-3.8168,0.0,-3.8507,-3.7909,-3.8012,-3.7908,0.0,0.0,0.0,0.0,0.0,0.0,0.0,0.0,0.0,0.0,0.0,0.0,0.0,0.0,0.0,0.0,0.0,0.0,0.0,0.0,0.0,0.0,0.0,0.0,0.0,0.0,0.0,0.0,0.0,0.0,0.0,0.0,0.0,0.0,0.0,0.0,0.0,0.0,0.0,0.0,0.0,0.0,0.0,0.0,0.0,0.0,0.0,0.0,0.0,0.0,0.0,0.0,0.0,0.0,0.0,0.0,0.0,0.0,0.0,0.0,0.0,0.0,0.0,0.0,0.0,0.0,0.0,0.0,0.0,0.0,0.0,0.0,0.0,0.0,0.0,0.0,0.0,0.0,0.0,0.0,0.0,0.0,0.0,0.0,0.0,0.0,0.0,0.0,0.0,0.0,0.0,0.0,0.0,0.0,0.0,0.0,0.0,0.0,0.0,0.0,0.0,0.0,0.0,0.0,0.0,0.0,0.0,0.0,-3.9944,-4.0535,-4.0539,-4.0425,-4.0307,-4.0883,-4.0859,0.0,0.0,0.0,0.0,0.0,0.0,0.0,0.0,0.0,0.0,0.0,0.0,0.0,0.0,0.0,0.0,0.0,0.0,0.0,0.0,0.0,0.0,0.0,0.0,0.0,0.0,0.0,0.0,0.0,0.0,0.0,0.0,0.0,0.0,0.0,0.0,0.0,0.0,0.0,0.0,0.0,0.0,0.0,0.0,0.0,0.0,0.0,0.0,0.0,0.0,0.0,0.0,0.0,0.0,0.0,0.0,0.0,0.0,0.0,0.0,0.0,0.0,0.0,0.0,0.0,0.0,0.0,0.0,0.0,0.0,0.0,0.0,0.0,0.0,0.0,0.0,0.0,0.0,0.0,0.0,0.0,0.0,0.0,0.0,0.0,0.0,0.0,0.0,0.0,0.0,0.0,0.0,0.0,0.0,0.0,0.0,0.0,0.0,0.0,0.0,0.0,0.0,0.0,0.0,0.0,0.0,0.0,0.0,0.0,-4.1447,-4.1884,-4.1835,-4.117,-4.1204,-4.081,0.0,0.0,0.0,0.0,0.0,0.0,0.0,0.0,0.0,0.0,0.0,0.0,0.0,0.0,0.0,0.0,0.0,0.0,0.0,0.0,0.0,0.0,0.0,0.0,0.0,0.0,0.0,0.0,0.0,0.0,0.0,0.0,0.0,0.0,0.0,0.0,0.0,0.0,0.0,0.0,0.0,0.0,0.0,0.0,0.0,0.0,0.0,0.0,0.0,0.0,0.0,0.0,0.0,0.0,0.0,0.0,0.0,0.0,0.0,0.0,0.0,0.0,0.0,0.0,0.0,0.0,0.0,0.0,0.0,0.0,0.0,0.0,0.0,0.0,0.0,0.0,0.0,0.0,0.0,0.0,0.0,0.0,0.0,0.0,0.0,0.0,0.0,0.0,0.0,0.0,0.0,0.0,0.0,0.0,0.0,0.0,0.0,0.0,0.0,0.0,0.0,0.0,0.0,0.0,0.0,0.0,0.0,0.0,0.0,-4.3615,-4.4039,-4.3981,-4.3365,-4.3178,-4.2469,-4.1165,0.0,0.0,0.0,0.0,0.0,0.0,0.0,0.0,0.0,0.0,0.0,0.0,0.0,0.0,0.0,0.0,0.0,0.0,0.0,0.0,0.0,0.0,0.0,0.0,0.0,0.0,0.0,0.0,0.0,0.0,0.0,0.0,0.0,0.0,0.0,0.0,0.0,0.0,0.0,0.0,0.0,0.0,0.0,0.0,0.0,0.0,0.0,0.0,0.0,0.0,0.0,0.0,0.0,0.0,0.0,0.0,0.0,0.0,0.0,0.0,0.0,0.0,0.0,0.0,0.0,0.0,0.0,0.0,0.0,0.0,0.0,0.0,0.0,0.0,0.0,0.0,0.0,0.0,0.0,0.0,0.0,0.0,0.0,0.0,0.0,0.0,0.0,0.0,0.0,0.0,0.0,0.0,0.0,0.0,0.0,0.0,0.0,0.0,0.0,0.0,0.0,0.0,0.0,0.0,0.0,0.0,0.0,0.0,-4.6661,-4.6698,-4.6655,-4.6527,-4.6335,-4.5388,0.0,0.0,0.0,0.0,0.0,0.0,0.0,0.0,0.0,0.0,0.0,0.0,0.0,0.0,0.0,0.0,0.0,0.0,0.0,0.0,0.0,0.0,0.0,0.0,0.0,0.0,0.0,0.0,0.0,0.0,0.0,0.0,0.0,0.0,0.0,0.0,0.0,0.0,0.0,0.0,0.0,0.0,0.0,0.0,0.0,0.0,0.0,0.0,0.0,0.0,0.0,0.0,0.0,0.0,0.0,0.0,0.0,0.0,0.0,0.0,0.0,0.0,0.0,0.0,0.0,0.0,0.0,0.0,0.0,0.0,0.0,0.0,0.0,0.0,0.0,0.0,0.0,0.0,0.0,0.0,0.0,0.0,0.0,0.0,0.0,0.0,0.0,0.0,0.0,0.0,0.0,0.0,0.0,0.0,0.0,0.0,0.0,0.0,0.0,0.0,0.0,0.0,0.0,0.0,0.0,0.0,0.0,0.0,0.0,-4.7539,-4.8003,-4.7952,-4.7404,-4.663,-4.5338,0.0,0.0,0.0,0.0,0.0,0.0,0.0,0.0,0.0,0.0,0.0,0.0,0.0,0.0,0.0,0.0,0.0,0.0,0.0,0.0,0.0,0.0,0.0,0.0,0.0,0.0,0.0,0.0,0.0,0.0,0.0,0.0,0.0,0.0,0.0,0.0,0.0,0.0,0.0,0.0,0.0,0.0,0.0,0.0,0.0,0.0,0.0,0.0,0.0,0.0,0.0,0.0,0.0,0.0,0.0,0.0,0.0,0.0,0.0,0.0,0.0,0.0,0.0,0.0,0.0,0.0,0.0,0.0,0.0,0.0,0.0,0.0,0.0,0.0,0.0,0.0,0.0,0.0,0.0,0.0,0.0,0.0,0.0,0.0,0.0,0.0,0.0,0.0,0.0,0.0,0.0,0.0,0.0,0.0,0.0,0.0,0.0,0.0,0.0,0.0,0.0,0.0,0.0,0.0,0.0,0.0,0.0,0.0,-4.6805,-4.7799,-4.8829,-4.9093,-4.8599,-4.7334,-4.5779,0.0,0.0,0.0,0.0,0.0,0.0,0.0,0.0,0.0,0.0,0.0,0.0,0.0,0.0,0.0,0.0,0.0,0.0,0.0,0.0,0.0,0.0,0.0,0.0,0.0,0.0,0.0,0.0,0.0,0.0,0.0,0.0,0.0,0.0,0.0,0.0,0.0,0.0,0.0,0.0,0.0,0.0,0.0,0.0,0.0,0.0,0.0,0.0,0.0,0.0,0.0,0.0,0.0,0.0,0.0,0.0,0.0,0.0,0.0,0.0,0.0,0.0,0.0,0.0,0.0,0.0,0.0,0.0,0.0,0.0,0.0,0.0,0.0,0.0,0.0,0.0,0.0,0.0,0.0,0.0,0.0,0.0,0.0,0.0,0.0,0.0,0.0,0.0,0.0,0.0,0.0,0.0,0.0,0.0,0.0,0.0,0.0,0.0,0.0,0.0,0.0,0.0,0.0,0.0,0.0,0.0,0.0,0.0,-4.6825,-4.78,-4.9289,-5.0012,-4.9746,-4.8253,-4.6558,0.0,0.0,0.0,0.0,0.0,0.0,0.0,0.0,0.0,0.0,0.0,0.0,0.0,0.0,0.0,0.0,0.0,0.0,0.0,0.0,0.0,0.0,0.0,0.0,0.0,0.0,0.0,0.0,0.0,0.0,0.0,0.0,0.0,0.0,0.0,0.0,0.0,0.0,0.0,0.0,0.0,0.0,0.0,0.0,0.0,0.0,0.0,0.0,0.0,0.0,0.0,0.0,0.0,0.0,0.0,0.0,0.0,0.0,0.0,0.0,0.0,0.0,0.0,0.0,0.0,0.0,0.0,0.0,0.0,0.0,0.0,0.0,0.0,0.0,0.0,0.0,0.0,0.0,0.0,0.0,0.0,0.0,0.0,0.0,0.0,0.0,0.0,0.0,0.0,0.0,0.0,0.0,0.0,0.0,0.0,0.0,0.0,0.0,0.0,0.0,0.0,0.0,0.0,0.0,0.0,0.0,0.0,0.0,-4.7606,-4.8547,-4.9454,-4.986,-4.9721,-4.8701,-4.7203,0.0,0.0,0.0,0.0,0.0,0.0,0.0,0.0,0.0,0.0,0.0,0.0,0.0,0.0,0.0,0.0,0.0,0.0,0.0,0.0,0.0,0.0,0.0,0.0,0.0,0.0,0.0,0.0,0.0,0.0,0.0,0.0,0.0,0.0,0.0,0.0,0.0,0.0,0.0,0.0,0.0,0.0,0.0,0.0,0.0,0.0,0.0,0.0,-4.1278,0.0,0.0,0.0,0.0,0.0,0.0,0.0,0.0,0.0,0.0,0.0,0.0,0.0,0.0,0.0,0.0,0.0,0.0,0.0,0.0,0.0,0.0,0.0,0.0,0.0,0.0,0.0,0.0,0.0,0.0,0.0,0.0,0.0,0.0,0.0,0.0,0.0,0.0,0.0,0.0,0.0,0.0,0.0,0.0,0.0,0.0,0.0,0.0,0.0,0.0,0.0,0.0,0.0,0.0,0.0,0.0,0.0,0.0,0.0,-4.7924,-4.925,-4.9825,-5.0252,-5.0447,-4.9894,-4.818,0.0,0.0,0.0,0.0,0.0,0.0,0.0,0.0,0.0,0.0,0.0,0.0,0.0,0.0,0.0,0.0,0.0,0.0,0.0,0.0,0.0,0.0,0.0,0.0,0.0,0.0,0.0,0.0,0.0,0.0,0.0,0.0,0.0,0.0,0.0,0.0,0.0,0.0,0.0,0.0,0.0,0.0,0.0,0.0,0.0,0.0,0.0,0.0,0.0,0.0,0.0,0.0,0.0,0.0,0.0,0.0,0.0,0.0,0.0,0.0,0.0,0.0,0.0,0.0,0.0,0.0,0.0,0.0,0.0,0.0,0.0,0.0,0.0,0.0,0.0,0.0,0.0,0.0,0.0,0.0,0.0,0.0,0.0,0.0,0.0,0.0,0.0,0.0,0.0,0.0,0.0,0.0,0.0,0.0,0.0,0.0,0.0,0.0,0.0,0.0,0.0,0.0,0.0,0.0,0.0,0.0,0.0,-4.6676,-4.8305,-5.0023,-5.0365,-5.0754,-5.1285,-5.0878,-4.8956,-4.5374,0.0,0.0,0.0,0.0,0.0,0.0,0.0,0.0,0.0,0.0,0.0,0.0,0.0,0.0,0.0,0.0,0.0,0.0,0.0,0.0,0.0,0.0,0.0,0.0,0.0,0.0,0.0,0.0,0.0,0.0,0.0,0.0,0.0,0.0,0.0,0.0,0.0,0.0,-3.6264,-3.8375,0.0,0.0,0.0,0.0,0.0,0.0,0.0,0.0,-4.2428,0.0,0.0,0.0,0.0,0.0,0.0,0.0,0.0,0.0,0.0,0.0,0.0,0.0,0.0,0.0,0.0,0.0,0.0,0.0,0.0,0.0,0.0,0.0,0.0,0.0,0.0,0.0,0.0,0.0,0.0,0.0,0.0,0.0,0.0,0.0,0.0,0.0,0.0,0.0,0.0,0.0,0.0,0.0,0.0,0.0,0.0,0.0,0.0,0.0,0.0,0.0,0.0,0.0,0.0,0.0,0.0,-4.7673,-4.8464,-4.9677,-5.134,-5.1167,-5.0991,-5.0818,-5.0092,-4.8648,-4.6361,0.0,0.0,0.0,0.0,0.0,0.0,0.0,0.0,0.0,0.0,0.0,0.0,0.0,0.0,0.0,0.0,0.0,0.0,0.0,0.0,0.0,0.0,0.0,0.0,0.0,0.0,0.0,0.0,0.0,0.0,0.0,0.0,0.0,0.0,0.0,0.0,0.0,0.0,0.0,-4.1514,-4.2811,0.0,0.0,0.0,0.0,0.0,0.0,0.0,0.0,-4.3706,0.0,0.0,0.0,0.0,0.0,0.0,0.0,0.0,0.0,0.0,0.0,0.0,0.0,0.0,0.0,0.0,0.0,0.0,0.0,0.0,0.0,0.0,0.0,0.0,0.0,0.0,0.0,0.0,0.0,0.0,0.0,0.0,0.0,0.0,0.0,0.0,0.0,0.0,0.0,0.0,0.0,0.0,0.0,0.0,0.0,0.0,0.0,0.0,0.0,0.0,0.0,0.0,0.0,0.0,0.0,-4.7884,-4.9123,-5.0459,-5.188,-5.1636,-5.1603,-5.1844,-5.0939,-4.938,0.0,0.0,0.0,0.0,0.0,0.0,0.0,0.0,0.0,0.0,0.0,0.0,0.0,0.0,0.0,0.0,0.0,0.0,0.0,0.0,0.0,0.0,0.0,0.0,0.0,0.0,0.0,0.0,0.0,0.0,0.0,0.0,0.0,0.0,0.0,0.0,0.0,0.0,0.0,0.0,-4.2055,-4.3609,-4.3961,0.0,0.0,0.0,0.0,0.0,0.0,-4.5067,-4.4211,0.0,0.0,0.0,0.0,0.0,0.0,0.0,0.0,0.0,0.0,0.0,0.0,0.0,0.0,0.0,0.0,0.0,0.0,0.0,0.0,0.0,0.0,0.0,0.0,0.0,0.0,0.0,0.0,0.0,0.0,0.0,0.0,0.0,0.0,0.0,0.0,0.0,0.0,0.0,0.0,0.0,0.0,0.0,0.0,0.0,0.0,0.0,0.0,0.0,0.0,0.0,0.0,0.0,0.0,0.0,-4.7853,-4.9581,-5.1083,-5.2254,-5.2016,-5.2174,-5.2875,-5.1718,-4.9981,0.0,0.0,0.0,0.0,0.0,0.0,0.0,0.0,0.0,0.0,0.0,0.0,0.0,0.0,0.0,0.0,0.0,0.0,0.0,0.0,0.0,0.0,0.0,0.0,0.0,0.0,0.0,0.0,0.0,0.0,0.0,0.0,0.0,0.0,0.0,0.0,0.0,0.0,0.0,0.0,0.0,-4.4163,-4.5342,-4.5669,0.0,0.0,0.0,0.0,-4.6553,-4.5475,0.0,0.0,0.0,0.0,0.0,0.0,0.0,0.0,0.0,0.0,0.0,0.0,0.0,0.0,0.0,0.0,0.0,0.0,0.0,0.0,0.0,0.0,0.0,0.0,0.0,0.0,0.0,0.0,0.0,0.0,0.0,0.0,0.0,0.0,0.0,0.0,0.0,0.0,0.0,0.0,0.0,0.0,0.0,0.0,0.0,0.0,0.0,0.0,0.0,0.0,0.0,0.0,0.0,0.0,0.0,0.0,-4.8601,-5.0536,-5.1967,-5.284,-5.2589,-5.2435,-5.2508,-5.1058,-4.9358,0.0,0.0,0.0,0.0,0.0,0.0,0.0,0.0,0.0,0.0,0.0,0.0,0.0,0.0,0.0,0.0,0.0,0.0,0.0,0.0,0.0,0.0,0.0,0.0,0.0,0.0,0.0,0.0,0.0,0.0,0.0,0.0,0.0,0.0,0.0,0.0,0.0,0.0,0.0,0.0,0.0,-4.5171,-4.5467,-4.6103,-4.6303,0.0,0.0,-4.6553,-4.6545,-4.6341,0.0,0.0,0.0,0.0,0.0,0.0,0.0,0.0,0.0,0.0,0.0,0.0,0.0,0.0,0.0,0.0,0.0,0.0,0.0,0.0,0.0,0.0,0.0,0.0,0.0,0.0,0.0,0.0,0.0,0.0,0.0,0.0,0.0,0.0,0.0,0.0,0.0,0.0,0.0,0.0,0.0,0.0,0.0,0.0,0.0,0.0,0.0,0.0,0.0,0.0,0.0,0.0,0.0,0.0,0.0,-4.8494,-4.9003,-5.079,-5.1852,-5.2025,-5.1447,-5.1122,-5.1122,-5.0017,-4.8616,0.0,0.0,0.0,0.0,0.0,0.0,0.0,0.0,0.0,0.0,0.0,0.0,0.0,0.0,0.0,0.0,0.0,0.0,0.0,0.0,0.0,0.0,0.0,0.0,0.0,0.0,0.0,0.0,0.0,0.0,0.0,0.0,0.0,0.0,0.0,0.0,0.0,0.0,0.0,0.0,0.0,0.0,-4.6427,-4.6998,0.0,0.0,0.0,-4.7759,-4.7246,0.0,0.0,0.0,0.0,0.0,0.0,0.0,0.0,0.0,0.0,0.0,0.0,0.0,0.0,0.0,0.0,0.0,0.0,0.0,0.0,0.0,0.0,0.0,0.0,0.0,0.0,0.0,0.0,0.0,0.0,0.0,0.0,0.0,0.0,0.0,0.0,0.0,0.0,0.0,0.0,0.0,0.0,0.0,0.0,0.0,0.0,0.0,0.0,0.0,0.0,0.0,0.0,0.0,0.0,0.0,0.0,0.0,-4.8899,-5.049,-5.1333,-5.1267,-5.0488,-5.018,-5.0361,-4.9438,0.0,0.0,0.0,0.0,0.0,0.0,0.0,0.0,0.0,0.0,0.0,0.0,0.0,0.0,0.0,0.0,0.0,0.0,0.0,0.0,0.0,0.0,0.0,0.0,0.0,0.0,0.0,-3.7733,0.0,0.0,0.0,0.0,0.0,0.0,0.0,0.0,0.0,0.0,0.0,0.0,0.0,0.0,-4.5072,-4.7155,-4.7872,-4.8428,0.0,0.0,-4.8916,-4.8405,-4.8297,-4.791,0.0,0.0,0.0,0.0,0.0,0.0,0.0,0.0,0.0,0.0,0.0,0.0,0.0,0.0,0.0,0.0,0.0,0.0,0.0,0.0,0.0,0.0,0.0,0.0,0.0,0.0,0.0,0.0,0.0,0.0,0.0,0.0,0.0,0.0,0.0,0.0,0.0,0.0,0.0,0.0,0.0,0.0,0.0,0.0,0.0,0.0,0.0,0.0,0.0,0.0,0.0,0.0,0.0,0.0,0.0,-4.7938,-4.9434,-5.0605,-5.1249,-5.0506,-5.0434,-5.1158,-4.9727,-4.8067,0.0,0.0,0.0,0.0,0.0,0.0,0.0,0.0,0.0,0.0,0.0,0.0,0.0,0.0,0.0,0.0,0.0,0.0,0.0,0.0,0.0,0.0,0.0,0.0,0.0,0.0,0.0,0.0,0.0,0.0,0.0,0.0,0.0,0.0,0.0,0.0,0.0,0.0,0.0,0.0,0.0,-4.606,-4.715,-4.8596,-4.9658,0.0,0.0,-4.9712,-4.9901,-4.9908,-4.934,-4.7525,0.0,0.0,0.0,0.0,0.0,0.0,0.0,0.0,0.0,0.0,0.0,0.0,0.0,0.0,0.0,0.0,0.0,0.0,0.0,0.0,0.0,0.0,0.0,0.0,0.0,0.0,0.0,0.0,0.0,0.0,0.0,0.0,0.0,0.0,0.0,0.0,0.0,0.0,0.0,0.0,0.0,0.0,0.0,0.0,0.0,0.0,0.0,0.0,0.0,0.0,0.0,0.0,0.0,-4.8502,-4.9234,-5.0297,-5.0977,-5.1249,-5.0506,-4.9999,-4.9836,-4.9238,-4.8024,0.0,0.0,0.0,0.0,0.0,0.0,0.0,0.0,0.0,0.0,0.0,0.0,0.0,0.0,0.0,0.0,0.0,0.0,0.0,0.0,0.0,0.0,0.0,0.0,0.0,0.0,0.0,0.0,-4.3258,-4.3814,-4.362,0.0,0.0,0.0,0.0,0.0,0.0,0.0,0.0,0.0,0.0,-4.6041,-4.8144,-4.8834,0.0,0.0,-4.9664,-4.9504,-4.9335,-4.9329,-4.8972,-4.7725,-4.6219,0.0,0.0,0.0,0.0,0.0,0.0,0.0,0.0,0.0,0.0,0.0,0.0,0.0,0.0,0.0,0.0,0.0,0.0,0.0,0.0,0.0,0.0,0.0,0.0,0.0,0.0,0.0,0.0,0.0,0.0,0.0,0.0,0.0,0.0,0.0,0.0,0.0,0.0,0.0,0.0,0.0,0.0,0.0,0.0,0.0,0.0,0.0,0.0,0.0,0.0,0.0,0.0,-4.8998,-4.9709,-5.0524,-5.1049,-5.1285,-5.0488,-4.9836,-4.9293,-4.9039,-4.7937,0.0,0.0,0.0,0.0,0.0,0.0,0.0,0.0,0.0,0.0,0.0,0.0,0.0,0.0,0.0,0.0,0.0,0.0,0.0,0.0,0.0,0.0,0.0,0.0,0.0,0.0,0.0,0.0,-4.4004,-4.4589,-4.3785,0.0,0.0,0.0,0.0,0.0,0.0,0.0,0.0,0.0,0.0,-4.6533,-4.8725,-4.9081,-4.9241,-4.9731,-4.9765,-4.9485,-4.9044,-4.9058,-4.8811,-4.7935,0.0,0.0,0.0,0.0,0.0,0.0,0.0,0.0,0.0,0.0,0.0,0.0,0.0,0.0,0.0,0.0,0.0,0.0,0.0,0.0,0.0,0.0,0.0,0.0,0.0,0.0,0.0,0.0,0.0,0.0,-4.48,0.0,0.0,0.0,0.0,0.0,0.0,0.0,0.0,0.0,0.0,0.0,0.0,0.0,0.0,0.0,0.0,0.0,0.0,0.0,0.0,0.0,0.0,-4.8236,-4.8967,-4.9818,-5.0542,-5.1267,-5.0506,-5.0108,-5.0053,-4.9329,-4.7893,-4.5658,0.0,0.0,0.0,0.0,0.0,0.0,0.0,0.0,0.0,0.0,0.0,0.0,0.0,0.0,0.0,0.0,0.0,0.0,0.0,0.0,0.0,0.0,0.0,0.0,0.0,0.0,-4.2923,-4.3836,-4.4076,0.0,0.0,0.0,0.0,0.0,0.0,0.0,0.0,0.0,0.0,-4.5661,-4.764,-4.8765,-4.9417,-4.9889,-5.0335,-5.022,-4.9903,-4.9449,-4.9486,-4.9241,0.0,0.0,0.0,0.0,0.0,0.0,0.0,0.0,0.0,0.0,0.0,0.0,0.0,0.0,0.0,0.0,0.0,0.0,0.0,0.0,0.0,0.0,0.0,0.0,0.0,0.0,0.0,-4.8049,-4.8269,0.0,0.0,0.0,0.0,0.0,0.0,0.0,0.0,0.0,0.0,0.0,-4.9195,-4.8821,0.0,0.0,0.0,0.0,0.0,0.0,0.0,0.0,0.0,0.0,0.0,0.0,-4.9735,-5.0506,-5.1285,-5.181,-5.2082,-5.1828,-5.1256,-5.0307,-4.9582,-4.7778,-4.4918,0.0,0.0,0.0,0.0,0.0,0.0,0.0,0.0,0.0,0.0,0.0,0.0,0.0,0.0,0.0,0.0,0.0,0.0,0.0,0.0,0.0,0.0,0.0,0.0,0.0,-4.2193,0.0,0.0,0.0,0.0,0.0,0.0,0.0,0.0,0.0,0.0,0.0,-4.3507,-4.4993,-4.6591,-4.7861,-4.8382,-4.8887,-4.9256,0.0,0.0,0.0,0.0,0.0,0.0,0.0,0.0,0.0,0.0,0.0,0.0,0.0,0.0,-4.2549,-4.1443,-4.1329,-4.1452,-4.1435,0.0,0.0,0.0,0.0,0.0,0.0,0.0,0.0,0.0,0.0,0.0,0.0,0.0,0.0,0.0,0.0,-4.8324,0.0,0.0,0.0,0.0,0.0,0.0,0.0,0.0,-4.869,-4.9513,-5.0307,-5.0475,-5.0602,0.0,-5.026,-4.8581,0.0,0.0,0.0,0.0,0.0,0.0,0.0,0.0,-5.076,-5.1303,-5.2082,-5.2498,-5.2498,-5.2498,-5.1849,-5.0441,-4.9047,-4.7327,-4.52,-4.4371,-4.3406,0.0,0.0,0.0,0.0,0.0,0.0,0.0,0.0,0.0,0.0,0.0,0.0,0.0,0.0,0.0,0.0,0.0,0.0,0.0,0.0,0.0,0.0,0.0,-4.2926,0.0,0.0,0.0,0.0,0.0,0.0,0.0,0.0,0.0,-4.1954,-4.3193,-4.4632,-4.615,-4.7216,-4.7977,-4.8161,0.0,0.0,0.0,0.0,0.0,0.0,0.0,-4.7686,-4.7868,-4.7402,-4.6972,-4.6615,-4.6034,-4.5636,-4.5674,0.0,0.0,-4.3253,-4.3031,-4.3081,-4.2756,-4.2892,-4.2942,-4.2564,-4.3054,-4.3487,0.0,0.0,0.0,0.0,0.0,0.0,0.0,0.0,-4.7168,-4.7627,0.0,-4.8361,0.0,0.0,0.0,0.0,0.0,0.0,0.0,0.0,-5.0126,-5.085,-5.0271,-5.0977,-5.1339,-5.1285,-5.056,-5.0162,-5.009,-5.0126,0.0,0.0,0.0,0.0,0.0,0.0,-5.1285,-5.1357,-5.2118,-5.2498,-5.2498,-5.248,-5.1784,-5.0325,-4.7858,-4.6507,-4.6367,-4.4653,-4.3637,-4.3515,-4.1425,0.0,0.0,0.0,0.0,0.0,0.0,0.0,0.0,0.0,0.0,0.0,0.0,0.0,0.0,0.0,0.0,0.0,0.0,0.0,0.0,-4.2061,0.0,0.0,0.0,0.0,0.0,0.0,0.0,0.0,0.0,0.0,-4.3872,-4.5086,-4.6238,-4.6825,0.0,0.0,0.0,0.0,-4.8049,-4.8179,-4.8163,-4.7913,-4.7278,-4.7304,-4.7462,-4.7462,0.0,0.0,-4.7815,-4.7446,-4.7053,-4.7227,-4.7673,-4.7461,-4.5414,-4.555,-4.5755,-4.4958,-4.5224,-4.5388,-4.4562,-4.4774,-4.5253,-4.5755,0.0,0.0,0.0,0.0,-4.5314,-4.6159,-4.713,-4.7719,-4.8086,-4.8343,-4.8948,0.0,0.0,0.0,0.0,0.0,0.0,-4.8333,-4.9401,-5.0126,-5.0904,-5.181,-5.2027,-5.2154,-5.2154,-5.19,-5.181,-5.1792,-5.1792,-5.1212,-5.009,0.0,0.0,0.0,0.0,-5.1574,-5.2118,-5.2371,-5.2498,-5.2498,-5.2066,-5.1025,-4.9306,-4.7466,-4.6293,-4.5932,-4.4722,-4.385,-4.3344,-4.2665,0.0,0.0,0.0,0.0,0.0,0.0,0.0,0.0,0.0,0.0,0.0,0.0,0.0,0.0,0.0,0.0,0.0,0.0,0.0,-4.1913,-4.2866,-4.3356,0.0,0.0,0.0,0.0,0.0,0.0,0.0,0.0,0.0,-4.5943,-4.6374,-4.6922,0.0,0.0,-4.8001,-4.8066,-4.8001,-4.8001,-4.8066,0.0,0.0,0.0,-4.7799,-4.7816,-4.7832,-4.7928,-4.7975,-4.8102,-4.8123,-4.8096,-4.8079,-4.8281,-4.8197,-4.7625,-4.7308,-4.7055,-4.6733,-4.6404,-4.6075,-4.5814,-4.5795,-4.5851,-4.7021,-4.6085,-4.5443,-4.5369,-4.57,-4.6177,-4.6838,-4.7609,-4.8104,-4.8324,-4.8379,-4.9205,-4.9551,-4.9413,-4.9232,0.0,0.0,0.0,-4.8713,-4.9637,-5.0271,-5.1067,-5.2009,-5.2353,-5.2498,-5.2498,-5.2498,-5.2498,-5.2498,-5.2498,-5.1991,-5.1067,0.0,0.0,-5.1737,-5.1774,-5.2009,-5.248,-5.2275,-5.2144,-5.2162,-5.1347,-5.036,-4.9143,-4.7666,-4.6675,-4.6026,-4.5168,-4.4354,-4.3687,-4.3256,-4.2406,0.0,0.0,0.0,0.0,0.0,0.0,0.0,0.0,0.0,0.0,0.0,-3.7963,-3.798,0.0,0.0,0.0,-4.1624,-4.2469,-4.2916,-4.3304,0.0,0.0,0.0,0.0,0.0,0.0,0.0,-4.5433,-4.5947,-4.651,-4.7239,-4.7338,-4.7487,-4.7951,-4.8001,-4.8001,-4.8001,0.0,-4.8001,-4.8001,-4.8001,-4.8001,-4.8001,-4.8001,-4.8001,-4.8001,-4.8066,-4.8163,-4.8163,-4.8292,-4.842,-4.8483,-4.8483,-4.8483,-4.842,-4.8115,-4.783,-4.7768,-4.7371,-4.7087,-4.7008,-4.6849,-4.6769,-4.8453,-4.8288,-4.6819,-4.6599,-4.7205,-4.7205,-4.7627,-4.8306,-4.8306,-4.8288,-4.8361,-4.9205,-4.9493,-4.9373,-4.924,0.0,-4.7735,-4.855,-4.8949,-4.9075,-5.0578,-5.1321,-5.143,-5.2154,-5.2498,-5.2498,-5.2498,-5.2498,-5.2498,-5.2498,-5.2498,-5.2434,-5.2434,-5.2452,-5.2498,-5.248,-5.2434,-5.2387,-5.1835,-5.15,-5.1449,-5.0422,-4.9756,-4.9529,-4.8284,-4.7228,-4.6531,-4.563,-4.4926,-4.4286,-4.3387,-4.2848,-4.2732,0.0,0.0,0.0,0.0,0.0,0.0,0.0,0.0,0.0,0.0,0.0,0.0,0.0,0.0,0.0,-4.3247,0.0,-4.3794,-4.3794,0.0,0.0,0.0,-4.434,-4.5649,-4.5251,-4.5384,-4.6742,0.0,0.0,-4.7918,0.0,-4.8001,-4.8001,-4.8001,-4.8001,-4.8001,-4.8001,-4.8001,-4.8001,-4.8001,-4.8001,-4.8001,-4.8001,-4.8001,-4.8001,-4.7919,-4.7919,-4.8098,-4.8098,-4.8146,-4.842,-4.85,-4.842,-4.8227,-4.8129,-4.8098,-4.7983,-4.8113,-4.8129,-4.795,-4.7885,-4.7852,-4.9848,-4.926,-4.8875,-4.8434,-4.8012,-4.8012,-4.8141,-4.8306,-4.8247,-4.8247,-4.8361,-4.9029,-4.9273,-4.9203,-4.9676,-4.9082,-4.7735,-4.855,-4.9238,-4.9836,-5.0832,-5.1611,-5.2208,-5.2389,-5.2498,-5.2498,-5.2498,-5.2498,-5.2498,-5.2498,-5.2387,-5.2198,-5.203,-5.2096,-5.2311,-5.2246,-5.2036,-5.1651,-5.1416,-5.0982,-5.031,-4.9913,-4.9462,-4.8968,-4.786,-4.6999,-4.6368,-4.545,-4.469,-4.4048,-4.3789,-4.3307,-4.2609,-4.2054,0.0,0.0,0.0,0.0,0.0,0.0,0.0,0.0,0.0,-4.01,-4.0133,0.0,-4.2932,0.0,-4.3678,-4.4671,-4.5218,-4.5284,0.0,0.0,-4.5384,-4.54,-4.5748,-4.6129,-4.651,-4.6858,-4.7388,-4.7802,-4.7984,-4.8001,-4.8001,-4.8001,-4.8001,-4.8001,-4.8001,-4.8001,-4.8001,-4.8001,-4.8001,-4.8001,-4.8001,-4.8001,-4.8001,-4.8001,-4.7471,-4.7321,-4.7902,-4.7538,-4.7321,-4.7968,-4.8115,-4.8115,-4.7984,-4.7538,-4.7186,-4.7169,-4.7605,-4.8066,-4.8001,-4.8001,-4.8001,-5.0545,-5.0123,-5.0123,-4.9646,-4.8838,-4.8471,-4.8324,-4.8306,-4.8247,-4.8286,-4.8379,-4.9453,-5.0003,-5.0241,-5.0591,-5.0014,-4.8876,-4.9601,-5.0216,-5.0651,-5.1448,-5.2082,-5.248,-5.2228,-5.2114,-5.2114,-5.1817,-5.1701,-5.1701,-5.1701,-5.1651,-5.15,-5.1363,-5.1381,-5.1518,-5.1637,-5.1586,-5.1296,-5.0929,-5.0272,-4.9436,-4.9299,-4.9012,-4.8547,-4.8005,-4.7208,-4.6202,-4.5646,-4.4886,-4.3964,-4.3839,-4.3522,-4.3048,-4.27,-4.1988,0.0,0.0,0.0,0.0,0.0,0.0,0.0,0.0,0.0,0.0,0.0,-4.4059,0.0,-4.4705,-4.5351,-4.5765,-4.5656,-4.5662,-4.5958,-4.6008,-4.6123,-4.6436,-4.6994,-4.7388,-4.7388,-4.7769,-4.8001,-4.8001,-4.8001,-4.8001,-4.8001,-4.7704,-4.7638,-4.7935,-4.8001,-4.8001,-4.8001,-4.8001,-4.8001,-4.8001,-4.7704,-4.7488,-4.7404,-4.6844,-4.648,-4.6929,-4.6636,-4.648,-4.686,-4.6997,-4.6997,-4.6913,-4.662,-4.634,-4.634,-4.6689,-4.705,-4.7421,-4.7488,-4.7488,-5.1041,-5.0949,-5.0967,-5.049,-4.9682,-4.882,-4.8398,-4.8324,-4.8306,-4.8323,-4.8485,-5.0175,-5.1096,-5.1413,-5.1522,-5.1035,-5.0144,-5.0923,-5.1285,-5.1339,-5.2118,-5.2498,-5.2498,-5.1951,-5.1669,-5.1601,-5.1034,-5.0751,-5.068,-5.068,-5.0697,-5.0643,-5.0643,-5.0552,-5.0404,-5.0768,-5.0999,-5.0982,-5.0272,-4.9555,-4.8832,-4.8769,-4.8564,-4.8227,-4.8163,-4.7464,-4.6017,-4.5844,-4.5197,-4.3939,-4.3704,-4.3645,-4.3611,-4.3015,-4.2618,0.0,-4.1905,0.0,0.0,0.0,0.0,0.0,0.0,0.0,0.0,-4.3992,-4.5135,-4.5864,-4.593,-4.5963,-4.6063,-4.5826,-4.588,-4.6454,-4.652,-4.6783,-4.7389,-4.777,-4.8001,-4.8001,-4.7919,-4.7836,-4.7853,-4.777,-4.7721,-4.7704,-4.7134,-4.6981,-4.7638,-4.7787,-4.777,-4.7704,-4.7721,-4.7504,-4.7504,-4.705,-4.6689,-4.6604,-4.604,-4.5624,-4.5769,-4.5624,-4.5624,-4.5697,-4.5841,-4.5769,-4.5697,-4.5624,-4.5551,-4.5551,-4.5551,-4.5825,-4.6464,-4.6673,-4.6641,-5.238,-5.1756,-5.1775,-5.1316,-5.0508,-4.9701,-4.8948,-4.8306,-4.8247,-4.8473,-4.9081,-5.0733,-5.1067,-5.0468,-5.1084,-5.0895,-5.0144,-5.0923,-5.1285,-5.1321,-5.2118,-5.2498,-5.2498,-5.2369,-5.2048,-5.1601,-5.15,-5.1139,-5.068,-5.068,-5.0589,-5.0387,-5.0237,-5.0119,-4.9849,0.0,0.0,0.0,-4.9273,-4.894,-4.8769,-4.85,-4.8292,-4.8227,-4.8115,0.0,-4.5943,-4.5781,-4.5119,-4.3727,-4.3628,0.0,0.0,0.0,0.0,0.0,0.0,0.0,0.0,0.0,0.0,0.0,-4.3876,-4.4026,-4.3512,-4.4738,-4.5897,-4.6609,-4.6692,-4.6941,-4.752,-4.7505,-4.7506,-4.7638,-4.7638,-4.7721,-4.7853,-4.7935,-4.8001,-4.8001,-4.7404,-4.7033,-4.7033,-4.655,-4.641,-4.6896,-4.6394,-4.6253,-4.6896,-4.6965,-4.6828,-4.6285,-4.6269,-4.6198,-4.6127,-4.6056,-4.5913,-4.5825,-4.5243,-4.5036,-4.5478,-4.511,-4.5036,-4.5478,-4.5697,-4.5624,-4.5624,-4.5184,-4.4737,-4.4737,-4.4737,-4.4962,-4.5769,-4.5913,-4.5754,-5.2968,0.0,-5.2601,-5.2123,0.0,-5.0949,-5.0306,-4.9517,-4.9074,-4.9486,-5.0472,-5.1256,-5.1497,-5.1338,-5.1756,-5.1692,-5.1285,-5.1701,-5.1882,-5.1919,-5.2299,-5.2498,-5.2498,-5.2228,-5.1902,-5.1569,-5.1017,-5.0642,-5.0293,-5.0011,-4.9797,-4.9639,-4.9615,-4.9513,-4.935,-4.9307,-4.9246,-4.9246,-4.9018,-4.8769,-4.8517,-4.8292,-4.8163,-4.8115,0.0,0.0,0.0,0.0,0.0,0.0,0.0,0.0,0.0,0.0,0.0,-4.3098,-4.3065,-4.2899,-4.2568,-4.3181,-4.3744,-4.4125,-4.5152,-4.5632,-4.5268,-4.593,-4.6579,-4.7078,-4.7161,-4.7243,-4.7455,-4.7454,-4.7437,-4.7437,-4.7571,-4.7704,-4.7704,-4.7555,-4.7421,-4.7337,-4.6759,-4.6253,-4.6253,-4.5985,-4.5841,-4.6111,-4.5608,-4.5243,-4.5608,-4.604,-4.6111,-4.5785,-4.5697,-4.5697,-4.5624,-4.5332,-4.511,-4.502,-4.4434,-4.4159,-4.445,-4.422,-4.4082,-4.4434,-4.451,-4.451,-4.451,-4.4143,-4.3927,-4.3927,-4.3927,-4.3852,-4.4125,-4.439,-4.4518,-5.3206,-5.3206,-5.3206,-5.2821,-5.2197,-5.2068,-5.161,-5.0967,0.0,0.0,0.0,-5.1791,-5.2079,-5.259,-5.2608,-5.2536,-5.248,-5.2498,-5.2498,-5.2498,-5.2498,-5.2434,-5.2322,-5.1835,-5.15,-5.1226,-5.0384,-4.9832,-4.9715,-4.9229,-4.9018,-4.9018,-4.9018,-4.9018,-4.9018,-4.9018,-4.9001,-4.894,-4.894,-4.8673,-4.8227,-4.8163,-4.8115,-4.8001,-4.8001,-4.7371,-4.6046,-4.5864,-4.5185,-4.391,-4.3711,-4.3645,-4.3645,-4.3645,-4.3678,-4.381,-4.381,-4.386,-4.4009,-4.4556,-4.4937,-4.5069,-4.6328,-4.709,-4.709,-4.709,-4.7192,-4.7355,-4.7404,-4.727,-4.6997,-4.7014,-4.7014,-4.7098,-4.7202,-4.7337,-4.727,-4.6896,-4.6604,-4.6534,-4.5969,-4.5478,-4.5478,-4.5332,-4.5332,-4.5332,-4.4812,-4.4297,-4.4373,-4.4812,-4.5243,-4.5405,-4.5258,-4.5169,-4.5169,-4.4737,-4.4297,-4.4297,-4.3771,-4.3344,-4.3344,-4.3344,-4.3344,-4.3409,-4.3344,-4.3329,-4.3329,-4.3409,-4.3299,-4.318,-4.315,-4.297,-4.2434,-4.2592,-4.2904,-5.3206,-5.3206,-5.3206,-5.3151,-5.2986,-5.2289,-5.194,-5.1811,-5.1701,-5.1734,-5.1864,-5.2393,-5.2634,-5.259,-5.2554,-5.2544,-5.2498,-5.2498,-5.2498,0.0,-5.2498,-5.2228,-5.1719,-5.1669,-5.107,-5.0159,-5.0005,-4.9598,-4.9168,-4.9063,-4.9018,-4.9018,-4.9018,-4.9018,-4.9018,-4.9018,-4.8956,-4.8832,-4.8707,-4.842,-4.8227,-4.8049,-4.8001,-4.8001,-4.8001,-4.762,-4.6775,-4.6129,-4.54,-4.4572,-4.3959,-4.3645,-4.3645,-4.3661,-4.391,-4.4473,-4.4539,-4.4821,-4.5433,-4.5582,-4.5914,-4.6543,-4.7371,-4.7835,-4.7852,-4.7852,-4.7737,-4.7471,-4.7404,-4.7421,-4.7354,-4.727,-4.7354,-4.7654,-4.7253,-4.688,-4.6811,-4.6253,-4.5841,-4.5825,-4.5184,-4.4662,-4.4601,-4.4143,-4.3989,-4.4358,-4.4066,-4.3472,-4.3551,-4.3551,-4.3927,-4.4358,-4.4066,-4.3693,-4.3771,-4.363,-4.3566,-4.3488,-4.3409,-4.3344,-4.3344,-4.3344,-4.3344,-4.3344,-4.3344,-4.3314,-4.3314,-4.3344,-4.306,-4.2671,-4.2491,-4.2282,-4.1639,-4.1265,-4.0949,-5.3206,-5.3206,-5.3206,-5.3206,-5.3188,-5.2803,-5.2595,-5.2553,-5.2614,-5.2595,-5.2486,-5.2722,-5.2717,-5.259,-5.2581,-5.2554,-5.2498,-5.2498,-5.2498,-5.2498,-5.2498,-5.218,-5.1619,-5.1619,-5.1174,-5.0331,-5.0028,-4.9774,-4.9513,-4.9168,-4.9018,-4.9018,-4.9018,-4.9018,-4.9018,-4.9018,-4.894,-4.8786,-4.8627,-4.8403,-4.8227,-4.8066,-4.8001,-4.8001,-4.8001,-4.7653,-4.6924,-4.6576,-4.6046,-4.5317,-4.4986,-4.4804,-4.4804,-4.4804,-4.4953,-4.5251,-4.5284,-4.5433,-4.5765,-4.6162,-4.6725,-4.7421,-4.7802,-4.8001,-4.8001,-4.8001,-4.7853,-4.7471,-4.7404,-4.7354,-4.715,-4.6929,-4.6844,-4.7082,-4.655,-4.6198,-4.6111,-4.5551,-4.5036,-4.4962,-4.4373,-4.3849,-4.3864,-4.3551,-4.3409,-4.3771,-4.3488,-4.3344,-4.3344,-4.3344,-4.3394,-4.3786,-4.3551,-4.3329,-4.3344,-4.3344,-4.3344,-4.3344,-4.3344,-4.3344,-4.3344,-4.3344,-4.3344,-4.3344,-4.3329,-4.318,-4.291,-4.2821,-4.2521,-4.2028,-4.1833,-4.1564,-4.098,-4.0322,-3.9903,-5.2931,-5.2949,-5.3151,-5.3206,-5.3206,-5.3206,-5.3164,-5.3078,-5.3347,-5.3329,-5.306,-5.2868,-5.2761,-5.2654,-5.2608,-5.2536,-5.2498,-5.2498,-5.2498,-5.2498,-5.2498,-5.2162,-5.1669,-5.1619,-5.1209,-5.0552,-5.0085,-4.9832,-4.9674,-4.9229,-4.9018,-4.9018,-4.9018,-4.9018,-4.9018,-4.9018,-4.8872,-4.8596,-4.8392,-4.8253,-4.8227,-4.8115,-4.8001,-4.8001,-4.7835,-4.7487,-4.6924,-4.6576,-4.6129,-4.5582,-4.5384,-4.5301,-4.5301,-4.5301,-4.545,-4.5732,-4.5798,-4.5947,-4.6295,-4.6808,-4.7388,-4.7934,-4.8001,-4.8001,-4.8001,-4.8001,-4.7853,-4.7488,-4.7404,-4.727,-4.7082,-4.6791,-4.6496,-4.641,-4.6001,-4.5624,-4.539,-4.4737,-4.422,-4.4159,-4.3693,-4.3344,-4.3344,-4.3344,-4.3344,-4.3344,-4.3344,-4.3344,-4.3344,-4.3344,-4.3344,-4.3344,-4.3344,-4.3344,-4.3344,-4.3344,-4.3344,-4.3344,-4.3344,-4.3344,-4.3344,-4.3344,-4.3225,-4.315,-4.3075,-4.2806,-4.2297,-4.2132,-4.1863,-4.1339,-4.116,-4.095,-4.0307,-3.9843,-3.9454,-5.2123,-5.2215,-5.2913,-5.3206,-5.3206,-5.3206,-5.3206,-5.3237,-5.394,-5.3867,-5.3201,-5.2893,-5.2806,-5.2761,-5.2618,-5.2544,-5.2498,-5.2498,-5.2498,-5.2498,-5.2498,-5.2162,-5.1601,-5.1619,-5.1017,-5.0102,-4.989,-4.9615,-4.9168,-4.9063,-4.9018,-4.9018,-4.9018,-4.8984,-4.8984,-4.8984,-4.868,-4.7977,-4.7637,-4.7768,-4.8177,-4.8163,-4.8098,-4.8001,-4.7338,-4.6974,-4.6825,-4.5599,-4.487,-4.4738,-4.4241,-4.3876,-4.3893,-4.386,-4.444,-4.5665,-4.5798,-4.6361,-4.7603,-4.7868,-4.7901,-4.7984,-4.8001,-4.8001,-4.8001,-4.8001,-4.7853,-4.7471,-4.7404,-4.7337,-4.7354,-4.7202,-4.6913,-4.6464,-4.5969,-4.5405,-4.4646,-4.3912,-4.3394,-4.3394,-4.3409,-4.3344,-4.3344,-4.3344,-4.3344,-4.3344,-4.3344,-4.3344,-4.3344,-4.3344,-4.3344,-4.3344,-4.3344,-4.3344,-4.3344,-4.3344,-4.3344,-4.3344,-4.3314,-4.3269,-4.3225,-4.318,-4.3165,-4.2521,-4.2447,-4.2207,-4.1728,-4.1459,-4.125,-4.0696,-4.0457,-4.0292,-3.9709,-3.9484,-3.9424,-5.1995,-5.205,-5.2876,-5.3206,-5.3206,-5.3206,-5.3146,-5.314,-5.3494,-5.3457,-5.3078,-5.2868,-5.2806,-5.2824,-5.2627,-5.2554,-5.248,-5.2498,-5.2498,-5.2498,-5.2498,-5.1982,-5.1139,-5.1105,-5.0442,-4.9453,-4.9394,-4.9229,-4.9063,-4.9001,-4.9018,-4.8951,-4.8595,-4.8359,-4.8325,-4.7919,-4.747,-4.7063,-4.6908,-4.6893,-4.6912,-4.6819,-4.6756,-4.6676,-4.6394,-4.6245,-4.6195,-4.5632,-4.5351,-4.5317,-4.5052,-4.4903,-4.4903,-4.4903,-4.5168,-4.5765,-4.6212,-4.6709,-4.7305,-4.7752,-4.8001,-4.8001,-4.7555,-4.7488,-4.7919,-4.7218,-4.6705,-4.705,-4.7033,-4.7033,-4.6981,-4.6253,-4.5608,-4.539,-4.4721,-4.4143,-4.3864,-4.3551,-4.3344,-4.3344,-4.3344,-4.3344,-4.3344,-4.3344,-4.3344,-4.3344,-4.3344,-4.3344,-4.3329,-4.3344,-4.3344,-4.3344,-4.3344,-4.3344,-4.3329,-4.3344,-4.3314,-4.3269,-4.3,-4.2776,-4.2731,-4.2372,-4.2058,-4.1803,-4.1788,-4.1534,-4.092,-4.0786,-4.0606,-4.0098,-3.9828,-3.9723,-3.9469,-3.9424,-3.9424,-5.1995,-5.2123,-5.2876,-5.3206,-5.3206,-5.3206,-5.3164,-5.3097,-5.3384,-5.3366,-5.3078,-5.3131,-5.305,-5.2824,-5.2654,-5.2554,-5.248,-5.2498,-5.2498,-5.2498,-5.2498,-5.1933,-5.1017,-5.0911,-5.0331,-4.9376,-4.929,-4.9067,-4.8731,-4.8697,-4.8612,-4.8359,-4.7868,-4.7614,-4.7564,-4.7039,-4.6625,-4.6304,-4.6211,-4.5949,-4.5557,-4.5324,-4.5384,-4.5715,-4.5599,-4.55,-4.5483,-4.5284,-4.5202,-4.5185,-4.5202,-4.5202,-4.5202,-4.5202,-4.5284,-4.5533,-4.5989,-4.6484,-4.6874,-4.7046,-4.7275,-4.7522,-4.6965,-4.6775,-4.7066,-4.634,-4.5969,-4.6394,-4.6308,-4.6166,-4.6308,-4.5463,-4.4812,-4.451,-4.3912,-4.3551,-4.3329,-4.3344,-4.3344,-4.3344,-4.3344,-4.3344,-4.3344,-4.3344,-4.3344,-4.3344,-4.3344,-4.3225,-4.3105,-4.3045,-4.3,-4.2836,-4.2791,-4.2851,-4.3015,-4.3015,-4.303,-4.2731,-4.2327,-4.2102,-4.2087,-4.1639,-4.122,-4.125,-4.1175,-4.0876,-4.0307,-4.0098,-4.0098,-3.9649,-3.9439,-3.9454,-3.9424,-3.9424,-3.9424,-5.1995,-5.2123,-5.2858,-5.3188,-5.3206,-5.3206,-5.3206,-5.3219,-5.3959,-5.3885,-5.3311,-5.3792,-5.3694,-5.2974,-5.2663,-5.248,-5.2498,-5.2498,-5.2498,-5.2498,-5.2498,-5.218,-5.1619,-5.1569,-5.0964,-4.9815,-4.9688,-4.9086,-4.7986,-4.797,-4.7597,-4.6955,-4.6887,-4.6836,-4.6836,-4.6718,-4.6413,-4.5747,-4.5412,-4.4934,-4.4307,-4.3913,-4.4456,-4.5483,-4.5086,-4.4738,-4.4671,-4.4092,-4.3761,-4.3744,-4.3827,-4.3794,-4.3777,-4.3734,-4.4032,-4.4644,-4.4851,-4.5473,-4.6355,-4.5624,-4.5432,-4.641,-4.6007,-4.5706,-4.5778,-4.5476,-4.5347,-4.5706,-4.4923,-4.4806,-4.541,-4.5233,-4.4896,-4.4372,-4.4357,-4.3898,-4.3334,-4.312,-4.3314,-4.324,-4.3165,-4.3105,-4.3225,-4.3344,-4.3195,-4.318,-4.3254,-4.306,-4.2536,-4.2402,-4.2177,-4.1788,-4.1654,-4.1698,-4.2237,-4.2402,-4.2132,-4.1878,-4.1728,-4.1429,-4.1429,-4.1324,-4.095,-4.0651,-4.0516,-4.0202,-3.9694,-3.9499,-3.9559,-3.9424,-3.9424,-3.9424,-3.9424,-3.9424,-3.9424,-5.2289,-5.2729,-5.2509,-5.2711,-5.3188,-5.3206,-5.3206,-5.3243,-5.35,-5.35,-5.3237,-5.3371,-5.3273,-5.2999,-5.2717,-5.2581,-5.2581,-5.2526,-5.2498,-5.2498,-5.2498,-5.2162,-5.1669,-5.1619,-5.1017,-4.9993,-4.9407,-4.8517,-4.7319,-4.7208,-4.7073,-4.6752,-4.6312,-4.6092,-4.6007,-4.5602,-4.5155,-4.4805,-4.4598,-4.4307,-4.4048,-4.3747,-4.391,-4.434,-4.4158,-4.4009,-4.4009,-4.3761,-4.3645,-4.3645,-4.3645,-4.3645,-4.3568,-4.3174,-4.3088,-4.3304,-4.3363,-4.3581,-4.4053,-4.4134,-4.4262,-4.4639,-4.411,-4.3959,-4.4142,-4.3583,-4.3144,-4.3437,-4.2952,-4.2727,-4.2969,-4.3318,-4.335,-4.2682,-4.2531,-4.25,-4.2149,-4.2073,-4.2073,-4.2073,-4.2073,-4.2087,-4.2177,-4.2087,-4.2087,-4.2087,-4.2102,-4.1998,-4.1833,-4.1728,-4.1624,-4.1459,-4.1384,-4.1294,-4.1025,-4.1504,-4.1594,-4.1369,-4.1145,-4.0861,-4.0756,-4.0412,-4.0023,-4.0038,-3.9888,-3.9828,-3.9454,-3.9454,-3.9424,-3.9424,-3.9424,-3.9424,-3.9424,-3.9424,-3.9424,-5.2711,-5.3078,-5.2619,-5.2692,-5.3188,-5.3206,-5.3206,-5.3206,-5.3206,-5.3206,-5.3164,-5.3103,-5.3042,-5.2999,-5.2806,-5.2654,-5.2654,-5.2572,-5.2498,-5.2498,-5.2498,-5.197,-5.1094,-5.0939,-5.0241,-4.8999,-4.8415,-4.7534,-4.6573,-4.6447,-4.6329,-4.6041,-4.5568,-4.5348,-4.5263,-4.4807,-4.4514,-4.4367,-4.4212,-4.4039,-4.3956,-4.3704,-4.3645,-4.3645,-4.3645,-4.3645,-4.3645,-4.3645,-4.3645,-4.3645,-4.3645,-4.3492,-4.3251,-4.2648,-4.2253,-4.2238,-4.2018,-4.2113,-4.2485,-4.2651,-4.2802,-4.3216,-4.2623,-4.2406,-4.2823,-4.2012,-4.179,-4.1923,-4.17,-4.1339,-4.119,-4.1535,-4.1609,-4.1399,-4.1384,-4.1384,-4.1384,-4.1414,-4.1429,-4.1459,-4.1474,-4.1429,-4.1384,-4.1414,-4.1429,-4.1384,-4.1384,-4.1339,-4.1115,-4.107,-4.095,-4.0801,-4.0666,-4.0472,-4.0292,-4.0487,-4.0651,-4.0472,-4.0502,-4.0247,-4.0083,-3.9664,-3.9469,-3.9439,-3.9424,-3.9424,-3.9424,-3.9424,-3.9352,-3.9352,-3.9424,-3.9424,-3.9424,-3.9424,-3.9262,-5.3188,-5.3188,-5.3206,-5.3151,-5.3206,-5.3206,-5.3206,-5.3206,-5.3206,-5.3206,-5.3206,-5.3164,-5.3164,-5.3121,-5.2912,-5.2806,-5.2761,-5.2481,-5.2361,-5.2387,-5.2361,-5.1418,-4.9854,-4.9697,-4.8762,-4.7121,-4.6861,-4.6455,-4.5737,-4.5669,-4.5382,-4.4773,-4.4722,-4.4722,-4.4621,-4.4604,-4.457,-4.4514,-4.427,-4.4114,-4.4039,-4.3747,-4.3645,-4.3645,-4.3645,-4.3645,-4.3645,-4.3645,-4.3645,-4.3568,-4.3568,-4.3235,-4.2585,-4.1917,-4.1525,-4.1393,-4.0919,-4.1215,-4.2124,-4.1219,-4.118,-4.1893,-4.1743,-4.1295,-4.1384,-4.1295,-4.125,-4.128,-4.122,-4.1025,-4.0502,-4.0457,-4.0666,-4.1205,-4.1145,-4.113,-4.122,-4.1309,-4.1339,-4.122,-4.116,-4.1324,-4.1324,-4.1145,-4.1085,-4.11,-4.1115,-4.0935,-4.0487,-4.0397,-4.0113,-3.9738,-3.9753,-3.9813,-3.9619,-3.9454,-3.9484,-3.9514,-3.9634,-3.9619,-3.9679,-3.9439,-3.9439,-3.9424,-3.9424,-3.9424,-3.9424,-3.9352,-3.928,-3.9207,-3.928,-3.9088,-3.8882,-3.872,-3.8952,-5.3206,-5.3206,-5.3206,-5.3206,-5.3206,-5.3206,-5.3206,-5.3206,-5.3206,-5.3206,-5.3206,-5.3206,-5.3206,-5.3121,-5.2912,-5.2806,-5.2725,-5.2046,-5.1752,-5.1736,-5.1359,-5.0606,-4.9643,-4.9064,-4.8085,-4.6721,-4.6238,-4.5669,-4.5077,-4.4942,-4.4773,-4.4604,-4.457,-4.457,-4.457,-4.457,-4.457,-4.457,-4.427,-4.4097,-4.4114,-4.3805,-4.3628,-4.3645,-4.3645,-4.3645,-4.3645,-4.3645,-4.3645,-4.3552,-4.3157,-4.2569,-4.1852,-4.1209,-4.0805,-4.0737,-4.0146,-3.9869,-4.0264,-4.0085,-3.9886,-4.0269,-4.0184,-4.0023,-4.0023,-4.0068,-4.0083,-4.0068,-4.0038,-3.9903,-3.9768,-3.9723,-3.9873,-4.0008,-4.0038,-4.0098,-4.0157,-4.0098,-4.0023,-4.0023,-4.0023,-4.0038,-4.0068,-4.0068,-4.0142,-4.0127,-4.0113,-3.9978,-3.9813,-3.9798,-3.9709,-3.9454,-3.9424,-3.9424,-3.9424,-3.9352,-3.9352,-3.928,-3.928,-3.9352,-3.9424,-3.9424,-3.9424,-3.9192,-3.9265,-3.9147,-3.922,-3.9118,-3.8752,-3.8694,-3.8488,-3.8223,-3.7974,-3.8074,-3.8317,-5.3314,-5.3206,-5.3206,-5.3206,-5.3206,-5.3206,-5.3206,-5.3206,-5.3206,-5.3206,-5.3206,-5.3206,-5.3041,-5.276,-5.2455,-5.2204,-5.185,-5.0968,-5.0522,-5.0453,-5.0474,-4.9804,-4.8713,-4.7526,-4.6669,-4.5894,-4.5473,-4.5043,-4.4604,-4.457,-4.457,-4.457,-4.457,-4.457,-4.457,-4.457,-4.457,-4.457,-4.4286,-4.4097,-4.4039,-4.3747,-4.3645,-4.3645,-4.3645,-4.3645,-4.3645,-4.3645,-4.3492,-4.3113,-4.238,-4.1591,-4.1127,-4.0478,-4.0076,-4.0021,-3.9681,-3.9424,-3.9424,-3.9454,-3.9424,-3.9424,-3.9424,-3.9439,-3.9424,-3.9424,-3.9424,-3.9424,-3.9454,-3.9424,-3.9439,-3.9424,-3.9424,-3.9424,-3.9469,-3.9424,-3.9424,-3.9424,-3.9454,-3.9499,-3.9484,-3.9424,-3.9424,-3.9424,-3.9424,-3.9424,-3.9424,-3.9424,-3.9424,-3.9439,-3.9424,-3.9424,-3.9424,-3.9424,-3.9424,-3.9352,-3.9265,-3.9192,-3.9119,-3.928,-3.9424,-3.9352,-3.9352,-3.8723,-3.8486,-3.7823,-3.7779,-3.7826,-3.7606,-3.7589,-3.7533,-3.7521,-3.7369,-3.7526,-3.7693,-5.3502,-5.3206,-5.3206,-5.3206,-5.3206,-5.3206,-5.3206,-5.3206,-5.3206,-5.3151,-5.3096,-5.3023,-5.2637,-5.2009,-5.1694,-5.1219,-5.0398,-4.9667,-4.9096,-4.8919,-4.9097,-4.871,-4.7055,-4.5726,-4.5014,-4.48,-4.471,-4.4604,-4.457,-4.457,-4.457,-4.457,-4.457,-4.457,-4.457,-4.457,-4.457,-4.457,-4.427,-4.4155,-4.4097,-4.3805,-4.3645,-4.3628,-4.3645,-4.3645,-4.3628,-4.3509,-4.3174,-4.2459,-4.1409,-4.0737,-4.0339,-3.9737,-3.9481,-3.9481,-3.9409,-3.9424,-3.9424,-3.9424,-3.9424,-3.9424,-3.9424,-3.9424,-3.9424,-3.9424,-3.9424,-3.9424,-3.9424,-3.9424,-3.9424,-3.9424,-3.9424,-3.9424,-3.9424,-3.9424,-3.9424,-3.9424,-3.9424,-3.9424,-3.9424,-3.9424,-3.9424,-3.9424,-3.9424,-3.9424,-3.9424,-3.9424,-3.9424,-3.9424,-3.9424,-3.9424,-3.9352,-3.9424,-3.9424,-3.8973,-3.887,-3.8679,-3.8546,-3.837,-3.8708,-3.8781,-3.8649,-3.8059,-3.748,-3.6798,-3.6434,-3.6564,-3.6351,-3.6105,-3.6244,-3.6599,-3.6497,-3.627,-3.6351,-5.3272,-5.3206,-5.3206,-5.3206,-5.3206,-5.3206,-5.3206,-5.3206,-5.3206,-5.2858,-5.2454,-5.2307,-5.1867,-5.1169,-5.0931,-5.0683,-5.0089,-4.91,-4.8465,-4.8093,-4.7351,-4.6527,-4.5486,-4.4895,-4.457,-4.457,-4.457,-4.457,-4.457,-4.457,-4.457,-4.457,-4.457,-4.457,-4.457,-4.457,-4.457,-4.457,-4.4384,-4.4253,-4.4196,-4.4039,-4.3939,-4.3822,-4.3822,-4.3763,-4.3568,-4.3096,-4.2506,-4.1852,-4.1459,-4.0737,-3.9809,-3.9481,-3.9424,-3.9424,-3.9424,-3.9424,-3.9424,-3.9424,-3.9424,-3.9424,-3.9424,-3.9424,-3.9424,-3.9424,-3.9424,-3.9424,-3.9424,-3.9424,-3.9424,-3.9424,-3.9424,-3.9424,-3.9424,-3.9424,-3.9424,-3.9424,-3.9424,-3.9424,-3.9424,-3.9424,-3.9424,-3.9424,-3.9424,-3.9424,-3.9352,-3.9352,-3.9265,-3.9104,-3.8943,-3.9265,-3.9352,-3.9352,-3.9265,-3.8738,-3.8397,-3.8161,-3.7613,-3.6859,-3.7175,-3.7488,-3.7224,-3.6764,-3.6301,-3.5761,-3.5564,-3.5529,-3.5156,-3.465,-3.4696,-3.479,-3.4346,-3.4029,-3.4198,-5.3336,-5.3206,-5.3206,-5.3206,-5.3206,-5.3206,-5.3206,-5.3133,-5.2821,-5.2454,-5.1977,-5.161,-5.1041,-5.0343,-5.0149,-4.9789,-4.9258,-4.8271,-4.7586,-4.7073,-4.6062,-4.5336,-4.4923,-4.4703,-4.457,-4.457,-4.457,-4.457,-4.457,-4.457,-4.457,-4.457,-4.457,-4.457,-4.457,-4.457,-4.457,-4.457,-4.444,-4.431,-4.431,-4.4138,-4.4056,-4.3998,-4.3939,-4.3805,-4.3279,-4.2569,-4.1917,-4.1509,-4.1194,-4.0531,-3.9538,-3.9424,-3.9424,-3.9424,-3.9424,-3.9424,-3.9424,-3.9424,-3.9424,-3.9424,-3.9424,-3.9424,-3.9424,-3.9424,-3.9424,-3.9424,-3.9424,-3.9424,-3.9424,-3.9424,-3.9424,-3.9424,-3.9424,-3.9424,-3.9424,-3.9424,-3.9424,-3.9424,-3.9424,-3.9424,-3.9424,-3.9424,-3.9424,-3.9352,-3.8973,-3.8885,-3.8811,-3.8634,-3.8428,-3.8473,-3.8414,-3.8208,-3.7915,-3.7457,-3.6632,-3.6467,-3.6003,-3.5259,-3.5619,-3.5935,-3.5653,-3.5306,-3.5013,-3.4687,-3.4358,-3.3955,-3.354,-3.3207,-3.3111,-3.3213,-3.2941,-3.2766,-3.2832,-5.337,-5.3206,-5.3206,-5.3206,-5.3206,-5.3206,-5.3206,-5.3059,-5.2417,-5.1958,-5.1665,-5.1004,-5.0215,-4.9462,-4.9347,-4.8802,-4.7943,-4.7383,-4.6637,-4.5955,-4.5142,-4.4814,-4.5035,-4.472,-4.4626,-4.457,-4.457,-4.457,-4.457,-4.457,-4.457,-4.457,-4.457,-4.457,-4.457,-4.457,-4.457,-4.457,-4.444,-4.4367,-4.4367,-4.427,-4.4155,-4.4097,-4.3831,-4.3399,-4.274,-4.1981,-4.1459,-4.1393,-4.0805,-4.0216,-3.9553,-3.9424,-3.9424,-3.9424,-3.9424,-3.9424,-3.9424,-3.9424,-3.9424,-3.9424,-3.9424,-3.9424,-3.9424,-3.9424,-3.9424,-3.9424,-3.9424,-3.9424,-3.9424,-3.9424,-3.9424,-3.9424,-3.9424,-3.9424,-3.9424,-3.9424,-3.9424,-3.9424,-3.9424,-3.9424,-3.9352,-3.9352,-3.9265,-3.8885,-3.8486,-3.8084,-3.8008,-3.7753,-3.741,-3.7177,-3.6954,-3.6717,-3.6358,-3.5972,-3.4989,-3.4271,-3.3756,-3.3389,-3.395,-3.4176,-3.397,-3.3723,-3.3663,-3.3145,-3.2395,-3.2057,-3.2013,-3.207,-3.2185,-3.2459,-3.2588,-3.2391,-3.2355,-5.2684,-5.3206,-5.3206,-5.3206,-5.3206,-5.3206,-5.3206,-5.3133,-5.2325,-5.161,-5.1004,-5.0215,-4.9389,-4.8618,-4.8616,-4.8101,-4.7446,-4.6837,-4.5982,-4.4961,-4.4776,-4.4626,-4.4759,-4.4626,-4.4626,-4.457,-4.457,-4.457,-4.457,-4.457,-4.457,-4.457,-4.457,-4.457,-4.457,-4.457,-4.457,-4.457,-4.4553,-4.4497,-4.4497,-4.4457,-4.4384,-4.4121,-4.3486,-4.274,-4.2173,-4.1722,-4.126,-4.0805,-4.0547,-4.0076,-3.9553,-3.9424,-3.9424,-3.9424,-3.9424,-3.9424,-3.9424,-3.9424,-3.9424,-3.9424,-3.9424,-3.9424,-3.9424,-3.9424,-3.9424,-3.9424,-3.9424,-3.9424,-3.9424,-3.9424,-3.9424,-3.9424,-3.9352,-3.9352,-3.9352,-3.9424,-3.9424,-3.9424,-3.9352,-3.9352,-3.9352,-3.8723,-3.8501,-3.8337,-3.7814,-3.7266,-3.6993,-3.6782,-3.6269,-3.5745,-3.569,-3.5432,-3.4886,-3.4479,-3.3683,-3.297,-3.2354,-3.198,-3.2546,-3.2806,-3.2818,-3.2622,-3.234,-3.1819,-3.1365,-3.1261,-3.1483,-3.1338,-3.1334,-3.1616,-3.1823,-3.169,-3.1763,-5.295,-5.3188,-5.3206,-5.3206,-5.3206,-5.3206,-5.3206,-5.2968,-5.194,-5.1206,-5.06,-4.9554,-4.8728,-4.8324,-4.8267,-4.8053,-4.7548,-4.6746,-4.585,-4.5035,-4.4776,-4.457,-4.457,-4.457,-4.457,-4.457,-4.457,-4.457,-4.457,-4.457,-4.457,-4.457,-4.457,-4.457,-4.457,-4.457,-4.457,-4.457,-4.457,-4.457,-4.457,-4.457,-4.427,-4.3798,-4.2892,-4.2078,-4.1377,-4.0737,-4.0339,-4.0076,-4.0005,-3.9809,-3.9481,-3.9424,-3.9424,-3.9424,-3.9424,-3.9424,-3.9424,-3.9424,-3.9424,-3.9424,-3.9424,-3.9424,-3.9424,-3.9424,-3.9424,-3.9424,-3.9424,-3.9424,-3.9424,-3.9424,-3.9424,-3.9352,-3.9046,-3.8885,-3.887,-3.9104,-3.9424,-3.9265,-3.9031,-3.8885,-3.8575,-3.7951,-3.762,-3.741,-3.6388,-3.582,-3.5448,-3.521,-3.4624,-3.4251,-3.4302,-3.4072,-3.3455,-3.2912,-3.2302,-3.1902,-3.1609,-3.1405,-3.1589,-3.1766,-3.1845,-3.1726,-3.1646,-3.1492,-3.1166,-3.1061,-3.0986,-3.1048,-3.1123,-3.1061,-3.1061,-3.1347,-3.1334,-5.3373,-5.3206,-5.3206,-5.3206,-5.3206,-5.3206,-5.3115,-5.2766,-5.1444,-5.0765,-5.0343,-4.8967,-4.8398,-4.8324,-4.8324,-4.819,-4.7609,-4.6717,-4.5665,-4.5089,-4.472,-4.4626,-4.457,-4.457,-4.457,-4.457,-4.457,-4.457,-4.457,-4.457,-4.457,-4.457,-4.457,-4.457,-4.457,-4.457,-4.457,-4.457,-4.457,-4.457,-4.4514,-4.444,-4.3873,-4.2986,-4.2269,-4.1428,-4.0653,-4.0005,-3.9496,-3.9424,-3.9424,-3.9424,-3.9424,-3.9424,-3.9424,-3.9424,-3.9424,-3.9424,-3.9424,-3.9424,-3.9424,-3.9424,-3.9424,-3.9424,-3.9424,-3.9424,-3.9424,-3.9424,-3.9424,-3.9424,-3.9424,-3.9424,-3.9424,-3.9265,-3.8738,-3.8323,-3.8221,-3.8649,-3.8854,-3.8797,-3.8294,-3.7965,-3.7519,-3.7011,-3.6718,-3.6248,-3.5223,-3.4454,-3.4084,-3.3779,-3.3382,-3.3,-3.3103,-3.2991,-3.2408,-3.2235,-3.1514,-3.136,-3.1091,-3.1052,-3.0999,-3.1228,-3.1395,-3.1241,-3.1088,-3.1061,-3.1061,-3.0986,-3.0986,-3.0986,-3.0986,-3.0986,-3.0986,-3.0986,-3.0986,-5.2895,-5.3206,-5.3206,-5.3206,-5.3206,-5.3206,-5.2839,-5.2105,-5.1224,-5.0417,-4.9701,-4.8746,-4.8324,-4.8324,-4.8306,-4.7738,-4.6819,-4.6032,-4.5372,-4.4852,-4.4626,-4.4626,-4.457,-4.457,-4.4553,-4.457,-4.4519,-4.4485,-4.457,-4.457,-4.4519,-4.4553,-4.4502,-4.4502,-4.4468,-4.4553,-4.4502,-4.457,-4.457,-4.457,-4.4514,-4.4047,-4.3229,-4.2157,-4.1575,-4.094,-4.0301,-3.9696,-3.9424,-3.9424,-3.9424,-3.9424,-3.9424,-3.9424,-3.9424,-3.9424,-3.9424,-3.9424,-3.9424,-3.9424,-3.9424,-3.9424,-3.9424,-3.9424,-3.9424,-3.9424,-3.9424,-3.9424,-3.9424,-3.9424,-3.9424,-3.9205,-3.9307,-3.9235,-3.8781,-3.8326,-3.7579,-3.733,-3.7313,-3.7106,-3.69,-3.6886,-3.6284,-3.5739,-3.5269,-3.478,-3.3961,-3.3382,-3.3146,-3.2909,-3.2581,-3.228,-3.207,-3.1716,-3.1373,-3.1346,-3.114,-3.1153,-3.1026,-3.1026,-3.0986,-3.0986,-3.0986,-3.0986,-3.0986,-3.0986,-3.0986,-3.0986,-3.0986,-3.0986,-3.0986,-3.0986,-3.0986,-3.0986,-3.0986,-5.3442,-5.3462,-5.3272,-5.3206,-5.3206,-5.3206,-5.2747,-5.194,-5.1132,-5.0343,-4.9517,-4.8728,-4.8324,-4.8229,-4.8053,-4.7255,-4.6305,-4.59,-4.5337,-4.4814,-4.4682,-4.4626,-4.4609,-4.4553,-4.4282,-4.4079,-4.3978,-4.4198,-4.4536,-4.457,-4.4316,-4.4012,-4.3978,-4.3978,-4.3978,-4.3944,-4.4198,-4.4401,-4.4519,-4.4519,-4.4463,-4.3806,-4.2876,-4.2062,-4.1311,-4.0752,-4.0121,-3.9854,-3.9625,-3.9553,-3.9538,-3.9481,-3.9424,-3.9424,-3.9424,-3.9424,-3.9424,-3.9424,-3.9424,-3.9424,-3.9424,-3.9424,-3.9424,-3.9424,-3.9424,-3.9424,-3.9307,-3.9322,-3.9352,-3.9192,-3.8811,-3.8487,-3.8165,-3.7622,-3.7197,-3.6468,-3.5751,-3.5306,-3.5093,-3.5004,-3.5022,-3.4989,-3.4961,-3.4322,-3.371,-3.3171,-3.2646,-3.2385,-3.2254,-3.2071,-3.1888,-3.1731,-3.1535,-3.1378,-3.1065,-3.1026,-3.0986,-3.0986,-3.0986,-3.0986,-3.0986,-3.0986,-3.0986,-3.0986,-3.0986,-3.0986,-3.0986,-3.0986,-3.0986,-3.0986,-3.0986,-3.0986,-3.0986,-3.0986,-3.0986,-5.4052,-5.3663,-5.3336,-5.3206,-5.3188,-5.3023,-5.2491,-5.1701,-5.0875,-5.005,-4.9297,-4.8636,-4.8324,-4.819,-4.7756,-4.7035,-4.6098,-4.6017,-4.5442,-4.4923,-4.4793,-4.4737,-4.4609,-4.4333,-4.4028,-4.3606,-4.3234,-4.3521,-4.3809,-4.391,-4.3673,-4.3352,-4.3183,-4.32,-4.32,-4.32,-4.3656,-4.3893,-4.413,-4.4057,-4.3685,-4.3188,-4.2557,-4.1853,-4.1314,-4.0699,-4.0137,-3.9996,-3.9925,-3.9768,-3.9696,-3.9625,-3.9481,-3.9424,-3.9424,-3.9424,-3.9424,-3.9424,-3.9424,-3.9424,-3.9424,-3.9424,-3.9424,-3.9424,-3.9262,-3.9101,-3.8852,-3.8969,-3.8442,-3.8135,-3.7461,-3.7141,-3.6616,-3.6116,-3.5105,-3.4128,-3.397,-3.3598,-3.3198,-3.3111,-3.3185,-3.3302,-3.3356,-3.3279,-3.2749,-3.2341,-3.1821,-3.1782,-3.164,-3.1431,-3.1274,-3.1196,-3.1104,-3.1104,-3.1013,-3.1013,-3.0986,-3.0986,-3.0986,-3.0986,-3.0986,-3.0986,-3.0986,-3.0986,-3.0986,-3.0986,-3.0986,-3.0986,-3.0986,-3.0986,-3.0986,-3.0986,-3.0986,-3.0986,-3.0986,-5.4052,-5.3682,-5.3336,-5.3206,-5.3115,-5.2491,-5.1701,-5.0912,-5.0141,-4.926,-4.8581,-4.8379,-4.8306,-4.8132,-4.7756,-4.7186,-4.6595,-4.6017,-4.5494,-4.4886,-4.4831,-4.4737,-4.4524,-4.3826,-4.3606,-4.3183,-4.2675,-4.2472,-4.2625,-4.2642,-4.2591,-4.2455,-4.2439,-4.2439,-4.2439,-4.2439,-4.2455,-4.2591,-4.2642,-4.2133,-4.136,-4.1077,-4.0626,-4.0259,-4.0198,-4.027,-4.0017,-3.9878,-3.9783,-3.9758,-3.9677,-3.9651,-3.9625,-3.9496,-3.9424,-3.9424,-3.9424,-3.9424,-3.9409,-3.9334,-3.9305,-3.926,-3.9275,-3.9394,-3.8967,-3.8235,-3.7696,-3.7521,-3.6663,-3.5994,-3.5889,-3.556,-3.5402,-3.511,-3.4497,-3.3792,-3.3315,-3.2653,-3.218,-3.1869,-3.2084,-3.2064,-3.208,-3.1977,-3.1771,-3.1418,-3.1143,-3.1156,-3.1143,-3.1039,-3.0986,-3.0986,-3.0986,-3.0986,-3.0986,-3.0986,-3.0986,-3.0986,-3.0986,-3.0986,-3.0986,-3.0986,-3.0986,-3.0986,-3.0986,-3.0986,-3.0986,-3.0986,-3.0986,-3.0986,-3.0986,-3.0986,-3.0986,-3.0986,-3.096,-5.387,-5.37,-5.3336,-5.3206,-5.3096,-5.2325,-5.1518,-5.0729,-4.9939,-4.9114,-4.8434,-4.8306,-4.8153,-4.7897,-4.7421,-4.6908,-4.6411,-4.592,-4.5372,-4.4978,-4.4886,-4.4776,-4.4456,-4.3792,-4.3284,-4.2642,-4.2049,-4.1356,-4.1407,-4.1847,-4.2134,-4.1694,-4.1677,-4.1694,-4.1677,-4.1677,-4.1948,-4.2061,-4.1963,-4.1544,-4.0909,-4.0328,-3.9787,-3.9497,-3.9395,-3.9349,-3.9327,-3.9198,-3.9047,-3.8979,-3.8842,-3.865,-3.8566,-3.8342,-3.8257,-3.8272,-3.8257,-3.8616,-3.923,-3.902,-3.8886,-3.8721,-3.8556,-3.8227,-3.8057,-3.7313,-3.6664,-3.6736,-3.5839,-3.504,-3.4455,-3.4228,-3.3717,-3.3486,-3.341,-3.2942,-3.2313,-3.207,-3.1576,-3.1241,-3.0999,-3.1235,-3.1418,-3.1405,-3.1405,-3.1248,-3.1065,-3.1065,-3.1065,-3.1013,-3.0986,-3.0986,-3.0986,-3.0986,-3.0986,-3.0986,-3.0986,-3.0986,-3.0986,-3.0986,-3.0986,-3.0986,-3.0986,-3.0986,-3.0986,-3.0986,-3.0986,-3.0986,-3.0986,-3.0986,-3.0986,-3.0921,-3.0856,-3.0908,-3.0843,-5.3031,-5.2989,-5.3148,-5.3096,-5.2821,-5.205,-5.1224,-5.0435,-4.9572,-4.8893,-4.8453,-4.8306,-4.8075,-4.7715,-4.7335,-4.6936,-4.6346,-4.5786,-4.5353,-4.5086,-4.4906,-4.464,-4.4084,-4.3453,-4.2692,-4.2016,-4.1271,-4.073,-4.0679,-4.0984,-4.1322,-4.0933,-4.0916,-4.0916,-4.0916,-4.095,-4.1084,-4.1141,-4.0535,-4.0156,-3.9991,-3.9367,-3.9046,-3.8841,-3.8694,-3.8508,-3.8508,-3.8569,-3.8437,-3.8402,-3.8248,-3.8174,-3.7956,-3.7835,-3.7683,-3.7614,-3.7614,-3.7913,-3.8392,-3.8392,-3.8197,-3.7918,-3.7515,-3.7083,-3.6684,-3.6099,-3.5511,-3.528,-3.4343,-3.3649,-3.3246,-3.2772,-3.2426,-3.1951,-3.1553,-3.1192,-3.1075,-3.1215,-3.1329,-3.1114,-3.0986,-3.0986,-3.1091,-3.1052,-3.1026,-3.1013,-3.0986,-3.0986,-3.0986,-3.0986,-3.0986,-3.0986,-3.0986,-3.0986,-3.0986,-3.0986,-3.0986,-3.0986,-3.0986,-3.0986,-3.0986,-3.0986,-3.0986,-3.0986,-3.0986,-3.0986,-3.0986,-3.0986,-3.0973,-3.0934,-3.0869,-3.0751,-3.0699,-3.0725,-3.0529,-5.1286,-5.1118,-5.2564,-5.2729,-5.2013,-5.1224,-5.0435,-4.9719,-4.882,-4.8434,-4.8324,-4.8306,-4.8267,-4.8035,-4.7591,-4.716,-4.6771,-4.6165,-4.5546,-4.5069,-4.4835,-4.4347,-4.3677,-4.2895,-4.2083,-4.1339,-4.0696,-4.029,-4.0172,-4.0307,-4.0375,-4.0172,-4.0341,-4.0223,-4.024,-4.0375,-4.0085,-3.9794,-3.895,-3.8254,-3.8102,-3.784,-3.7745,-3.782,-3.8172,-3.8508,-3.8492,-3.8323,-3.8246,-3.8165,-3.8004,-3.7806,-3.7613,-3.7428,-3.7263,-3.7128,-3.7075,-3.7255,-3.7252,-3.7332,-3.7425,-3.7228,-3.6663,-3.5882,-3.5368,-3.413,-3.3477,-3.3468,-3.2779,-3.1929,-3.1536,-3.1153,-3.1333,-3.1307,-3.1104,-3.1065,-3.0986,-3.0986,-3.1088,-3.0999,-3.0986,-3.0986,-3.0986,-3.0986,-3.0986,-3.0986,-3.0986,-3.0986,-3.0986,-3.0986,-3.0986,-3.0986,-3.0986,-3.0986,-3.0986,-3.0986,-3.0986,-3.0986,-3.0986,-3.0986,-3.0986,-3.0986,-3.0986,-3.0986,-3.0986,-3.0986,-3.0986,-3.0986,-3.0947,-3.0856,-3.0725,-3.049,-3.0189,-3.0019,-2.9784,-5.0925,-5.0875,-5.1481,-5.1555,-5.1206,-5.0398,-4.9866,-4.9481,-4.8691,-4.8324,-4.8324,-4.8306,-4.8132,-4.7816,-4.7378,-4.689,-4.6411,-4.5751,-4.5319,-4.5086,-4.4801,-4.4245,-4.3457,-4.2608,-4.1914,-4.1153,-4.046,-4.0087,-4.0087,-4.0087,-4.0087,-4.0087,-4.0087,-4.0087,-4.0087,-4.002,-3.9644,-3.9098,-3.8367,-3.7796,-3.7345,-3.7017,-3.6876,-3.6923,-3.703,-3.7261,-3.7246,-3.7261,-3.7261,-3.7244,-3.7131,-3.7113,-3.7014,-3.6804,-3.6592,-3.6379,-3.6394,-3.6097,-3.5736,-3.5815,-3.5751,-3.4889,-3.4496,-3.4271,-3.3926,-3.3001,-3.2613,-3.2212,-3.1655,-3.1075,-3.0999,-3.0999,-3.1101,-3.0999,-3.0986,-3.0986,-3.0986,-3.0986,-3.0986,-3.0986,-3.0986,-3.0986,-3.0986,-3.0986,-3.0986,-3.0986,-3.0986,-3.0986,-3.0986,-3.0986,-3.0986,-3.0986,-3.0986,-3.0986,-3.0986,-3.0986,-3.0986,-3.0986,-3.0986,-3.0986,-3.0986,-3.0986,-3.0986,-3.0986,-3.0986,-3.0986,-3.0986,-3.0986,-3.0947,-3.0895,-3.0529,-3.0085,-2.9758,-2.9379,-2.9078,-5.0227,-5.005,-5.005,-5.0215,-5.0343,-4.9829,-4.9426,-4.9114,-4.8581,-4.8324,-4.8324,-4.8172,-4.7955,-4.7548,-4.7115,-4.6678,-4.6217,-4.5717,-4.5372,-4.4984,-4.4579,-4.3956,-4.3155,-4.2269,-4.1491,-4.0899,-4.046,-4.0087,-4.0087,-4.0087,-4.0087,-4.0087,-4.0087,-4.0087,-4.002,-3.9696,-3.9295,-3.8701,-3.8084,-3.7621,-3.7074,-3.6739,-3.6538,-3.6538,-3.6615,-3.663,-3.6661,-3.6692,-3.6645,-3.663,-3.6537,-3.6335,-3.6178,-3.5958,-3.5638,-3.5415,-3.5139,-3.4714,-3.4375,-3.4177,-3.4141,-3.3297,-3.3057,-3.2888,-3.2448,-3.2101,-3.1757,-3.173,-3.1272,-3.0986,-3.0986,-3.0986,-3.0986,-3.0986,-3.0986,-3.0986,-3.0986,-3.0986,-3.0986,-3.0986,-3.0986,-3.0986,-3.0986,-3.0986,-3.0986,-3.0986,-3.0986,-3.0986,-3.0986,-3.0986,-3.0986,-3.0986,-3.0986,-3.0986,-3.0986,-3.0986,-3.0986,-3.0986,-3.0986,-3.0986,-3.0986,-3.096,-3.096,-3.0986,-3.0986,-3.0986,-3.0986,-3.0973,-3.0973,-3.0973,-3.0398,-2.9706,-2.9104,-2.8712,-2.8395,-4.8996,-4.8381,-4.8434,-4.8893,-4.9572,-4.9572,-4.9114,-4.8508,-4.8361,-4.8324,-4.8267,-4.7915,-4.7674,-4.7506,-4.7115,-4.6631,-4.6217,-4.5903,-4.5546,-4.5074,-4.4309,-4.3418,-4.2547,-4.1799,-4.112,-4.0324,-4.0087,-4.0087,-4.0087,-3.9969,-4.002,-3.9969,-3.985,-3.9901,-3.9969,-3.8957,-3.8124,-3.746,-3.7013,-3.6831,-3.6677,-3.6554,-3.6492,-3.6492,-3.6492,-3.6492,-3.6492,-3.6492,-3.6492,-3.6492,-3.6492,-3.6352,-3.6211,-3.5623,-3.5234,-3.4876,-3.4124,-3.363,-3.3311,-3.3255,-3.2832,-3.2259,-3.2101,-3.1955,-3.1334,-3.1123,-3.1185,-3.1259,-3.1048,-3.0986,-3.0986,-3.0986,-3.0986,-3.0986,-3.0986,-3.0986,-3.0986,-3.0986,-3.0986,-3.0986,-3.0986,-3.0986,-3.0986,-3.0986,-3.0986,-3.0986,-3.0986,-3.0986,-3.0986,-3.0986,-3.0986,-3.0986,-3.0986,-3.0986,-3.0986,-3.0986,-3.0986,-3.0986,-3.096,-3.0921,-3.0856,-3.0764,-3.0817,-3.0895,-3.0843,-3.0712,-3.083,-3.096,-3.0973,-3.0807,-2.998,-2.9177,-2.8608,-2.8069,-2.7845,-4.8711,-4.8306,-4.8324,-4.8471,-4.8728,-4.8746,-4.8563,-4.8343,-4.8324,-4.8324,-4.8267,-4.8093,-4.7875,-4.7567,-4.7071,-4.6584,-4.6186,-4.558,-4.5283,-4.511,-4.4175,-4.3352,-4.2499,-4.1596,-4.0883,-4.0324,-4.0087,-4.0087,-4.0087,-3.9867,-3.9575,-3.947,-3.9348,-3.9135,-3.9312,-3.892,-3.8463,-3.7594,-3.7178,-3.6937,-3.6554,-3.6492,-3.6492,-3.6492,-3.6492,-3.6492,-3.6492,-3.6492,-3.6492,-3.6492,-3.6492,-3.6352,-3.6148,-3.5623,-3.5139,-3.481,-3.4274,-3.3589,-3.2974,-3.2503,-3.1909,-3.1556,-3.1408,-3.132,-3.1061,-3.0986,-3.0986,-3.0986,-3.0986,-3.0986,-3.0986,-3.0986,-3.0986,-3.0986,-3.0986,-3.0986,-3.0986,-3.0986,-3.0986,-3.0986,-3.0986,-3.0986,-3.0986,-3.0986,-3.0986,-3.0986,-3.0986,-3.0986,-3.0986,-3.0986,-3.0986,-3.0986,-3.0986,-3.0986,-3.0986,-3.0986,-3.0986,-3.0986,-3.0895,-3.079,-3.0699,-3.0568,-3.0255,-3.0137,-3.0281,-3.0424,-3.0451,-3.0542,-3.0807,-3.0537,-2.966,-2.8963,-2.8547,-2.7945,-2.7382,-4.8711,-4.8306,-4.8324,-4.8324,-4.8324,-4.8324,-4.8324,-4.8324,-4.8324,-4.8229,-4.8035,-4.7875,-4.7506,-4.7053,-4.6613,-4.6249,-4.5905,-4.5511,-4.4973,-4.4818,-4.3922,-4.2996,-4.2142,-4.141,-4.0646,-4.0206,-4.0087,-4.0087,-4.0087,-3.9696,-3.947,-3.9189,-3.8794,-3.8645,-3.8645,-3.8311,-3.8026,-3.7254,-3.6892,-3.6831,-3.6616,-3.6492,-3.6492,-3.6492,-3.6492,-3.6492,-3.6492,-3.6492,-3.6492,-3.6429,-3.6289,-3.6163,-3.5879,-3.527,-3.4647,-3.4259,-3.3659,-3.2903,-3.23,-3.1936,-3.1495,-3.1272,-3.1136,-3.1061,-3.1061,-3.0986,-3.0986,-3.0986,-3.0986,-3.0986,-3.0986,-3.0986,-3.0986,-3.0986,-3.0986,-3.0986,-3.0986,-3.0986,-3.0986,-3.0986,-3.0986,-3.0986,-3.0911,-3.0986,-3.0986,-3.0986,-3.0986,-3.0911,-3.0898,-3.0986,-3.0986,-3.0986,-3.0986,-3.0986,-3.0986,-3.0986,-3.0986,-3.0986,-3.0856,-3.0686,-3.0451,-3.0281,-2.9823,-2.9444,-2.9666,-2.9849,-2.9915,-3.0059,-3.0181,-2.9926,-2.9204,-2.8737,-2.8433,-2.7859,-2.713,-4.8881,-4.8344,-4.8324,-4.8324,-4.8324,-4.8324,-4.8324,-4.8324,-4.8324,-4.8035,-4.7591,-4.7248,-4.6936,-4.6297,-4.5752,-4.5615,-4.5477,-4.539,-4.4871,-4.4148,-4.3306,-4.2433,-4.1563,-4.0781,-4.0358,-4.0189,-4.0087,-4.0087,-4.007,-3.9816,-3.954,-3.9135,-3.8794,-3.8367,-3.7854,-3.7519,-3.7254,-3.6846,-3.6662,-3.66,-3.6492,-3.6492,-3.6492,-3.6492,-3.6492,-3.6492,-3.6492,-3.6492,-3.6429,-3.6211,-3.5879,-3.5529,-3.4927,-3.3973,-3.3353,-3.2747,-3.2214,-3.195,-3.1817,-3.1582,-3.1421,-3.1272,-3.1272,-3.1198,-3.1061,-3.0986,-3.0986,-3.0986,-3.0986,-3.0986,-3.0986,-3.0986,-3.0986,-3.0986,-3.0986,-3.0986,-3.0986,-3.0986,-3.0986,-3.0986,-3.0986,-3.0911,-3.0748,-3.0748,-3.0508,-3.0177,-3.0101,-3.0177,-3.0266,-3.0898,-3.0986,-3.0986,-3.0986,-3.0986,-3.0986,-3.0911,-3.0986,-3.0986,-3.0764,-3.0581,-3.032,-2.979,-2.9301,-2.9,-2.9144,-2.9314,-2.9523,-2.9523,-2.9386,-2.9041,-2.866,-2.8492,-2.8202,-2.7636,-2.7066,-4.8676,-4.8306,-4.8324,-4.8324,-4.8324,-4.8324,-4.8324,-4.8324,-4.8324,-4.8035,-4.7609,-4.7464,-4.7026,-4.6678,-4.6235,-4.5988,-4.5577,-4.5078,-4.4561,-4.3735,-4.2723,-4.1971,-4.129,-4.0645,-4.0273,-4.0138,-4.0087,-4.007,-3.9969,-3.9747,-3.9189,-3.8613,-3.8254,-3.7754,-3.7358,-3.6952,-3.6723,-3.6554,-3.6492,-3.6492,-3.6492,-3.6492,-3.6492,-3.6492,-3.6492,-3.6492,-3.6492,-3.6492,-3.6352,-3.5737,-3.5529,-3.5255,-3.4514,-3.3699,-3.3017,-3.2431,-3.2169,-3.2036,-3.1817,-3.1743,-3.1582,-3.1421,-3.1347,-3.1198,-3.1061,-3.0986,-3.0986,-3.0986,-3.0986,-3.0986,-3.0986,-3.0986,-3.0898,-3.0823,-3.0748,-3.0659,-3.0659,-3.0508,-3.0508,-3.0508,-3.0583,-3.0343,-3.019,-3.0024,-2.9781,-2.9381,-2.9225,-2.9303,-2.9549,-3.0177,-3.0495,-3.0508,-3.0583,-3.0419,-3.0748,-3.0748,-3.0911,-3.0947,-3.0514,-2.999,-2.9481,-2.9003,-2.8656,-2.8421,-2.8334,-2.8742,-2.9287,-2.9086,-2.8755,-2.8634,-2.8305,-2.8222,-2.7978,-2.7357,-2.693,-4.8605,-4.8306,-4.8324,-4.8324,-4.8324,-4.8324,-4.8324,-4.8324,-4.8324,-4.7955,-4.7378,-4.7291,-4.6936,-4.6249,-4.592,-4.568,-4.5246,-4.4663,-4.3958,-4.2859,-4.2174,-4.151,-4.0899,-4.051,-4.0239,-4.0121,-4.0087,-4.0087,-3.9901,-3.947,-3.8865,-3.7953,-3.7535,-3.7298,-3.6997,-3.6723,-3.6554,-3.6492,-3.6492,-3.6492,-3.6492,-3.6492,-3.6492,-3.6461,-3.6461,-3.643,-3.643,-3.643,-3.6039,-3.5385,-3.5255,-3.4581,-3.3905,-3.3157,-3.2761,-3.2241,-3.2169,-3.2109,-3.2036,-3.1904,-3.173,-3.1556,-3.1381,-3.1286,-3.1136,-3.1061,-3.1061,-3.0986,-3.0986,-3.0986,-3.0986,-3.0986,-3.0748,-3.0508,-3.0419,-3.0254,-3.0101,-2.9935,-2.9858,-2.9858,-2.9781,-2.9537,-2.9381,-2.9225,-2.9147,-2.8834,-2.8743,-2.8755,-2.8912,-2.9225,-2.9459,-2.9459,-2.9614,-2.9704,-3.0024,-3.019,-3.0024,-2.9845,-2.9514,-2.905,-2.8543,-2.8122,-2.7675,-2.7494,-2.74,-2.7829,-2.833,-2.8321,-2.8097,-2.7978,-2.778,-2.7621,-2.7429,-2.713,-2.6807,-4.8586,-4.8324,-4.8324,-4.8324,-4.8324,-4.8324,-4.8324,-4.8324,-4.8229,-4.7733,-4.7044,-4.6908,-4.6394,-4.5717,-4.5407,-4.4975,-4.456,-4.4026,-4.3149,-4.183,-4.1626,-4.11,-4.0543,-4.0188,-4.0171,-4.0121,-4.0087,-4.0087,-3.985,-3.9418,-3.8645,-3.7535,-3.7417,-3.7238,-3.6892,-3.66,-3.6492,-3.6476,-3.6368,-3.6307,-3.6415,-3.6445,-3.6415,-3.6338,-3.6276,-3.6215,-3.6168,-3.609,-3.5885,-3.515,-3.4478,-3.3776,-3.3157,-3.2704,-3.2314,-3.216,-3.2046,-3.1906,-3.1753,-3.16,-3.1527,-3.1435,-3.1523,-3.1103,-3.075,-3.0598,-3.0475,-3.0237,-3.0123,-2.9884,-2.9796,-3.0012,-2.9858,-2.9704,-2.9537,-2.9381,-2.9213,-2.9135,-2.9147,-2.9147,-2.9069,-2.8821,-2.8438,-2.8279,-2.8039,-2.8119,-2.7959,-2.7879,-2.8039,-2.8199,-2.8505,-2.8573,-2.89,-2.8978,-2.8991,-2.9069,-2.8834,-2.8639,-2.8488,-2.8305,-2.7989,-2.7434,-2.6724,-2.6658,-2.6589,-2.6746,-2.7079,-2.7143,-2.722,-2.7319,-2.7143,-2.699,-2.6807,-2.6683,-2.6683,-4.8382,-4.8324,-4.8324,-4.8324,-4.8324,-4.8324,-4.8324,-4.8267,-4.7915,-4.7446,-4.6981,-4.6817,-4.631,-4.539,-4.482,-4.4423,-4.4061,-4.3199,-4.2391,-4.1707,-4.1231,-4.0827,-4.0389,-4.0337,-4.0271,-4.0171,-4.0138,-3.9867,-3.9365,-3.9082,-3.881,-3.8026,-3.7637,-3.7134,-3.6997,-3.6723,-3.6492,-3.6476,-3.6061,-3.6091,-3.6322,-3.5953,-3.5722,-3.5568,-3.543,-3.4896,-3.4653,-3.4332,-3.3819,-3.3125,-3.2972,-3.2639,-3.2403,-3.23,-3.2241,-3.2114,-3.1857,-3.1649,-3.1375,-3.1101,-3.0841,-3.0455,-3.0201,-3.0077,-2.9856,-2.9818,-2.9602,-2.929,-2.9101,-2.8874,-2.8731,-2.8913,-2.9057,-2.89,-2.8664,-2.8505,-2.8347,-2.8267,-2.8279,-2.8279,-2.8279,-2.8039,-2.7568,-2.7336,-2.7092,-2.6846,-2.6528,-2.6456,-2.661,-2.6857,-2.7557,-2.7787,-2.8267,-2.8426,-2.8187,-2.8039,-2.7879,-2.7841,-2.7882,-2.7615,-2.7311,-2.6514,-2.5796,-2.5901,-2.5946,-2.5926,-2.5975,-2.6025,-2.6188,-2.644,-2.6521,-2.6452,-2.6521,-2.6465,-2.6533,-4.8439,-4.8306,-4.8324,-4.8324,-4.8324,-4.8324,-4.8324,-4.821,-4.7816,-4.7119,-4.648,-4.6418,-4.5993,-4.5027,-4.444,-4.3699,-4.332,-4.2457,-4.1773,-4.1278,-4.0957,-4.0605,-4.0436,-4.0387,-4.0221,-4.0121,-3.9799,-3.9365,-3.8645,-3.8311,-3.8026,-3.7621,-3.7118,-3.7013,-3.6937,-3.6662,-3.6492,-3.6461,-3.5799,-3.5722,-3.5968,-3.5445,-3.506,-3.486,-3.4632,-3.4044,-3.3759,-3.3469,-3.2995,-3.2543,-3.2416,-3.2345,-3.2259,-3.2241,-3.2169,-3.2114,-3.1911,-3.15,-3.1118,-3.0683,-3.0167,-2.988,-2.9337,-2.9256,-2.8774,-2.8594,-2.815,-2.7978,-2.8258,-2.8102,-2.8248,-2.8402,-2.8263,-2.8039,-2.7879,-2.7637,-2.7244,-2.701,-2.701,-2.701,-2.701,-2.6928,-2.6622,-2.6622,-2.6373,-2.6373,-2.5979,-2.5979,-2.5895,-2.5895,-2.6528,-2.6999,-2.7476,-2.7406,-2.701,-2.694,-2.701,-2.7024,-2.7185,-2.6748,-2.6291,-2.5509,-2.4929,-2.5071,-2.5093,-2.4933,-2.4969,-2.5052,-2.5429,-2.5804,-2.5886,-2.5886,-2.6025,-2.6094,-2.5943,-4.8439,-4.8288,-4.8177,-4.8141,-4.8122,-4.8012,-4.7939,-4.7844,-4.7389,-4.6536,-4.5615,-4.5646,-4.5087,-4.4473,-4.394,-4.3026,-4.2302,-4.1854,-4.1274,-4.0968,-4.0748,-4.0551,-4.0453,-4.0337,-4.0171,-3.9782,-3.9348,-3.8518,-3.7621,-3.7578,-3.7358,-3.6662,-3.6492,-3.6492,-3.6492,-3.6492,-3.6492,-3.6261,-3.5799,-3.5353,-3.5076,-3.4706,-3.4386,-3.4263,-3.4112,-3.3727,-3.3246,-3.2815,-3.2434,-3.2458,-3.2079,-3.2222,-3.22,-3.2169,-3.2169,-3.2114,-3.1924,-3.1558,-3.1121,-3.0686,-3.0183,-2.972,-2.8969,-2.8298,-2.7767,-2.7285,-2.6858,-2.6841,-2.7184,-2.7311,-2.7454,-2.7581,-2.7428,-2.7232,-2.6987,-2.6835,-2.6351,-2.6052,-2.6063,-2.6063,-2.6063,-2.5979,-2.5979,-2.5979,-2.5895,-2.5895,-2.5895,-2.5895,-2.5895,-2.5895,-2.6218,-2.6373,-2.6528,-2.6302,-2.6063,-2.6229,-2.6456,-2.6351,-2.6453,-2.5886,-2.5333,-2.4914,-2.4612,-2.4464,-2.4367,-2.3988,-2.4059,-2.4204,-2.4647,-2.5016,-2.5075,-2.5146,-2.5217,-2.5217,-2.5134,-4.7794,-4.8251,-4.7627,-4.7352,-4.726,-4.6673,-4.6361,-4.6231,-4.5508,-4.4925,-4.46,-4.3978,-4.3558,-4.3387,-4.2647,-4.2061,-4.1905,-4.144,-4.1147,-4.0905,-4.0745,-4.06,-4.0436,-4.0221,-3.9986,-3.9437,-3.8739,-3.8051,-3.7282,-3.7238,-3.7074,-3.6538,-3.6492,-3.6492,-3.6492,-3.6492,-3.6461,-3.6168,-3.5414,-3.4768,-3.4506,-3.4005,-3.3343,-3.2953,-3.2372,-3.1396,-3.0661,-3.0292,-3.0443,-3.0883,-3.1646,-3.2051,-3.2169,-3.2169,-3.2169,-3.2101,-3.1911,-3.1422,-3.1029,-3.0348,-2.9697,-2.8662,-2.7859,-2.7259,-2.6689,-2.608,-2.571,-2.553,-2.5739,-2.5769,-2.5938,-2.6411,-2.6362,-2.6307,-2.613,-2.613,-2.5964,-2.5935,-2.5979,-2.5979,-2.5979,-2.5979,-2.5979,-2.5895,-2.5895,-2.5895,-2.5895,-2.5895,-2.5895,-2.5895,-2.5895,-2.5895,-2.5895,-2.5895,-2.5979,-2.5979,-2.6063,-2.5979,-2.5884,-2.5659,-2.5343,-2.4708,-2.4432,-2.4204,-2.3525,-2.295,-2.3097,-2.335,-2.3779,-2.4143,-2.4276,-2.4337,-2.442,-2.442,-2.4409]},{"header":{"parameterUnit":"m.s-1","parameterCategory":1,"la1":31.0,"la2":29.5877,"lo1":-88.7671,"lo2":-86.6584,"dy":0.0162,"dx":0.0185,"nx":115,"ny":88,"refTime":"2023-07-30T06:00:00:Z","depth":0,"parameterNumber":3,"parameterNumberName":"V-component_of_WINDS"},"data":[0.0,0.0,0.0,0.0,0.0,0.0,0.0,0.0,0.0,0.0,0.0,0.0,0.0,0.0,0.0,0.0,0.0,0.0,0.0,0.0,0.0,0.0,0.0,0.0,0.0,0.0,0.0,0.0,0.0,0.0,0.0,0.0,0.0,0.0,0.0,0.0,0.0,0.0,0.0,0.0,0.0,0.0,0.0,0.0,0.0,0.0,0.0,0.0,0.0,0.0,0.0,0.0,0.0,0.0,0.0,0.0,0.0,0.0,0.0,0.0,0.0,0.0,0.0,0.0,0.0,0.0,0.0,0.0,0.0,0.0,0.0,0.0,0.0,0.0,0.0,0.0,0.0,0.0,0.0,0.0,0.0,0.0,0.0,0.0,0.0,0.0,0.0,0.0,0.0,0.0,0.0,0.0,0.0,0.0,0.0,0.0,0.0,0.0,0.0,0.0,0.0,0.0,0.0,0.0,0.0,0.0,0.0,0.0,0.0,0.0,0.0,0.0,0.0,0.0,0.0,0.0,0.0,0.0,0.0,0.0,0.0,0.0,0.0,0.0,0.0,0.0,0.0,0.0,0.0,0.0,0.0,0.0,0.0,0.0,0.0,0.0,0.0,0.0,0.0,0.0,0.0,0.0,0.0,0.0,0.0,0.0,0.0,0.0,0.0,0.0,0.0,0.0,0.0,0.0,0.0,0.0,0.0,0.0,0.0,0.0,0.0,0.0,0.0,0.0,0.0,0.0,0.0,0.0,0.0,0.0,0.0,0.0,0.0,0.0,0.0,0.0,0.0,0.0,0.0,0.0,0.0,0.0,0.0,0.0,0.0,0.0,0.0,0.0,0.0,0.0,0.0,0.0,0.0,0.0,0.0,0.0,0.0,0.0,0.0,0.0,0.0,0.0,0.0,0.0,0.0,0.0,0.0,0.0,0.0,0.0,0.0,0.0,0.0,0.0,0.0,0.0,0.0,0.0,0.0,0.0,0.0,0.0,0.0,0.0,0.0,0.0,0.0,0.0,0.0,0.0,0.0,0.0,0.0,0.0,0.0,0.0,0.0,0.0,0.0,0.0,0.0,0.0,0.0,0.0,0.0,0.0,0.0,0.0,0.0,0.0,0.0,0.0,0.0,0.0,0.0,0.0,0.0,0.0,0.0,0.0,0.0,0.0,0.0,0.0,0.0,0.0,0.0,0.0,0.0,0.0,0.0,0.0,0.0,0.0,0.0,0.0,0.0,0.0,0.0,0.0,0.0,0.0,0.0,0.0,0.0,0.0,0.0,0.0,0.0,0.0,0.0,0.0,0.0,0.0,0.0,0.0,0.0,0.0,0.0,0.0,0.0,0.0,0.0,0.0,0.0,0.0,0.0,0.0,0.0,0.0,0.0,0.0,0.0,0.0,0.0,0.0,0.0,0.0,0.0,0.0,0.0,0.0,0.0,0.0,0.0,0.0,0.0,0.0,0.0,0.0,0.0,0.0,0.0,0.0,0.0,0.0,0.0,0.0,0.0,0.0,0.0,0.0,0.0,0.0,0.0,0.0,0.0,0.0,0.0,0.0,0.0,0.0,0.0,0.0,0.0,0.0,0.0,0.0,0.0,0.0,0.0,0.0,0.0,0.0,0.0,0.0,0.0,0.0,0.0,0.0,0.0,0.0,0.0,0.0,0.0,0.0,0.0,0.0,0.0,0.0,0.0,0.0,0.0,0.0,0.0,0.0,0.0,0.0,0.0,0.0,0.0,0.0,0.0,0.0,0.0,0.0,0.0,0.0,0.0,0.0,0.0,0.0,0.0,0.0,0.0,0.0,0.0,0.0,0.0,0.0,0.0,0.0,0.0,0.0,0.0,0.0,0.0,0.0,0.0,0.0,0.0,0.0,0.0,0.0,0.0,0.0,0.0,0.0,0.0,0.0,0.0,0.0,0.0,0.0,0.0,0.0,0.0,0.0,0.0,0.0,0.0,0.0,0.0,0.0,0.0,0.0,0.0,0.0,0.0,0.0,0.0,0.0,0.0,0.0,0.0,0.0,0.0,0.0,0.0,0.0,0.0,0.0,0.0,0.0,0.0,0.0,0.0,0.0,0.0,0.0,0.0,0.0,0.0,0.0,0.0,0.0,0.0,0.0,0.0,0.0,0.0,0.0,0.0,0.0,0.0,0.0,0.0,0.0,0.0,0.0,0.0,0.0,0.0,0.0,0.0,0.0,0.0,0.0,0.0,0.0,0.0,0.0,0.0,0.0,0.0,0.0,0.0,0.0,0.0,0.0,0.0,0.0,0.0,0.0,0.0,0.0,0.0,0.0,0.0,0.0,0.0,0.0,0.0,0.0,0.0,0.0,0.0,0.0,0.0,0.0,0.0,0.0,0.0,0.0,0.0,0.0,0.0,0.0,0.0,0.0,0.0,0.0,0.0,0.0,0.0,0.0,0.0,0.0,0.0,0.0,0.0,0.0,0.0,0.0,0.0,0.0,0.0,0.0,0.0,0.0,0.0,0.0,0.0,0.0,0.0,0.0,0.0,0.0,0.0,0.0,0.0,0.0,0.0,0.0,0.0,0.0,0.0,0.0,0.0,0.0,0.0,0.0,0.0,0.0,0.0,0.0,0.0,0.0,0.0,0.0,0.0,0.0,0.0,0.0,0.0,0.0,0.0,0.0,0.0,0.0,0.0,0.0,0.0,0.0,0.0,0.0,0.0,0.0,0.0,0.0,0.0,0.0,0.0,0.0,0.0,0.0,0.0,0.0,0.0,0.0,0.0,0.0,0.0,0.0,0.0,0.0,0.0,0.0,0.0,0.0,0.0,0.0,0.0,0.0,0.0,0.0,0.0,0.0,0.0,0.0,0.0,0.0,0.0,0.0,0.0,0.0,0.0,0.0,0.0,0.0,0.0,0.0,0.0,0.0,0.0,0.0,0.0,0.0,0.0,0.0,0.0,0.0,0.0,0.0,0.0,0.0,0.0,0.0,0.0,0.0,0.0,0.0,0.0,0.0,0.0,0.0,0.0,0.0,0.0,0.0,0.0,0.0,0.0,0.0,0.0,0.0,0.0,0.0,0.0,0.0,0.0,0.0,0.0,0.0,0.0,0.0,0.0,0.0,0.0,0.0,0.0,0.0,0.0,0.0,0.0,0.0,0.0,0.0,0.0,0.0,0.0,0.0,0.0,0.0,0.0,0.0,0.0,0.0,0.0,0.0,0.0,0.0,0.0,0.0,0.0,0.0,0.0,0.0,0.0,0.0,0.0,0.0,0.0,0.0,0.0,0.0,0.0,0.0,0.0,0.0,0.0,0.0,0.0,0.0,0.0,0.0,0.0,0.0,0.0,0.0,0.0,0.0,0.0,0.0,0.0,0.0,0.0,0.0,0.0,0.0,0.0,0.0,0.0,0.0,0.0,0.0,0.0,0.0,0.0,0.0,0.0,0.0,0.0,0.0,0.0,0.0,0.0,0.0,0.0,0.0,0.0,0.0,0.0,0.0,0.0,0.0,0.0,0.0,0.0,0.0,0.0,0.0,0.0,0.0,0.0,0.0,0.0,0.0,0.0,0.0,0.0,0.0,0.0,0.0,0.0,0.0,0.0,0.0,0.0,0.0,0.0,0.0,0.0,0.0,0.0,0.0,0.0,0.0,0.0,0.0,0.0,0.0,0.0,0.0,0.0,0.0,0.0,0.0,0.0,0.0,0.0,0.0,0.0,0.0,0.0,0.0,0.0,0.0,0.0,0.0,0.0,0.0,0.0,0.0,0.0,0.0,0.0,0.0,0.0,0.0,0.0,0.0,0.0,0.0,0.0,0.0,0.0,0.0,0.0,0.0,0.0,0.0,0.0,0.0,0.0,0.0,0.0,0.0,0.0,0.0,0.0,0.0,0.0,0.0,0.0,0.0,0.0,0.0,0.0,0.0,0.0,0.0,0.0,0.0,0.0,0.0,0.0,0.0,0.0,0.0,0.0,0.0,0.0,0.0,0.0,0.0,0.0,0.0,0.0,0.0,0.0,0.0,0.0,0.0,0.0,0.0,0.0,0.0,0.0,0.0,0.0,0.0,0.0,0.0,0.0,0.0,0.0,0.0,0.0,0.0,0.0,0.0,0.0,0.0,0.0,0.0,0.0,0.0,0.0,0.0,0.0,0.0,0.0,0.0,0.0,0.0,0.0,0.0,0.0,0.0,0.0,0.0,0.0,0.0,0.0,0.0,0.0,0.0,0.0,0.0,0.0,0.0,0.0,0.0,0.0,0.0,0.0,0.0,0.0,0.0,0.0,0.0,0.0,0.0,0.0,0.0,-0.4868,0.0,0.0,0.0,0.0,0.0,0.0,0.0,0.0,0.0,0.0,0.0,0.0,0.0,0.0,0.0,0.0,0.0,0.0,0.0,0.0,0.0,0.0,0.0,0.0,0.0,0.0,0.0,0.0,0.0,0.0,0.0,0.0,0.0,0.0,0.0,0.0,0.0,0.0,0.0,0.0,0.0,0.0,0.0,0.0,0.0,0.0,0.0,0.0,0.0,0.0,0.0,0.0,0.0,0.0,0.0,0.0,0.0,0.0,0.0,0.0,0.0,0.0,0.0,0.0,0.0,0.0,0.0,0.0,0.0,0.0,0.0,0.0,0.0,0.0,0.0,0.0,0.0,0.0,0.0,0.0,0.0,0.0,0.0,0.0,0.0,0.0,0.0,0.0,0.0,0.0,0.0,0.0,0.0,0.0,0.0,0.0,0.0,0.0,0.0,0.0,0.0,0.0,0.0,0.0,0.0,0.0,0.0,0.0,0.0,0.0,-0.3703,-0.4053,-0.4667,-0.5028,-0.5368,0.0,0.0,0.0,0.0,0.0,0.0,0.0,0.0,0.0,0.0,0.0,0.0,0.0,0.0,0.0,0.0,0.0,0.0,0.0,0.0,0.0,0.0,0.0,0.0,0.0,0.0,0.0,0.0,0.0,0.0,0.0,0.0,0.0,0.0,0.0,0.0,0.0,0.0,0.0,0.0,0.0,0.0,0.0,0.0,0.0,0.0,0.0,0.0,0.0,0.0,0.0,0.0,0.0,0.0,0.0,0.0,0.0,0.0,0.0,0.0,0.0,0.0,0.0,0.0,0.0,0.0,0.0,0.0,0.0,0.0,0.0,0.0,0.0,0.0,0.0,0.0,0.0,0.0,0.0,0.0,0.0,0.0,0.0,0.0,0.0,0.0,0.0,0.0,0.0,0.0,0.0,0.0,0.0,0.0,0.0,0.0,0.0,0.0,0.0,0.0,0.0,0.0,0.0,0.0,0.0,0.0,0.0,0.0,0.0,0.0,0.0,0.0,-0.4906,-0.536,-0.582,0.0,0.0,0.0,0.0,0.0,0.0,0.0,0.0,0.0,0.0,0.0,0.0,0.0,0.0,0.0,0.0,0.0,0.0,0.0,0.0,0.0,0.0,0.0,0.0,0.0,0.0,0.0,0.0,0.0,0.0,0.0,0.0,0.0,0.0,0.0,0.0,0.0,0.0,0.0,0.0,0.0,0.0,0.0,0.0,0.0,0.0,0.0,0.0,0.0,0.0,0.0,0.0,0.0,0.0,0.0,0.0,0.0,0.0,0.0,0.0,0.0,0.0,0.0,0.0,0.0,0.0,0.0,0.0,0.0,0.0,0.0,0.0,0.0,0.0,0.0,0.0,0.0,0.0,0.0,0.0,0.0,0.0,0.0,0.0,0.0,0.0,0.0,0.0,0.0,0.0,0.0,0.0,0.0,0.0,0.0,0.0,0.0,0.0,0.0,0.0,0.0,0.0,0.0,0.0,0.0,0.0,0.0,0.0,0.0,0.0,-0.4137,-0.4294,-0.4964,0.0,-0.625,0.0,0.0,0.0,0.0,0.0,0.0,0.0,0.0,0.0,0.0,0.0,0.0,0.0,0.0,0.0,0.0,0.0,0.0,0.0,0.0,0.0,0.0,0.0,0.0,0.0,0.0,0.0,0.0,0.0,0.0,0.0,0.0,0.0,0.0,0.0,0.0,0.0,0.0,0.0,0.0,0.0,0.0,0.0,0.0,0.0,0.0,0.0,0.0,0.0,0.0,0.0,0.0,0.0,0.0,0.0,0.0,0.0,0.0,0.0,0.0,0.0,0.0,0.0,0.0,0.0,0.0,0.0,0.0,0.0,0.0,0.0,0.0,0.0,0.0,0.0,0.0,0.0,0.0,0.0,0.0,0.0,0.0,0.0,0.0,0.0,0.0,0.0,0.0,0.0,0.0,0.0,0.0,0.0,0.0,0.0,0.0,0.0,0.0,0.0,0.0,0.0,0.0,0.0,0.0,0.0,0.0,0.0,0.0,0.0,0.0,-0.4506,-0.4767,-0.5514,-0.6169,0.0,0.0,0.0,0.0,0.0,0.0,0.0,0.0,0.0,0.0,0.0,0.0,0.0,0.0,0.0,0.0,0.0,0.0,0.0,0.0,0.0,0.0,0.0,0.0,0.0,0.0,0.0,0.0,0.0,0.0,0.0,0.0,0.0,0.0,0.0,0.0,0.0,0.0,0.0,0.0,0.0,0.0,0.0,0.0,0.0,0.0,0.0,0.0,0.0,0.0,0.0,0.0,0.0,0.0,0.0,0.0,0.0,0.0,0.0,0.0,0.0,0.0,0.0,0.0,0.0,0.0,0.0,0.0,0.0,0.0,0.0,0.0,0.0,0.0,0.0,0.0,0.0,0.0,0.0,0.0,0.0,0.0,0.0,0.0,0.0,0.0,0.0,0.0,0.0,0.0,0.0,0.0,0.0,0.0,0.0,0.0,0.0,0.0,0.0,0.0,0.0,0.0,0.0,0.0,0.0,0.0,0.0,0.0,0.0,0.0,-0.4451,-0.4902,-0.5379,-0.6195,-0.6705,-0.7169,0.0,0.0,0.0,0.0,0.0,0.0,0.0,0.0,0.0,0.0,0.0,0.0,0.0,0.0,0.0,0.0,0.0,0.0,0.0,0.0,0.0,0.0,0.0,0.0,0.0,0.0,0.0,0.0,0.0,0.0,0.0,0.0,0.0,0.0,0.0,0.0,0.0,0.0,0.0,0.0,0.0,0.0,0.0,0.0,0.0,0.0,0.0,0.0,0.0,0.0,0.0,0.0,0.0,0.0,0.0,0.0,0.0,0.0,0.0,0.0,0.0,0.0,0.0,0.0,0.0,0.0,0.0,0.0,0.0,0.0,0.0,0.0,0.0,0.0,0.0,0.0,0.0,0.0,0.0,0.0,0.0,0.0,0.0,0.0,0.0,0.0,0.0,0.0,0.0,0.0,0.0,0.0,0.0,0.0,0.0,0.0,0.0,0.0,0.0,0.0,0.0,0.0,0.0,0.0,0.0,0.0,0.0,0.0,-0.3857,-0.4408,-0.5185,-0.62,-0.6795,-0.7346,0.0,0.0,0.0,0.0,0.0,0.0,0.0,0.0,0.0,0.0,0.0,0.0,0.0,0.0,0.0,0.0,0.0,0.0,0.0,0.0,0.0,0.0,0.0,0.0,0.0,0.0,0.0,0.0,0.0,0.0,0.0,0.0,0.0,0.0,0.0,0.0,0.0,0.0,0.0,0.0,0.0,0.0,0.0,0.0,0.0,0.0,0.0,0.0,0.0,0.0,0.0,0.0,0.0,0.0,0.0,0.0,0.0,0.0,0.0,0.0,0.0,0.0,0.0,0.0,0.0,0.0,0.0,0.0,0.0,0.0,0.0,0.0,0.0,0.0,0.0,0.0,0.0,0.0,0.0,0.0,0.0,0.0,0.0,0.0,0.0,0.0,0.0,0.0,0.0,0.0,0.0,0.0,0.0,0.0,0.0,0.0,0.0,0.0,0.0,0.0,0.0,0.0,0.0,0.0,0.0,0.0,0.0,0.0,0.0,-0.4571,-0.5359,-0.6006,-0.6403,-0.7168,-0.7752,0.0,0.0,0.0,0.0,0.0,0.0,0.0,0.0,0.0,0.0,0.0,0.0,0.0,0.0,0.0,0.0,0.0,0.0,0.0,0.0,0.0,0.0,0.0,0.0,0.0,0.0,0.0,0.0,0.0,0.0,0.0,0.0,0.0,0.0,0.0,0.0,0.0,0.0,0.0,0.0,0.0,0.0,0.0,0.0,0.0,0.0,0.0,0.0,0.0,0.0,0.0,0.0,0.0,0.0,0.0,0.0,0.0,0.0,0.0,0.0,0.0,0.0,0.0,0.0,0.0,0.0,0.0,0.0,0.0,0.0,0.0,0.0,0.0,0.0,0.0,0.0,0.0,0.0,0.0,0.0,0.0,0.0,0.0,0.0,0.0,0.0,0.0,0.0,0.0,0.0,0.0,0.0,0.0,0.0,0.0,0.0,0.0,0.0,0.0,0.0,0.0,0.0,0.0,0.0,0.0,0.0,0.0,0.0,0.0,-0.5449,0.0,-0.679,-0.7026,-0.782,-0.8491,0.0,0.0,0.0,0.0,0.0,0.0,0.0,0.0,0.0,0.0,0.0,0.0,0.0,0.0,0.0,0.0,0.0,0.0,0.0,0.0,0.0,0.0,0.0,0.0,0.0,0.0,0.0,0.0,0.0,0.0,0.0,0.0,0.0,0.0,0.0,0.0,0.0,0.0,0.0,0.0,0.0,0.0,0.0,0.0,0.0,0.0,0.0,0.0,0.0,0.0,0.0,0.0,0.0,0.0,0.0,0.0,0.0,0.0,0.0,0.0,0.0,0.0,0.0,0.0,0.0,0.0,0.0,0.0,0.0,0.0,0.0,0.0,0.0,0.0,0.0,0.0,0.0,0.0,0.0,0.0,0.0,0.0,0.0,0.0,0.0,0.0,0.0,0.0,0.0,0.0,0.0,0.0,0.0,0.0,0.0,0.0,0.0,0.0,0.0,0.0,0.0,0.0,0.0,0.0,0.0,0.0,0.0,0.0,-0.5436,-0.6511,-0.6966,-0.7492,-0.8201,-0.8877,-0.9433,0.0,0.0,0.0,0.0,0.0,0.0,0.0,0.0,0.0,0.0,0.0,0.0,0.0,0.0,0.0,0.0,0.0,0.0,0.0,0.0,0.0,0.0,0.0,0.0,0.0,0.0,0.0,0.0,0.0,0.0,0.0,0.0,0.0,0.0,0.0,0.0,0.0,0.0,0.0,0.0,0.0,0.0,0.0,0.0,0.0,0.0,0.0,0.0,0.0,0.0,0.0,0.0,0.0,0.0,0.0,0.0,0.0,0.0,0.0,0.0,0.0,0.0,0.0,0.0,0.0,0.0,0.0,0.0,0.0,0.0,0.0,0.0,0.0,0.0,0.0,0.0,0.0,0.0,0.0,0.0,0.0,0.0,0.0,0.0,0.0,0.0,0.0,0.0,0.0,0.0,0.0,0.0,0.0,0.0,0.0,0.0,0.0,0.0,0.0,0.0,0.0,0.0,0.0,0.0,0.0,0.0,0.0,0.0,0.0,-0.7215,-0.7763,-0.8227,-0.8657,-0.9324,-0.9892,0.0,0.0,0.0,0.0,0.0,0.0,0.0,0.0,0.0,0.0,0.0,0.0,0.0,0.0,0.0,0.0,0.0,0.0,0.0,0.0,0.0,0.0,0.0,0.0,0.0,0.0,0.0,0.0,0.0,0.0,0.0,0.0,0.0,0.0,0.0,0.0,0.0,0.0,0.0,0.0,0.0,0.0,0.0,0.0,0.0,0.0,0.0,0.0,0.0,0.0,0.0,0.0,0.0,0.0,0.0,0.0,0.0,0.0,0.0,0.0,0.0,0.0,0.0,0.0,0.0,0.0,0.0,0.0,0.0,0.0,0.0,0.0,0.0,0.0,0.0,0.0,0.0,0.0,0.0,0.0,0.0,0.0,0.0,0.0,0.0,0.0,0.0,0.0,0.0,0.0,0.0,0.0,0.0,0.0,0.0,0.0,0.0,0.0,0.0,0.0,0.0,0.0,0.0,0.0,0.0,0.0,0.0,0.0,0.0,-0.8281,-0.866,-0.9048,-0.9415,-1.0068,-1.0589,-1.103,0.0,0.0,0.0,0.0,0.0,0.0,0.0,0.0,0.0,0.0,0.0,0.0,0.0,0.0,0.0,0.0,0.0,0.0,0.0,0.0,0.0,0.0,0.0,0.0,0.0,0.0,0.0,0.0,0.0,0.0,0.0,0.0,0.0,0.0,0.0,0.0,0.0,0.0,0.0,0.0,0.0,0.0,0.0,0.0,0.0,0.0,0.0,0.0,0.0,0.0,0.0,0.0,0.0,0.0,0.0,0.0,0.0,0.0,0.0,0.0,0.0,0.0,0.0,0.0,0.0,0.0,0.0,0.0,0.0,0.0,0.0,0.0,0.0,0.0,0.0,0.0,0.0,0.0,0.0,0.0,0.0,0.0,0.0,0.0,0.0,0.0,0.0,0.0,0.0,0.0,0.0,0.0,0.0,0.0,0.0,0.0,0.0,0.0,0.0,0.0,0.0,0.0,0.0,0.0,0.0,0.0,0.0,0.0,-0.9493,-0.9607,-0.9811,-1.0315,-1.0804,-1.1316,0.0,0.0,0.0,0.0,0.0,0.0,0.0,0.0,0.0,0.0,0.0,0.0,0.0,0.0,0.0,0.0,0.0,0.0,0.0,0.0,0.0,0.0,0.0,0.0,0.0,0.0,0.0,0.0,0.0,0.0,0.0,0.0,0.0,0.0,0.0,0.0,0.0,0.0,0.0,0.0,0.0,0.0,0.0,0.0,0.0,0.0,0.0,0.0,0.0,0.0,0.0,0.0,0.0,0.0,0.0,0.0,0.0,0.0,0.0,0.0,0.0,0.0,0.0,0.0,0.0,0.0,0.0,0.0,0.0,0.0,0.0,0.0,0.0,0.0,0.0,0.0,0.0,0.0,0.0,0.0,0.0,0.0,0.0,0.0,0.0,0.0,0.0,0.0,0.0,0.0,0.0,0.0,0.0,0.0,0.0,0.0,0.0,0.0,0.0,0.0,0.0,0.0,0.0,0.0,0.0,0.0,0.0,0.0,0.0,-0.978,-1.0422,-1.0741,-1.0509,-1.1087,-1.1514,0.0,0.0,0.0,0.0,0.0,0.0,0.0,0.0,0.0,0.0,0.0,0.0,0.0,0.0,0.0,0.0,0.0,0.0,0.0,0.0,0.0,0.0,0.0,0.0,0.0,0.0,0.0,0.0,0.0,0.0,0.0,0.0,0.0,0.0,0.0,0.0,0.0,0.0,0.0,0.0,0.0,0.0,0.0,0.0,0.0,0.0,0.0,0.0,0.0,0.0,0.0,0.0,0.0,0.0,0.0,0.0,0.0,0.0,0.0,0.0,0.0,0.0,0.0,0.0,0.0,0.0,0.0,0.0,0.0,0.0,0.0,0.0,0.0,0.0,0.0,0.0,0.0,0.0,0.0,0.0,0.0,0.0,0.0,0.0,0.0,0.0,0.0,0.0,0.0,0.0,0.0,0.0,0.0,0.0,0.0,0.0,0.0,0.0,0.0,0.0,0.0,0.0,0.0,0.0,0.0,0.0,0.0,0.0,-1.0591,-1.016,-1.0937,-1.1447,-1.1332,-1.1583,-1.1839,0.0,0.0,0.0,0.0,0.0,0.0,0.0,0.0,0.0,0.0,0.0,0.0,0.0,0.0,0.0,0.0,0.0,0.0,0.0,0.0,0.0,0.0,0.0,0.0,0.0,0.0,0.0,0.0,0.0,0.0,0.0,0.0,0.0,0.0,0.0,0.0,0.0,0.0,0.0,0.0,0.0,0.0,0.0,0.0,0.0,0.0,0.0,0.0,0.0,0.0,0.0,0.0,0.0,0.0,0.0,0.0,0.0,0.0,0.0,0.0,0.0,0.0,0.0,0.0,0.0,0.0,0.0,0.0,0.0,0.0,0.0,0.0,0.0,0.0,0.0,0.0,0.0,0.0,0.0,0.0,0.0,0.0,0.0,0.0,0.0,0.0,0.0,0.0,0.0,0.0,0.0,0.0,0.0,0.0,0.0,0.0,0.0,0.0,0.0,0.0,0.0,0.0,0.0,0.0,0.0,0.0,0.0,0.0,-1.1026,-1.0706,-1.1379,-1.1891,-1.2403,-1.2255,-1.2258,0.0,0.0,0.0,0.0,0.0,0.0,0.0,0.0,0.0,0.0,0.0,0.0,0.0,0.0,0.0,0.0,0.0,0.0,0.0,0.0,0.0,0.0,0.0,0.0,0.0,0.0,0.0,0.0,0.0,0.0,0.0,0.0,0.0,0.0,0.0,0.0,0.0,0.0,0.0,0.0,0.0,0.0,0.0,0.0,0.0,0.0,0.0,0.0,0.0,0.0,0.0,0.0,0.0,0.0,0.0,0.0,0.0,0.0,0.0,0.0,0.0,0.0,0.0,0.0,0.0,0.0,0.0,0.0,0.0,0.0,0.0,0.0,0.0,0.0,0.0,0.0,0.0,0.0,0.0,0.0,0.0,0.0,0.0,0.0,0.0,0.0,0.0,0.0,0.0,0.0,0.0,0.0,0.0,0.0,0.0,0.0,0.0,0.0,0.0,0.0,0.0,0.0,0.0,0.0,0.0,0.0,0.0,0.0,-1.1539,-1.1208,-1.1873,-1.2432,-1.2743,-1.2708,-1.309,0.0,0.0,0.0,0.0,0.0,0.0,0.0,0.0,0.0,0.0,0.0,0.0,0.0,0.0,0.0,0.0,0.0,0.0,0.0,0.0,0.0,0.0,0.0,0.0,0.0,0.0,0.0,0.0,0.0,0.0,0.0,0.0,0.0,0.0,0.0,0.0,0.0,0.0,0.0,0.0,0.0,0.0,0.0,0.0,0.0,0.0,0.0,0.0,-1.3711,0.0,0.0,0.0,0.0,0.0,0.0,0.0,0.0,0.0,0.0,0.0,0.0,0.0,0.0,0.0,0.0,0.0,0.0,0.0,0.0,0.0,0.0,0.0,0.0,0.0,0.0,0.0,0.0,0.0,0.0,0.0,0.0,0.0,0.0,0.0,0.0,0.0,0.0,0.0,0.0,0.0,0.0,0.0,0.0,0.0,0.0,0.0,0.0,0.0,0.0,0.0,0.0,0.0,0.0,0.0,0.0,0.0,0.0,0.0,-1.2282,-1.2051,-1.3118,-1.3936,-1.4466,-1.4898,-1.496,0.0,0.0,0.0,0.0,0.0,0.0,0.0,0.0,0.0,0.0,0.0,0.0,0.0,0.0,0.0,0.0,0.0,0.0,0.0,0.0,0.0,0.0,0.0,0.0,0.0,0.0,0.0,0.0,0.0,0.0,0.0,0.0,0.0,0.0,0.0,0.0,0.0,0.0,0.0,0.0,0.0,0.0,0.0,0.0,0.0,0.0,0.0,0.0,0.0,0.0,0.0,0.0,0.0,0.0,0.0,0.0,0.0,0.0,0.0,0.0,0.0,0.0,0.0,0.0,0.0,0.0,0.0,0.0,0.0,0.0,0.0,0.0,0.0,0.0,0.0,0.0,0.0,0.0,0.0,0.0,0.0,0.0,0.0,0.0,0.0,0.0,0.0,0.0,0.0,0.0,0.0,0.0,0.0,0.0,0.0,0.0,0.0,0.0,0.0,0.0,0.0,0.0,0.0,0.0,0.0,0.0,0.0,-1.2944,-1.3283,-1.3287,-1.468,-1.576,-1.654,-1.7395,-1.7096,-1.5623,0.0,0.0,0.0,0.0,0.0,0.0,0.0,0.0,0.0,0.0,0.0,0.0,0.0,0.0,0.0,0.0,0.0,0.0,0.0,0.0,0.0,0.0,0.0,0.0,0.0,0.0,0.0,0.0,0.0,0.0,0.0,0.0,0.0,0.0,0.0,0.0,0.0,0.0,-1.0914,-1.2284,0.0,0.0,0.0,0.0,0.0,0.0,0.0,0.0,-1.6075,0.0,0.0,0.0,0.0,0.0,0.0,0.0,0.0,0.0,0.0,0.0,0.0,0.0,0.0,0.0,0.0,0.0,0.0,0.0,0.0,0.0,0.0,0.0,0.0,0.0,0.0,0.0,0.0,0.0,0.0,0.0,0.0,0.0,0.0,0.0,0.0,0.0,0.0,0.0,0.0,0.0,0.0,0.0,0.0,0.0,0.0,0.0,0.0,0.0,0.0,0.0,0.0,0.0,0.0,0.0,0.0,-1.3221,-1.4011,-1.4597,-1.4964,-1.601,-1.6938,-1.7747,-1.7985,-1.8068,-1.8145,0.0,0.0,0.0,0.0,0.0,0.0,0.0,0.0,0.0,0.0,0.0,0.0,0.0,0.0,0.0,0.0,0.0,0.0,0.0,0.0,0.0,0.0,0.0,0.0,0.0,0.0,0.0,0.0,0.0,0.0,0.0,0.0,0.0,0.0,0.0,0.0,0.0,0.0,0.0,-1.3991,-1.4846,0.0,0.0,0.0,0.0,0.0,0.0,0.0,0.0,-1.6996,0.0,0.0,0.0,0.0,0.0,0.0,0.0,0.0,0.0,0.0,0.0,0.0,0.0,0.0,0.0,0.0,0.0,0.0,0.0,0.0,0.0,0.0,0.0,0.0,0.0,0.0,0.0,0.0,0.0,0.0,0.0,0.0,0.0,0.0,0.0,0.0,0.0,0.0,0.0,0.0,0.0,0.0,0.0,0.0,0.0,0.0,0.0,0.0,0.0,0.0,0.0,0.0,0.0,0.0,0.0,-1.4526,-1.5018,-1.5789,-1.6732,-1.7654,-1.84,-1.8998,-1.9299,-1.9327,0.0,0.0,0.0,0.0,0.0,0.0,0.0,0.0,0.0,0.0,0.0,0.0,0.0,0.0,0.0,0.0,0.0,0.0,0.0,0.0,0.0,0.0,0.0,0.0,0.0,0.0,0.0,0.0,0.0,0.0,0.0,0.0,0.0,0.0,0.0,0.0,0.0,0.0,0.0,0.0,-1.4996,-1.598,-1.6436,0.0,0.0,0.0,0.0,0.0,0.0,-1.7752,-1.7527,0.0,0.0,0.0,0.0,0.0,0.0,0.0,0.0,0.0,0.0,0.0,0.0,0.0,0.0,0.0,0.0,0.0,0.0,0.0,0.0,0.0,0.0,0.0,0.0,0.0,0.0,0.0,0.0,0.0,0.0,0.0,0.0,0.0,0.0,0.0,0.0,0.0,0.0,0.0,0.0,0.0,0.0,0.0,0.0,0.0,0.0,0.0,0.0,0.0,0.0,0.0,0.0,0.0,0.0,0.0,-1.5664,-1.6349,-1.7216,-1.8376,-1.9319,-1.9897,-2.0033,-2.0372,-2.0194,0.0,0.0,0.0,0.0,0.0,0.0,0.0,0.0,0.0,0.0,0.0,0.0,0.0,0.0,0.0,0.0,0.0,0.0,0.0,0.0,0.0,0.0,0.0,0.0,0.0,0.0,0.0,0.0,0.0,0.0,0.0,0.0,0.0,0.0,0.0,0.0,0.0,0.0,0.0,0.0,0.0,-1.6952,-1.7747,-1.7875,0.0,0.0,0.0,0.0,-1.8455,-1.8258,0.0,0.0,0.0,0.0,0.0,0.0,0.0,0.0,0.0,0.0,0.0,0.0,0.0,0.0,0.0,0.0,0.0,0.0,0.0,0.0,0.0,0.0,0.0,0.0,0.0,0.0,0.0,0.0,0.0,0.0,0.0,0.0,0.0,0.0,0.0,0.0,0.0,0.0,0.0,0.0,0.0,0.0,0.0,0.0,0.0,0.0,0.0,0.0,0.0,0.0,0.0,0.0,0.0,0.0,0.0,0.0,-1.6262,-1.802,-1.9172,-1.9625,-2.0451,-2.1052,-2.1081,-2.0499,-2.0067,0.0,0.0,0.0,0.0,0.0,0.0,0.0,0.0,0.0,0.0,0.0,0.0,0.0,0.0,0.0,0.0,0.0,0.0,0.0,0.0,0.0,0.0,0.0,0.0,0.0,0.0,0.0,0.0,0.0,0.0,0.0,0.0,0.0,0.0,0.0,0.0,0.0,0.0,0.0,0.0,0.0,-1.8021,-1.791,-1.816,-1.8239,0.0,0.0,-1.8455,-1.8687,-1.8723,0.0,0.0,0.0,0.0,0.0,0.0,0.0,0.0,0.0,0.0,0.0,0.0,0.0,0.0,0.0,0.0,0.0,0.0,0.0,0.0,0.0,0.0,0.0,0.0,0.0,0.0,0.0,0.0,0.0,0.0,0.0,0.0,0.0,0.0,0.0,0.0,0.0,0.0,0.0,0.0,0.0,0.0,0.0,0.0,0.0,0.0,0.0,0.0,0.0,0.0,0.0,0.0,0.0,0.0,0.0,-1.658,-1.7836,-1.8863,-1.9645,-2.0231,-2.0525,-2.0655,-2.0655,-2.0208,-1.9766,0.0,0.0,0.0,0.0,0.0,0.0,0.0,0.0,0.0,0.0,0.0,0.0,0.0,0.0,0.0,0.0,0.0,0.0,0.0,0.0,0.0,0.0,0.0,0.0,0.0,0.0,0.0,0.0,0.0,0.0,0.0,0.0,0.0,0.0,0.0,0.0,0.0,0.0,0.0,0.0,0.0,0.0,-1.8876,-1.8869,0.0,0.0,0.0,-1.9175,-1.9089,0.0,0.0,0.0,0.0,0.0,0.0,0.0,0.0,0.0,0.0,0.0,0.0,0.0,0.0,0.0,0.0,0.0,0.0,0.0,0.0,0.0,0.0,0.0,0.0,0.0,0.0,0.0,0.0,0.0,0.0,0.0,0.0,0.0,0.0,0.0,0.0,0.0,0.0,0.0,0.0,0.0,0.0,0.0,0.0,0.0,0.0,0.0,0.0,0.0,0.0,0.0,0.0,0.0,0.0,0.0,0.0,0.0,-1.8893,-1.9381,-1.9962,-2.0713,-2.0398,-2.0274,-2.0347,-1.9974,0.0,0.0,0.0,0.0,0.0,0.0,0.0,0.0,0.0,0.0,0.0,0.0,0.0,0.0,0.0,0.0,0.0,0.0,0.0,0.0,0.0,0.0,0.0,0.0,0.0,0.0,0.0,-1.7796,0.0,0.0,0.0,0.0,0.0,0.0,0.0,0.0,0.0,0.0,0.0,0.0,0.0,0.0,-1.9132,-1.9774,-1.9829,-1.9812,0.0,0.0,-2.0012,-1.9557,-1.9513,-1.9479,0.0,0.0,0.0,0.0,0.0,0.0,0.0,0.0,0.0,0.0,0.0,0.0,0.0,0.0,0.0,0.0,0.0,0.0,0.0,0.0,0.0,0.0,0.0,0.0,0.0,0.0,0.0,0.0,0.0,0.0,0.0,0.0,0.0,0.0,0.0,0.0,0.0,0.0,0.0,0.0,0.0,0.0,0.0,0.0,0.0,0.0,0.0,0.0,0.0,0.0,0.0,0.0,0.0,0.0,0.0,-1.8883,-1.9722,-2.0317,-2.0706,-2.0406,-2.0377,-2.0669,-2.0091,-1.9665,0.0,0.0,0.0,0.0,0.0,0.0,0.0,0.0,0.0,0.0,0.0,0.0,0.0,0.0,0.0,0.0,0.0,0.0,0.0,0.0,0.0,0.0,0.0,0.0,0.0,0.0,0.0,0.0,0.0,0.0,0.0,0.0,0.0,0.0,0.0,0.0,0.0,0.0,0.0,0.0,0.0,-2.0147,-2.0135,-2.0628,-2.0823,0.0,0.0,-2.0846,-2.0288,-2.0164,-2.006,-2.0051,0.0,0.0,0.0,0.0,0.0,0.0,0.0,0.0,0.0,0.0,0.0,0.0,0.0,0.0,0.0,0.0,0.0,0.0,0.0,0.0,0.0,0.0,0.0,0.0,0.0,0.0,0.0,0.0,0.0,0.0,0.0,0.0,0.0,0.0,0.0,0.0,0.0,0.0,0.0,0.0,0.0,0.0,0.0,0.0,0.0,0.0,0.0,0.0,0.0,0.0,0.0,0.0,0.0,-1.9105,-1.9642,-2.0194,-2.0596,-2.0706,-2.0406,-2.0201,-2.0135,-1.9894,-1.9769,0.0,0.0,0.0,0.0,0.0,0.0,0.0,0.0,0.0,0.0,0.0,0.0,0.0,0.0,0.0,0.0,0.0,0.0,0.0,0.0,0.0,0.0,0.0,0.0,0.0,0.0,0.0,0.0,-2.0865,-2.1016,-2.0923,0.0,0.0,0.0,0.0,0.0,0.0,0.0,0.0,0.0,0.0,-2.1837,-2.2963,-2.2642,0.0,0.0,-2.2895,-2.2822,-2.1965,-2.1834,-2.1676,-2.1499,-2.0942,0.0,0.0,0.0,0.0,0.0,0.0,0.0,0.0,0.0,0.0,0.0,0.0,0.0,0.0,0.0,0.0,0.0,0.0,0.0,0.0,0.0,0.0,0.0,0.0,0.0,0.0,0.0,0.0,0.0,0.0,0.0,0.0,0.0,0.0,0.0,0.0,0.0,0.0,0.0,0.0,0.0,0.0,0.0,0.0,0.0,0.0,0.0,0.0,0.0,0.0,0.0,0.0,-1.9548,-2.0084,-2.0413,-2.0625,-2.072,-2.0398,-2.0135,-1.9916,-1.9813,-1.9979,0.0,0.0,0.0,0.0,0.0,0.0,0.0,0.0,0.0,0.0,0.0,0.0,0.0,0.0,0.0,0.0,0.0,0.0,0.0,0.0,0.0,0.0,0.0,0.0,0.0,0.0,0.0,0.0,-2.218,-2.2231,-2.1831,0.0,0.0,0.0,0.0,0.0,0.0,0.0,0.0,0.0,0.0,-2.3582,-2.4961,-2.4471,-2.4149,-2.4525,-2.4676,-2.4538,-2.3524,-2.3268,-2.3151,-2.2992,0.0,0.0,0.0,0.0,0.0,0.0,0.0,0.0,0.0,0.0,0.0,0.0,0.0,0.0,0.0,0.0,0.0,0.0,0.0,0.0,0.0,0.0,0.0,0.0,0.0,0.0,0.0,0.0,0.0,0.0,-1.6306,0.0,0.0,0.0,0.0,0.0,0.0,0.0,0.0,0.0,0.0,0.0,0.0,0.0,0.0,0.0,0.0,0.0,0.0,0.0,0.0,0.0,0.0,-1.9244,-1.9784,-2.0128,-2.042,-2.0713,-2.0406,-2.0245,-2.0223,-1.993,-2.0083,-2.0808,0.0,0.0,0.0,0.0,0.0,0.0,0.0,0.0,0.0,0.0,0.0,0.0,0.0,0.0,0.0,0.0,0.0,0.0,0.0,0.0,0.0,0.0,0.0,0.0,0.0,0.0,-2.2823,-2.3185,-2.319,0.0,0.0,0.0,0.0,0.0,0.0,0.0,0.0,0.0,0.0,-2.531,-2.5598,-2.5521,-2.6,-2.6109,-2.5371,-2.5726,-2.5702,-2.4654,-2.427,-2.4149,0.0,0.0,0.0,0.0,0.0,0.0,0.0,0.0,0.0,0.0,0.0,0.0,0.0,0.0,0.0,0.0,0.0,0.0,0.0,0.0,0.0,0.0,0.0,0.0,0.0,0.0,0.0,-1.7488,-1.7569,0.0,0.0,0.0,0.0,0.0,0.0,0.0,0.0,0.0,0.0,0.0,-1.8884,-1.8985,0.0,0.0,0.0,0.0,0.0,0.0,0.0,0.0,0.0,0.0,0.0,0.0,-1.9968,-2.0406,-2.072,-2.0933,-2.1042,-2.094,-2.11,-2.1744,-2.1302,-2.1523,-2.2273,0.0,0.0,0.0,0.0,0.0,0.0,0.0,0.0,0.0,0.0,0.0,0.0,0.0,0.0,0.0,0.0,0.0,0.0,0.0,0.0,0.0,0.0,0.0,0.0,0.0,-2.375,0.0,0.0,0.0,0.0,0.0,0.0,0.0,0.0,0.0,0.0,0.0,-2.55,-2.6901,-2.7035,-2.7217,-2.8074,-2.7941,-2.7726,0.0,0.0,0.0,0.0,0.0,0.0,0.0,0.0,0.0,0.0,0.0,0.0,0.0,0.0,-2.2982,-2.2152,-2.2323,-2.2507,-2.2497,0.0,0.0,0.0,0.0,0.0,0.0,0.0,0.0,0.0,0.0,0.0,0.0,0.0,0.0,0.0,0.0,-1.7589,0.0,0.0,0.0,0.0,0.0,0.0,0.0,0.0,-1.9425,-1.9629,-1.969,-2.001,-2.006,0.0,-2.0179,-1.9382,0.0,0.0,0.0,0.0,0.0,0.0,0.0,0.0,-2.0508,-2.0728,-2.1042,-2.1211,-2.1211,-2.1211,-2.1609,-2.2458,-2.2741,-2.3083,-2.3655,-2.3966,-2.4061,0.0,0.0,0.0,0.0,0.0,0.0,0.0,0.0,0.0,0.0,0.0,0.0,0.0,0.0,0.0,0.0,0.0,0.0,0.0,0.0,0.0,0.0,0.0,-2.4908,0.0,0.0,0.0,0.0,0.0,0.0,0.0,0.0,0.0,-2.5209,-2.5953,-2.7084,-2.842,-2.8511,-2.8685,-2.9513,0.0,0.0,0.0,0.0,0.0,0.0,0.0,-2.7949,-2.7637,-2.7506,-2.7119,-2.6643,-2.6045,-2.5557,-2.5448,0.0,0.0,-2.3853,-2.3852,-2.4003,-2.3944,-2.4021,-2.4172,-2.4204,-2.4607,-2.5107,0.0,0.0,0.0,0.0,0.0,0.0,0.0,0.0,-1.7168,-1.7335,0.0,-1.7602,0.0,0.0,0.0,0.0,0.0,0.0,0.0,0.0,-2.0252,-2.0545,-2.0311,-2.0596,-2.0742,-2.072,-2.0428,-2.0267,-2.0237,-2.0252,0.0,0.0,0.0,0.0,0.0,0.0,-2.072,-2.075,-2.1057,-2.1211,-2.1211,-2.1203,-2.1715,-2.267,-2.4122,-2.4859,-2.4914,-2.4752,-2.4688,-2.4745,-2.3796,0.0,0.0,0.0,0.0,0.0,0.0,0.0,0.0,0.0,0.0,0.0,0.0,0.0,0.0,0.0,0.0,0.0,0.0,0.0,0.0,-2.5523,0.0,0.0,0.0,0.0,0.0,0.0,0.0,0.0,0.0,0.0,-2.7017,-2.7764,-2.8613,-2.9259,0.0,0.0,0.0,0.0,-2.9879,-2.9669,-2.9659,-2.9505,-2.8972,-2.8705,-2.8518,-2.8518,0.0,0.0,-2.7885,-2.7117,-2.6622,-2.6313,-2.6835,-2.6852,-2.5433,-2.5509,-2.5624,-2.5566,-2.5848,-2.6073,-2.6249,-2.6506,-2.6923,-1.6653,0.0,0.0,0.0,0.0,-1.6493,-1.68,-1.7271,-1.7368,-1.7502,-1.7595,-1.7816,0.0,0.0,0.0,0.0,0.0,0.0,-1.9528,-1.9959,-2.0252,-2.0567,-2.0933,-2.102,-2.1072,-2.1072,-2.0969,-2.0933,-2.0925,-2.0925,-2.0691,-2.0237,0.0,0.0,0.0,0.0,-2.0837,-2.1057,-2.1159,-2.1211,-2.1211,-2.2101,-2.3254,-2.4852,-2.6041,-2.6458,-2.5987,-2.582,-2.5572,-2.5277,-2.5006,0.0,0.0,0.0,0.0,0.0,0.0,0.0,0.0,0.0,0.0,0.0,0.0,0.0,0.0,0.0,0.0,0.0,0.0,0.0,-2.6063,-2.6526,-2.6699,0.0,0.0,0.0,0.0,0.0,0.0,0.0,0.0,0.0,-2.8569,-2.8837,-2.9178,0.0,0.0,-2.9994,-2.9889,-2.9994,-2.9994,-2.9889,0.0,0.0,0.0,-2.9579,-2.9589,-2.9599,-2.937,-2.9255,-2.9046,-2.863,-2.8331,-2.8321,-2.844,-2.839,-2.8053,-2.7589,-2.7442,-2.7528,-2.7471,-2.7412,-2.7392,-2.7652,-2.7823,-1.7114,-1.6774,-1.654,-1.6513,-1.6633,-1.6807,-1.7048,-1.7328,-1.7508,-1.7589,-1.7609,-1.7909,-1.8158,-1.8475,-1.8898,0.0,0.0,0.0,-1.9681,-2.0055,-2.0311,-2.0633,-2.1013,-2.1152,-2.1211,-2.1211,-2.1211,-2.1211,-2.1211,-2.1211,-2.1006,-2.0633,0.0,0.0,-2.0903,-2.0918,-2.1013,-2.1203,-2.1653,-2.1866,-2.1873,-2.3536,-2.4971,-2.6267,-2.7243,-2.7357,-2.6842,-2.6606,-2.6257,-2.5734,-2.5734,-2.548,0.0,0.0,0.0,0.0,0.0,0.0,0.0,0.0,0.0,0.0,0.0,-2.3722,-2.3732,0.0,0.0,0.0,-2.6009,-2.6537,-2.6817,-2.7191,0.0,0.0,0.0,0.0,0.0,0.0,0.0,-2.839,-2.8711,-2.9063,-2.9518,-2.958,-2.9673,-2.9963,-2.9994,-2.9994,-2.9994,0.0,-2.9994,-2.9994,-2.9994,-2.9994,-2.9994,-2.9994,-2.9994,-2.9994,-2.9889,-2.9659,-2.9659,-2.9448,-2.9237,-2.9132,-2.9132,-2.9132,-2.9237,-2.891,-2.8739,-2.8844,-2.8745,-2.8573,-2.8665,-2.885,-2.8942,-1.7635,-1.7575,-1.7041,-1.6961,-1.7181,-1.7181,-1.7335,-1.7582,-1.7582,-1.7575,-1.7602,-1.7909,-1.8259,-1.8583,-1.9148,0.0,-1.9286,-1.9616,-1.9777,-1.9828,-2.0435,-2.0735,-2.0779,-2.1072,-2.1211,-2.1211,-2.1211,-2.1211,-2.1211,-2.1211,-2.1211,-2.1318,-2.1318,-2.1325,-2.1211,-2.1203,-2.1318,-2.1432,-2.2539,-2.3199,-2.3311,-2.5415,-2.6735,-2.7032,-2.7736,-2.7958,-2.7409,-2.7282,-2.6861,-2.6217,-2.6199,-2.6258,-2.6186,0.0,0.0,0.0,0.0,0.0,0.0,0.0,0.0,0.0,0.0,0.0,0.0,0.0,0.0,0.0,-2.7024,0.0,-2.7365,-2.7365,0.0,0.0,0.0,-2.7707,-2.8524,-2.8276,-2.8359,-2.9208,0.0,0.0,-2.9942,0.0,-2.9994,-2.9994,-2.9994,-2.9994,-2.9994,-2.9994,-2.9994,-2.9994,-2.9994,-2.9994,-2.9994,-2.9994,-2.9994,-2.9994,-3.0088,-3.0088,-2.9764,-2.9764,-2.9649,-2.9237,-2.9142,-2.9237,-2.9554,-2.9638,-2.9764,-2.9838,-2.9628,-2.9638,-2.9817,-2.9922,-2.9901,-1.8143,-1.7929,-1.7789,-1.7629,-1.7475,-1.7475,-1.7522,-1.7582,-1.7799,-1.7799,-1.7602,-1.8331,-1.8791,-1.9134,-1.9693,-1.9706,-1.9286,-1.9616,-1.9894,-2.0135,-2.0537,-2.0852,-2.1094,-2.1167,-2.1211,-2.1211,-2.1211,-2.1211,-2.1211,-2.1211,-2.1432,-2.1888,-2.2085,-2.1979,-2.1668,-2.1774,-2.2222,-2.2862,-2.3432,-2.4317,-2.5634,-2.64,-2.7276,-2.8271,-2.8615,-2.8379,-2.7723,-2.758,-2.7252,-2.6729,-2.6703,-2.6668,-2.6496,-2.6279,0.0,0.0,0.0,0.0,0.0,0.0,0.0,0.0,0.0,-2.5057,-2.5078,0.0,-2.6827,0.0,-2.7293,-2.7914,-2.8255,-2.8297,0.0,0.0,-2.8359,-2.8369,-2.8587,-2.8825,-2.9063,-2.928,-2.9611,-2.987,-2.9984,-2.9994,-2.9994,-2.9994,-2.9994,-2.9994,-2.9994,-2.9994,-2.9994,-2.9994,-2.9994,-2.9994,-2.9994,-2.9994,-2.9994,-2.9994,-3.0681,-3.0877,-3.0078,-3.0578,-3.0877,-2.9973,-2.9774,-2.9774,-2.9984,-3.0578,-3.1084,-3.1073,-3.0474,-2.9889,-2.9994,-2.9994,-2.9994,-1.8397,-1.8243,-1.8243,-1.807,-1.7776,-1.7642,-1.7589,-1.7582,-1.7799,-1.7694,-1.7609,-1.8367,-1.9069,-1.9538,-1.9928,-1.9954,-1.9747,-2.004,-2.0289,-2.0464,-2.0786,-2.1042,-2.1203,-2.1767,-2.1987,-2.1987,-2.2531,-2.2749,-2.2749,-2.2749,-2.2862,-2.3199,-2.3407,-2.3416,-2.3207,-2.299,-2.3103,-2.3648,-2.4428,-2.5753,-2.7403,-2.7609,-2.8155,-2.9026,-2.913,-2.8788,-2.8036,-2.7972,-2.7641,-2.6941,-2.6996,-2.7063,-2.69,-2.6682,-2.6237,0.0,0.0,0.0,0.0,0.0,0.0,0.0,0.0,0.0,0.0,0.0,-2.7531,0.0,-2.7935,-2.8338,-2.8597,-2.8807,-2.909,-2.9279,-2.931,-2.9384,-2.9583,-2.9651,-2.9611,-2.9611,-2.9849,-2.9994,-2.9994,-2.9994,-2.9994,-2.9994,-3.0391,-3.0495,-3.0099,-2.9994,-2.9994,-2.9994,-2.9994,-2.9994,-2.9994,-3.0391,-3.0692,-3.0785,-3.1597,-3.2095,-3.1505,-3.1902,-3.2095,-3.1607,-3.1403,-3.1403,-3.1494,-3.1891,-3.2297,-3.2297,-3.179,-3.1289,-3.0795,-3.0692,-3.0692,-1.8577,-1.8544,-1.8551,-1.8377,-1.8083,-1.7769,-1.7615,-1.7589,-1.7582,-1.7707,-1.7887,-1.8386,-1.9104,-1.9864,-1.9907,-1.9975,-2.0259,-2.0574,-2.072,-2.0742,-2.1057,-2.1211,-2.1211,-2.232,-2.2869,-2.2974,-2.4069,-2.4616,-2.4718,-2.4718,-2.4727,-2.4837,-2.4837,-2.5067,-2.5406,-2.4761,-2.4326,-2.4317,-2.5753,-2.7187,-2.8621,-2.8727,-2.9036,-2.9554,-2.9659,-2.9229,-2.8338,-2.8507,-2.8105,-2.7058,-2.7177,-2.7272,-2.7251,-2.6879,-2.663,0.0,-2.6185,0.0,0.0,0.0,0.0,0.0,0.0,0.0,0.0,-2.7489,-2.8204,-2.8659,-2.87,-2.8721,-2.8783,-2.9195,-2.9653,-3.0024,-3.0066,-3.0236,-3.0628,-3.0287,-2.9994,-2.9994,-3.0088,-3.0183,-3.0193,-3.0287,-3.0401,-3.0391,-3.1197,-3.1392,-3.0495,-3.0297,-3.0287,-3.0391,-3.0401,-3.0703,-3.0703,-3.1289,-3.179,-3.188,-3.2689,-3.33,-3.3101,-3.33,-3.33,-3.3201,-3.3001,-3.3101,-3.3201,-3.33,-3.34,-3.34,-3.34,-3.2989,-3.2083,-3.1779,-3.1757,-1.9065,-1.8838,-1.8844,-1.8677,-1.8384,-1.809,-1.7816,-1.7582,-1.7799,-1.8365,-1.8963,-1.9348,-1.9731,-2.0135,-2.0381,-2.0434,-2.0259,-2.0574,-2.072,-2.0735,-2.1057,-2.1211,-2.1211,-2.1425,-2.2093,-2.2974,-2.3199,-2.3847,-2.4718,-2.4718,-2.4948,-2.5397,-2.5735,-2.6091,-2.6645,0.0,0.0,0.0,-2.7736,-2.8398,-2.8727,-2.9142,-2.9448,-2.9554,-2.9774,0.0,-2.8569,-2.8607,-2.8193,-2.7324,-2.7262,0.0,0.0,0.0,0.0,0.0,0.0,0.0,0.0,0.0,0.0,0.0,-2.7417,-2.751,-2.7189,-2.7955,-2.868,-2.9125,-2.9177,-2.9332,-2.9694,-2.9829,-2.9974,-3.0057,-3.0057,-3.011,-3.0193,-3.0099,-2.9994,-2.9994,-3.0785,-3.1278,-3.1278,-3.1993,-3.2196,-3.1483,-3.2185,-3.2387,-3.1483,-3.1381,-3.1586,-3.2409,-3.2398,-3.2499,-3.26,-3.27,-3.2901,-3.2989,-3.3784,-3.4091,-3.3499,-3.3993,-3.4091,-3.3499,-3.3201,-3.33,-3.33,-3.3895,-3.4483,-3.4483,-3.4483,-3.419,-3.3101,-3.2901,-3.2787,-1.9279,0.0,-1.9145,-1.8971,0.0,-1.8544,-1.831,-1.8023,-1.7983,-1.8502,-1.9374,-1.9675,-2.0026,-2.0482,-2.0648,-2.0754,-2.072,-2.0889,-2.0962,-2.0976,-2.113,-2.1211,-2.1211,-2.1767,-2.2433,-2.3095,-2.4197,-2.4974,-2.5626,-2.6173,-2.6617,-2.6952,-2.7079,-2.7305,-2.7638,-2.7755,-2.7862,-2.7862,-2.8301,-2.8727,-2.9152,-2.9448,-2.9659,-2.9774,0.0,0.0,0.0,0.0,0.0,0.0,0.0,0.0,0.0,0.0,0.0,-2.6931,-2.691,-2.6806,-2.6599,-2.6982,-2.7334,-2.7572,-2.8214,-2.8514,-2.8286,-2.87,-2.9247,-2.9992,-3.0045,-3.0242,-3.0671,-3.0817,-3.0806,-3.0806,-3.0599,-3.0391,-3.0391,-3.0588,-3.0795,-3.0888,-3.1688,-3.2387,-3.2387,-3.2801,-3.3001,-3.2588,-3.3289,-3.3784,-3.3289,-3.2689,-3.2588,-3.3112,-3.3201,-3.3201,-3.33,-3.3697,-3.3993,-3.408,-3.4872,-3.5283,-3.4884,-3.5174,-3.5379,-3.4872,-3.4775,-3.4775,-3.4775,-3.5271,-3.5571,-3.5571,-3.5571,-3.5353,-3.4475,-3.3908,-3.3546,-1.9366,-1.9366,-1.9366,-1.9225,-1.8998,-1.8951,-1.8784,-1.8551,0.0,0.0,0.0,-1.9751,-2.0253,-2.0716,-2.0723,-2.096,-2.1203,-2.1211,-2.1211,-2.1211,-2.1211,-2.1318,-2.1539,-2.2539,-2.3199,-2.3751,-2.5533,-2.6636,-2.6853,-2.7853,-2.8301,-2.8301,-2.8301,-2.8301,-2.8301,-2.8301,-2.8291,-2.8398,-2.8398,-2.8814,-2.9554,-2.9659,-2.9774,-2.9994,-2.9994,-2.9601,-2.8773,-2.8659,-2.8235,-2.7438,-2.7314,-2.7272,-2.7272,-2.7272,-2.7293,-2.7376,-2.7376,-2.7407,-2.75,-2.7841,-2.8079,-2.8162,-2.8949,-2.9425,-2.9425,-2.9425,-2.9776,-3.0753,-3.0785,-3.0991,-3.1403,-3.1414,-3.1414,-3.1322,-3.1094,-3.0888,-3.0991,-3.1483,-3.188,-3.1982,-3.2789,-3.3499,-3.3499,-3.3697,-3.3697,-3.3697,-3.4385,-3.5078,-3.4981,-3.4385,-3.3784,-3.3598,-3.3796,-3.3883,-3.3883,-3.4483,-3.5078,-3.5078,-3.5763,-3.637,-3.637,-3.637,-3.637,-3.6263,-3.637,-3.6358,-3.6358,-3.6263,-3.6332,-3.6232,-3.6207,-3.6056,-3.5449,-3.4644,-3.3974,-1.9366,-1.9366,-1.9366,-1.9345,-1.9285,-1.9032,-1.8905,-1.8858,-1.8818,-1.8957,-1.9391,-1.9981,-2.0336,-2.0716,-2.0967,-2.1096,-2.1211,-2.1211,-2.1211,0.0,-2.1211,-2.1767,-2.2757,-2.2869,-2.4086,-2.5972,-2.6309,-2.707,-2.796,-2.8184,-2.8301,-2.8301,-2.8301,-2.8301,-2.8301,-2.8301,-2.8408,-2.8621,-2.8834,-2.9237,-2.9554,-2.9879,-2.9994,-2.9994,-2.9994,-2.9756,-2.9228,-2.8825,-2.8369,-2.7852,-2.7469,-2.7272,-2.7272,-2.7282,-2.7438,-2.779,-2.7831,-2.8007,-2.839,-2.8483,-2.869,-2.9083,-2.9601,-2.9891,-2.9901,-2.9901,-3.012,-3.0681,-3.0785,-3.0795,-3.0899,-3.0991,-3.0899,-3.0505,-3.0981,-3.1472,-3.1575,-3.2387,-3.3001,-3.2989,-3.3895,-3.4581,-3.469,-3.5271,-3.5463,-3.4969,-3.5367,-3.6156,-3.6061,-3.6061,-3.5571,-3.4969,-3.5367,-3.5858,-3.5763,-3.5966,-3.6073,-3.6168,-3.6263,-3.637,-3.637,-3.637,-3.637,-3.637,-3.637,-3.6345,-3.6345,-3.637,-3.6132,-3.5805,-3.5655,-3.5479,-3.4939,-3.432,-3.3906,-1.9366,-1.9366,-1.9366,-1.9366,-1.9359,-1.9219,-1.9273,-1.9388,-1.928,-1.9273,-1.9624,-2.0106,-2.05,-2.0716,-2.0845,-2.0967,-2.1211,-2.1211,-2.1211,-2.1211,-2.1211,-2.1881,-2.2982,-2.2982,-2.3863,-2.5507,-2.6182,-2.6744,-2.7305,-2.796,-2.8301,-2.8301,-2.8301,-2.8301,-2.8301,-2.8301,-2.8398,-2.8737,-2.893,-2.9227,-2.9554,-2.9889,-2.9994,-2.9994,-2.9994,-2.9777,-2.9321,-2.9104,-2.8773,-2.8317,-2.811,-2.7997,-2.7997,-2.7997,-2.809,-2.8276,-2.8297,-2.839,-2.8597,-2.8845,-2.9197,-2.9632,-2.987,-2.9994,-2.9994,-2.9994,-3.0193,-3.0681,-3.0785,-3.0899,-3.1208,-3.1505,-3.1597,-3.1311,-3.1993,-3.2499,-3.2588,-3.34,-3.4091,-3.419,-3.4981,-3.5667,-3.5679,-3.6061,-3.6263,-3.5763,-3.6168,-3.637,-3.637,-3.637,-3.625,-3.5775,-3.6061,-3.6358,-3.637,-3.637,-3.637,-3.637,-3.637,-3.637,-3.637,-3.637,-3.637,-3.637,-3.6358,-3.6232,-3.6006,-3.5931,-3.568,-3.5265,-3.5102,-3.4876,-3.4387,-3.3834,-3.3483,-1.9265,-1.9272,-1.9345,-1.9366,-1.9366,-1.9366,-1.9482,-1.9713,-1.9549,-1.9542,-1.9707,-2.0162,-2.0385,-2.0608,-2.0723,-2.096,-2.1211,-2.1211,-2.1211,-2.1211,-2.1211,-2.1873,-2.2869,-2.2982,-2.3743,-2.5067,-2.6073,-2.6636,-2.6971,-2.7853,-2.8301,-2.8301,-2.8301,-2.8301,-2.8301,-2.8301,-2.8359,-2.8483,-2.879,-2.9137,-2.9554,-2.9774,-2.9994,-2.9994,-2.9891,-2.9673,-2.9321,-2.9104,-2.8825,-2.8483,-2.8359,-2.8307,-2.8307,-2.8307,-2.84,-2.8576,-2.8618,-2.8711,-2.8928,-2.9249,-2.9611,-2.9953,-2.9994,-2.9994,-2.9994,-2.9994,-3.0193,-3.0692,-3.0785,-3.0991,-3.1311,-3.171,-3.2106,-3.2196,-3.2812,-3.33,-3.3586,-3.4483,-3.5174,-3.5283,-3.5858,-3.637,-3.637,-3.637,-3.637,-3.637,-3.637,-3.637,-3.637,-3.637,-3.637,-3.637,-3.637,-3.637,-3.637,-3.637,-3.637,-3.637,-3.637,-3.637,-3.637,-3.637,-3.627,-3.6207,-3.6144,-3.5918,-3.5491,-3.5353,-3.5127,-3.4688,-3.4537,-3.4361,-3.3822,-3.3432,-3.3106,-1.8971,-1.9005,-1.9259,-1.9366,-1.9366,-1.9366,-1.9366,-1.9508,-1.9633,-1.9606,-1.9495,-2.004,-2.027,-2.0385,-2.0859,-2.1096,-2.1211,-2.1211,-2.1211,-2.1211,-2.1211,-2.1873,-2.2974,-2.2982,-2.4197,-2.6082,-2.6527,-2.7079,-2.796,-2.8184,-2.8301,-2.8301,-2.8301,-2.8281,-2.8281,-2.8281,-2.8105,-2.7839,-2.8341,-2.8844,-2.9523,-2.9659,-2.9764,-2.9994,-2.958,-2.9352,-2.9259,-2.8493,-2.8038,-2.7955,-2.7645,-2.7417,-2.7427,-2.7407,-2.7769,-2.8535,-2.8618,-2.897,-2.9746,-2.9911,-2.9932,-2.9984,-2.9994,-2.9994,-2.9994,-2.9994,-3.0193,-3.0681,-3.0785,-3.0888,-3.0899,-3.1094,-3.1494,-3.2083,-3.2789,-3.3598,-3.4569,-3.5559,-3.625,-3.625,-3.6263,-3.637,-3.637,-3.637,-3.637,-3.637,-3.637,-3.637,-3.637,-3.637,-3.637,-3.637,-3.637,-3.637,-3.637,-3.637,-3.637,-3.637,-3.6345,-3.6307,-3.627,-3.6232,-3.6219,-3.568,-3.5617,-3.5416,-3.5014,-3.4788,-3.4613,-3.4148,-3.3947,-3.3809,-3.3319,-3.3131,-3.3081,-1.8925,-1.8945,-1.9245,-1.9366,-1.9366,-1.9366,-1.9475,-1.9604,-1.9603,-1.9589,-1.9713,-2.0162,-2.027,-2.0277,-2.073,-2.0967,-2.1203,-2.1211,-2.1211,-2.1211,-2.1211,-2.2199,-2.3847,-2.3966,-2.5287,-2.7413,-2.752,-2.7853,-2.8184,-2.8291,-2.8301,-2.8262,-2.8057,-2.792,-2.79,-2.7666,-2.7545,-2.7584,-2.7769,-2.8176,-2.8748,-2.8973,-2.9075,-2.9166,-2.899,-2.8897,-2.8866,-2.8514,-2.8338,-2.8317,-2.8152,-2.8059,-2.8059,-2.8059,-2.8224,-2.8597,-2.8876,-2.9187,-2.9559,-2.9839,-2.9994,-2.9994,-3.0588,-3.0692,-3.0088,-3.1105,-3.1801,-3.1289,-3.1278,-3.1278,-3.1392,-3.2387,-3.3289,-3.3586,-3.4471,-3.5271,-3.5679,-3.6061,-3.637,-3.637,-3.637,-3.637,-3.637,-3.637,-3.637,-3.637,-3.637,-3.637,-3.6358,-3.637,-3.637,-3.637,-3.637,-3.637,-3.6358,-3.637,-3.6345,-3.6307,-3.6081,-3.5893,-3.5855,-3.5554,-3.529,-3.5077,-3.5064,-3.4851,-3.4336,-3.4223,-3.4073,-3.3646,-3.342,-3.3332,-3.3119,-3.3081,-3.3081,-1.8925,-1.8971,-1.9245,-1.9366,-1.9366,-1.9366,-1.9482,-1.972,-1.9562,-1.9555,-1.9713,-2.0129,-2.0231,-2.0277,-2.0608,-2.0967,-2.1203,-2.1211,-2.1211,-2.1211,-2.1211,-2.2312,-2.4061,-2.4283,-2.5507,-2.7511,-2.7745,-2.7902,-2.8135,-2.8115,-2.8066,-2.792,-2.7637,-2.749,-2.7461,-2.7158,-2.7055,-2.714,-2.7221,-2.7472,-2.7781,-2.8048,-2.8359,-2.8566,-2.8493,-2.8431,-2.8421,-2.8297,-2.8245,-2.8235,-2.8245,-2.8245,-2.8245,-2.8245,-2.8297,-2.8452,-2.9157,-2.9471,-2.929,-3.0116,-3.0554,-3.0567,-3.1381,-3.1699,-3.13,-3.2297,-3.2789,-3.2185,-3.2275,-3.2476,-3.2275,-3.3487,-3.4385,-3.4775,-3.5559,-3.6061,-3.6358,-3.637,-3.637,-3.637,-3.637,-3.637,-3.637,-3.637,-3.637,-3.637,-3.637,-3.627,-3.6169,-3.6119,-3.6081,-3.5943,-3.5906,-3.5956,-3.6094,-3.6094,-3.6107,-3.5855,-3.5516,-3.5328,-3.5316,-3.4939,-3.4587,-3.4613,-3.455,-3.4299,-3.3822,-3.3646,-3.3646,-3.3269,-3.3093,-3.3106,-3.3081,-3.3081,-3.3081,-1.8925,-1.8971,-1.9239,-1.9359,-1.9366,-1.9366,-1.9366,-1.9502,-1.9639,-1.9613,-1.9535,-1.9979,-2.0075,-1.9938,-2.0744,-2.1203,-2.1211,-2.1211,-2.1211,-2.1211,-2.1211,-2.1881,-2.2982,-2.3095,-2.4309,-2.6626,-2.6698,-2.7069,-2.7705,-2.7695,-2.748,-2.7109,-2.707,-2.7041,-2.7041,-2.6973,-2.6797,-2.6545,-2.6884,-2.6999,-2.6754,-2.7174,-2.7779,-2.8421,-2.8173,-2.7955,-2.7914,-2.7552,-2.7345,-2.7334,-2.7386,-2.7365,-2.7355,-2.7461,-2.7648,-2.8032,-2.9266,-2.9813,-2.9674,-3.1064,-3.1959,-3.1748,-3.2364,-3.3055,-3.2653,-3.304,-3.325,-3.3055,-3.3852,-3.4071,-3.3296,-3.347,-3.3985,-3.4667,-3.4812,-3.539,-3.62,-3.6182,-3.6345,-3.6282,-3.6219,-3.6169,-3.627,-3.637,-3.6245,-3.6232,-3.6295,-3.6132,-3.5692,-3.5579,-3.5391,-3.5064,-3.4951,-3.4989,-3.5441,-3.5579,-3.5353,-3.514,-3.5014,-3.4763,-3.4763,-3.4675,-3.4361,-3.411,-3.3997,-3.3734,-3.3307,-3.3144,-3.3194,-3.3081,-3.3081,-3.3081,-3.3081,-3.3081,-3.3081,-1.9032,-1.9192,-1.9112,-1.9185,-1.9359,-1.9366,-1.9366,-1.9379,-1.9472,-1.9472,-1.9508,-1.9822,-1.9918,-1.9815,-2.05,-2.0845,-2.0845,-2.1089,-2.1211,-2.1211,-2.1211,-2.1873,-2.2869,-2.2982,-2.4197,-2.6164,-2.627,-2.648,-2.7182,-2.7256,-2.7178,-2.6992,-2.6738,-2.6611,-2.6562,-2.6328,-2.6202,-2.6261,-2.6533,-2.6754,-2.6729,-2.7071,-2.7438,-2.7707,-2.7593,-2.75,-2.75,-2.7345,-2.7272,-2.7272,-2.7272,-2.7272,-2.7357,-2.7904,-2.825,-2.8526,-2.9803,-3.0516,-3.0419,-3.1191,-3.1718,-3.1694,-3.2491,-3.2826,-3.2514,-3.3292,-3.3859,-3.3482,-3.4165,-3.4446,-3.4332,-3.4457,-3.4637,-3.4718,-3.4749,-3.4879,-3.5211,-3.5303,-3.5303,-3.5303,-3.5303,-3.5316,-3.5391,-3.5316,-3.5316,-3.5316,-3.5328,-3.524,-3.5102,-3.5014,-3.4926,-3.4788,-3.4726,-3.465,-3.4424,-3.4826,-3.4901,-3.4713,-3.4525,-3.4286,-3.4198,-3.3909,-3.3583,-3.3596,-3.347,-3.342,-3.3106,-3.3106,-3.3081,-3.3081,-3.3081,-3.3081,-3.3081,-3.3081,-3.3081,-1.9185,-1.9319,-1.9152,-1.9178,-1.9359,-1.9366,-1.9366,-1.9366,-1.9366,-1.9366,-1.9482,-1.9591,-1.97,-1.9815,-2.027,-2.0608,-2.0608,-2.0974,-2.1211,-2.1211,-2.1211,-2.1926,-2.315,-2.3349,-2.4504,-2.6328,-2.6424,-2.6484,-2.6754,-2.6816,-2.6748,-2.6582,-2.6309,-2.6182,-2.6133,-2.5869,-2.583,-2.6004,-2.6304,-2.6592,-2.6805,-2.7177,-2.7272,-2.7272,-2.7272,-2.7272,-2.7272,-2.7272,-2.7272,-2.7272,-2.7272,-2.7441,-2.782,-2.8631,-2.9176,-2.9301,-3.0388,-3.102,-3.1009,-3.1705,-3.2253,-3.2124,-3.3002,-3.3281,-3.2711,-3.387,-3.4144,-3.3949,-3.4222,-3.4688,-3.4562,-3.4698,-3.4914,-3.4738,-3.4726,-3.4726,-3.4726,-3.4751,-3.4763,-3.4788,-3.4801,-3.4763,-3.4726,-3.4751,-3.4763,-3.4726,-3.4726,-3.4688,-3.45,-3.4462,-3.4361,-3.4236,-3.4123,-3.396,-3.3809,-3.3972,-3.411,-3.396,-3.3985,-3.3771,-3.3633,-3.3282,-3.3119,-3.3093,-3.3081,-3.3081,-3.3081,-3.3081,-3.3167,-3.3167,-3.3081,-3.3081,-3.3081,-3.3081,-3.3091,-1.9359,-1.9359,-1.9366,-1.9345,-1.9366,-1.9366,-1.9366,-1.9366,-1.9366,-1.9366,-1.9366,-1.9482,-1.9482,-1.9597,-2.0046,-2.027,-2.0385,-2.0938,-2.1288,-2.1432,-2.1288,-2.2224,-2.3913,-2.3971,-2.4845,-2.666,-2.6919,-2.6686,-2.6406,-2.6367,-2.6201,-2.585,-2.582,-2.582,-2.5762,-2.5752,-2.5732,-2.583,-2.6207,-2.6506,-2.6592,-2.7071,-2.7272,-2.7272,-2.7272,-2.7272,-2.7272,-2.7272,-2.7272,-2.7357,-2.7357,-2.7809,-2.8724,-2.9624,-3.017,-3.0351,-3.1116,-3.134,-3.117,-3.2641,-3.3347,-3.3174,-3.3954,-3.4345,-3.4115,-3.4345,-3.446,-3.4332,-3.4435,-3.4424,-3.3985,-3.3947,-3.4123,-3.4575,-3.4525,-3.4512,-3.4587,-3.4663,-3.4688,-3.4587,-3.4537,-3.4675,-3.4675,-3.4525,-3.4474,-3.4487,-3.45,-3.4349,-3.3972,-3.3897,-3.3658,-3.3345,-3.3357,-3.3407,-3.3244,-3.3106,-3.3131,-3.3156,-3.3257,-3.3244,-3.3294,-3.3093,-3.3093,-3.3081,-3.3081,-3.3081,-3.3081,-3.3167,-3.3253,-3.3338,-3.3253,-3.3237,-3.3208,-3.3216,-3.2975,-1.9366,-1.9366,-1.9366,-1.9366,-1.9366,-1.9366,-1.9366,-1.9366,-1.9366,-1.9366,-1.9366,-1.9366,-1.9366,-1.9597,-2.0046,-2.027,-2.0371,-2.0764,-2.1436,-2.2227,-2.2066,-2.2664,-2.3812,-2.3798,-2.4237,-2.5368,-2.616,-2.6367,-2.6025,-2.5947,-2.585,-2.5752,-2.5732,-2.5732,-2.5732,-2.5732,-2.5732,-2.5732,-2.6207,-2.6496,-2.6506,-2.6976,-2.7262,-2.7272,-2.7272,-2.7272,-2.7272,-2.7272,-2.7272,-2.7347,-2.7893,-2.8713,-2.9715,-3.0633,-3.1169,-3.1258,-3.2077,-3.2574,-3.246,-3.2897,-3.332,-3.3195,-3.3421,-3.3583,-3.3583,-3.3621,-3.3633,-3.3621,-3.3596,-3.3483,-3.337,-3.3332,-3.3458,-3.3571,-3.3596,-3.3646,-3.3696,-3.3646,-3.3583,-3.3583,-3.3583,-3.3596,-3.3621,-3.3621,-3.3684,-3.3671,-3.3658,-3.3545,-3.3407,-3.3395,-3.3319,-3.3106,-3.3081,-3.3081,-3.3081,-3.3167,-3.3167,-3.3253,-3.3253,-3.3167,-3.3081,-3.3081,-3.3081,-3.3326,-3.324,-3.3288,-3.3202,-3.3262,-3.3538,-3.3636,-3.3753,-3.3669,-3.3449,-3.3098,-3.2726,-1.901,-1.9366,-1.9366,-1.9366,-1.9366,-1.9366,-1.9366,-1.9366,-1.9366,-1.9366,-1.9366,-1.9366,-1.9305,-1.9334,-1.9873,-2.0039,-2.0033,-2.0722,-2.1837,-2.286,-2.1947,-2.2304,-2.3627,-2.4216,-2.4554,-2.5048,-2.5727,-2.6006,-2.5752,-2.5732,-2.5732,-2.5732,-2.5732,-2.5732,-2.5732,-2.5732,-2.5732,-2.5732,-2.6217,-2.6496,-2.6592,-2.7071,-2.7272,-2.7272,-2.7272,-2.7272,-2.7272,-2.7272,-2.7441,-2.7998,-2.8991,-3.0079,-3.0711,-3.1625,-3.2164,-3.2264,-3.2711,-3.3081,-3.3081,-3.3106,-3.3081,-3.3081,-3.3081,-3.3093,-3.3081,-3.3081,-3.3081,-3.3081,-3.3106,-3.3081,-3.3093,-3.3081,-3.3081,-3.3081,-3.3119,-3.3081,-3.3081,-3.3081,-3.3106,-3.3144,-3.3131,-3.3081,-3.3081,-3.3081,-3.3081,-3.3081,-3.3081,-3.3081,-3.3081,-3.3093,-3.3081,-3.3081,-3.3081,-3.3081,-3.3081,-3.3167,-3.324,-3.3326,-3.3411,-3.3253,-3.3081,-3.3167,-3.3167,-3.381,-3.405,-3.4206,-3.4166,-3.391,-3.4009,-3.4144,-3.3944,-3.3196,-3.2628,-3.2478,-3.2193,-1.8292,-1.9366,-1.9366,-1.9366,-1.9366,-1.9366,-1.9366,-1.9366,-1.9366,-1.9345,-1.9325,-1.9299,-1.9158,-1.9058,-1.9456,-1.9661,-1.9725,-2.0954,-2.2116,-2.2552,-2.1731,-2.1687,-2.3589,-2.4827,-2.5467,-2.5605,-2.5684,-2.5752,-2.5732,-2.5732,-2.5732,-2.5732,-2.5732,-2.5732,-2.5732,-2.5732,-2.5732,-2.5732,-2.6207,-2.64,-2.6496,-2.6976,-2.7272,-2.7262,-2.7272,-2.7272,-2.7262,-2.7452,-2.7904,-2.891,-3.0362,-3.1258,-3.1801,-3.2612,-3.2982,-3.2982,-3.3068,-3.3081,-3.3081,-3.3081,-3.3081,-3.3081,-3.3081,-3.3081,-3.3081,-3.3081,-3.3081,-3.3081,-3.3081,-3.3081,-3.3081,-3.3081,-3.3081,-3.3081,-3.3081,-3.3081,-3.3081,-3.3081,-3.3081,-3.3081,-3.3081,-3.3081,-3.3081,-3.3081,-3.3081,-3.3081,-3.3081,-3.3081,-3.3081,-3.3081,-3.3081,-3.3081,-3.3167,-3.3081,-3.3081,-3.3581,-3.3641,-3.3771,-3.3804,-3.3798,-3.35,-3.3416,-3.3449,-3.4118,-3.4495,-3.4768,-3.4726,-3.4246,-3.4046,-3.3965,-3.3357,-3.238,-3.229,-3.2515,-3.216,-1.9127,-1.9366,-1.9366,-1.9366,-1.9366,-1.9366,-1.9366,-1.9366,-1.9366,-1.9239,-1.9092,-1.9038,-1.8878,-1.8624,-1.9042,-1.9202,-1.9604,-2.0589,-2.1325,-2.1917,-2.208,-2.3071,-2.4697,-2.54,-2.5732,-2.5732,-2.5732,-2.5732,-2.5732,-2.5732,-2.5732,-2.5732,-2.5732,-2.5732,-2.5732,-2.5732,-2.5732,-2.5732,-2.6014,-2.6197,-2.6294,-2.6592,-2.6794,-2.6986,-2.6986,-2.7081,-2.7357,-2.7987,-2.8806,-2.9715,-3.026,-3.1258,-3.2525,-3.2982,-3.3081,-3.3081,-3.3081,-3.3081,-3.3081,-3.3081,-3.3081,-3.3081,-3.3081,-3.3081,-3.3081,-3.3081,-3.3081,-3.3081,-3.3081,-3.3081,-3.3081,-3.3081,-3.3081,-3.3081,-3.3081,-3.3081,-3.3081,-3.3081,-3.3081,-3.3081,-3.3081,-3.3081,-3.3081,-3.3081,-3.3081,-3.3081,-3.3167,-3.3167,-3.324,-3.3398,-3.3556,-3.324,-3.3167,-3.3167,-3.324,-3.3823,-3.4121,-3.421,-3.4466,-3.4674,-3.4364,-3.4052,-3.4109,-3.4433,-3.4298,-3.4384,-3.4194,-3.3863,-3.3801,-3.3902,-3.3799,-3.345,-3.3458,-3.3586,-3.2881,-1.8887,-1.9366,-1.9366,-1.9366,-1.9366,-1.9366,-1.9366,-1.9339,-1.9225,-1.9092,-1.8918,-1.8784,-1.8577,-1.8323,-1.8625,-1.8863,-1.9155,-2.0242,-2.1187,-2.2076,-2.3217,-2.4233,-2.503,-2.5421,-2.5732,-2.5732,-2.5732,-2.5732,-2.5732,-2.5732,-2.5732,-2.5732,-2.5732,-2.5732,-2.5732,-2.5732,-2.5732,-2.5732,-2.5917,-2.61,-2.61,-2.639,-2.6602,-2.6699,-2.6794,-2.6976,-2.7704,-2.8713,-2.9624,-3.0158,-3.0621,-3.1524,-3.2884,-3.3081,-3.3081,-3.3081,-3.3081,-3.3081,-3.3081,-3.3081,-3.3081,-3.3081,-3.3081,-3.3081,-3.3081,-3.3081,-3.3081,-3.3081,-3.3081,-3.3081,-3.3081,-3.3081,-3.3081,-3.3081,-3.3081,-3.3081,-3.3081,-3.3081,-3.3081,-3.3081,-3.3081,-3.3081,-3.3081,-3.3081,-3.3081,-3.3167,-3.3581,-3.3654,-3.3738,-3.3882,-3.3998,-3.3888,-3.3837,-3.3952,-3.384,-3.4173,-3.446,-3.4606,-3.492,-3.5259,-3.4699,-3.44,-3.458,-3.4544,-3.4257,-3.4087,-3.4059,-3.4104,-3.413,-3.4237,-3.4438,-3.4094,-3.3814,-3.393,-3.3264,-1.8377,-1.9366,-1.9366,-1.9366,-1.9366,-1.9366,-1.9366,-1.9312,-1.9078,-1.8911,-1.8804,-1.8564,-1.8277,-1.8003,-1.8205,-1.849,-1.8764,-2.0235,-2.1623,-2.3038,-2.451,-2.5226,-2.4707,-2.543,-2.5635,-2.5732,-2.5732,-2.5732,-2.5732,-2.5732,-2.5732,-2.5732,-2.5732,-2.5732,-2.5732,-2.5732,-2.5732,-2.5732,-2.5917,-2.6004,-2.6004,-2.6207,-2.64,-2.6496,-2.686,-2.7515,-2.8423,-2.9532,-3.026,-3.0351,-3.1169,-3.1989,-3.2896,-3.3081,-3.3081,-3.3081,-3.3081,-3.3081,-3.3081,-3.3081,-3.3081,-3.3081,-3.3081,-3.3081,-3.3081,-3.3081,-3.3081,-3.3081,-3.3081,-3.3081,-3.3081,-3.3081,-3.3081,-3.3081,-3.3081,-3.3081,-3.3081,-3.3081,-3.3081,-3.3081,-3.3081,-3.3081,-3.3167,-3.3167,-3.324,-3.3654,-3.405,-3.4441,-3.4524,-3.4746,-3.4886,-3.482,-3.4915,-3.4995,-3.4805,-3.4587,-3.4837,-3.5027,-3.5416,-3.5494,-3.4548,-3.4325,-3.472,-3.4769,-3.4255,-3.4323,-3.4739,-3.4679,-3.4481,-3.4241,-3.4213,-3.3466,-3.2874,-3.3395,-3.3213,-1.8915,-1.9366,-1.9366,-1.9366,-1.9366,-1.9366,-1.9366,-1.9339,-1.9045,-1.8784,-1.8564,-1.8277,-1.7976,-1.7695,-1.7815,-1.8464,-1.9531,-2.0853,-2.2676,-2.4922,-2.5333,-2.5635,-2.5323,-2.5635,-2.5635,-2.5732,-2.5732,-2.5732,-2.5732,-2.5732,-2.5732,-2.5732,-2.5732,-2.5732,-2.5732,-2.5732,-2.5732,-2.5732,-2.5723,-2.582,-2.582,-2.5927,-2.6014,-2.638,-2.7305,-2.8423,-2.9257,-2.9897,-3.0531,-3.1169,-3.1536,-3.2164,-3.2896,-3.3081,-3.3081,-3.3081,-3.3081,-3.3081,-3.3081,-3.3081,-3.3081,-3.3081,-3.3081,-3.3081,-3.3081,-3.3081,-3.3081,-3.3081,-3.3081,-3.3081,-3.3081,-3.3081,-3.3081,-3.3081,-3.3167,-3.3167,-3.3167,-3.3081,-3.3081,-3.3081,-3.3167,-3.3167,-3.3167,-3.381,-3.4063,-3.4217,-3.465,-3.521,-3.5413,-3.552,-3.5487,-3.5434,-3.5379,-3.5278,-3.4886,-3.463,-3.4727,-3.4896,-3.5309,-3.5517,-3.4598,-3.427,-3.4583,-3.4526,-3.4228,-3.4421,-3.4835,-3.4719,-3.4358,-3.42,-3.4045,-3.3756,-3.3534,-3.3687,-3.3618,-1.8751,-1.9359,-1.9366,-1.9366,-1.9366,-1.9366,-1.9366,-1.9279,-1.8905,-1.8637,-1.8417,-1.8036,-1.7736,-1.7589,-1.7687,-1.8206,-1.9332,-2.1057,-2.2985,-2.4707,-2.5333,-2.5732,-2.5732,-2.5732,-2.5732,-2.5732,-2.5732,-2.5732,-2.5732,-2.5732,-2.5732,-2.5732,-2.5732,-2.5732,-2.5732,-2.5732,-2.5732,-2.5732,-2.5732,-2.5732,-2.5732,-2.5732,-2.6207,-2.6839,-2.8121,-2.9326,-3.0339,-3.1258,-3.1801,-3.2164,-3.2251,-3.2525,-3.2982,-3.3081,-3.3081,-3.3081,-3.3081,-3.3081,-3.3081,-3.3081,-3.3081,-3.3081,-3.3081,-3.3081,-3.3081,-3.3081,-3.3081,-3.3081,-3.3081,-3.3081,-3.3081,-3.3081,-3.3081,-3.3167,-3.3496,-3.3654,-3.3641,-3.3398,-3.3081,-3.324,-3.3484,-3.3654,-3.3979,-3.4472,-3.4775,-3.4886,-3.514,-3.5664,-3.5759,-3.583,-3.5855,-3.578,-3.5677,-3.5437,-3.4947,-3.4682,-3.4639,-3.4663,-3.4799,-3.4878,-3.4473,-3.4364,-3.445,-3.4321,-3.4235,-3.4218,-3.4462,-3.4346,-3.4414,-3.4332,-3.4264,-3.4346,-3.4346,-3.4059,-3.4045,-1.8248,-1.9366,-1.9366,-1.9366,-1.9366,-1.9366,-1.9332,-1.9205,-1.8724,-1.8477,-1.8323,-1.7822,-1.7615,-1.7589,-1.7589,-1.7898,-1.9235,-2.1167,-2.3393,-2.4609,-2.543,-2.5635,-2.5732,-2.5732,-2.5732,-2.5732,-2.5732,-2.5732,-2.5732,-2.5732,-2.5732,-2.5732,-2.5732,-2.5732,-2.5732,-2.5732,-2.5732,-2.5732,-2.5732,-2.5732,-2.583,-2.5917,-2.6754,-2.8049,-2.905,-3.0237,-3.1335,-3.2251,-3.2995,-3.3081,-3.3081,-3.3081,-3.3081,-3.3081,-3.3081,-3.3081,-3.3081,-3.3081,-3.3081,-3.3081,-3.3081,-3.3081,-3.3081,-3.3081,-3.3081,-3.3081,-3.3081,-3.3081,-3.3081,-3.3081,-3.3081,-3.3081,-3.3081,-3.324,-3.3823,-3.4204,-3.4113,-3.3597,-3.3331,-3.3725,-3.4178,-3.4485,-3.4682,-3.4969,-3.5304,-3.562,-3.5844,-3.5991,-3.6074,-3.6065,-3.5955,-3.5856,-3.5654,-3.5224,-3.4754,-3.4568,-3.4542,-3.4524,-3.453,-3.4486,-3.4428,-3.438,-3.4412,-3.4394,-3.4375,-3.4346,-3.4346,-3.4414,-3.4414,-3.4414,-3.4414,-3.4414,-3.4414,-3.4414,-3.4414,-1.7955,-1.9366,-1.9366,-1.9366,-1.9366,-1.9366,-1.9232,-1.8965,-1.8644,-1.835,-1.809,-1.7742,-1.7589,-1.7589,-1.7582,-1.8805,-2.0845,-2.2576,-2.3998,-2.5118,-2.5635,-2.5635,-2.5732,-2.5732,-2.5723,-2.5732,-2.5703,-2.5684,-2.5732,-2.5732,-2.5703,-2.5723,-2.5693,-2.5693,-2.5674,-2.5723,-2.5693,-2.5732,-2.5732,-2.5732,-2.583,-2.6466,-2.7673,-2.9246,-3.0068,-3.0991,-3.1913,-3.2723,-3.3081,-3.3081,-3.3081,-3.3081,-3.3081,-3.3081,-3.3081,-3.3081,-3.3081,-3.3081,-3.3081,-3.3081,-3.3081,-3.3081,-3.3081,-3.3081,-3.3081,-3.3081,-3.3081,-3.3081,-3.3081,-3.3081,-3.3081,-3.3189,-3.3129,-3.3215,-3.3416,-3.3611,-3.3688,-3.376,-3.4041,-3.4754,-3.517,-3.5157,-3.5192,-3.5274,-3.5579,-3.5703,-3.5787,-3.5955,-3.6014,-3.5913,-3.5869,-3.5693,-3.5462,-3.5071,-3.4539,-3.451,-3.4433,-3.4448,-3.4457,-3.4457,-3.4414,-3.4414,-3.4414,-3.4414,-3.4414,-3.4414,-3.4414,-3.4414,-3.4414,-3.4414,-3.4414,-3.4414,-3.4414,-3.4414,-3.4414,-1.7107,-1.8409,-1.9127,-1.9366,-1.9366,-1.9366,-1.9199,-1.8905,-1.8611,-1.8323,-1.8023,-1.7736,-1.7589,-1.7793,-1.8206,-1.9937,-2.1963,-2.2885,-2.4106,-2.5226,-2.5538,-2.5635,-2.5625,-2.5723,-2.5566,-2.5449,-2.5391,-2.5518,-2.5713,-2.5732,-2.5586,-2.541,-2.5391,-2.5391,-2.5391,-2.5371,-2.5518,-2.5635,-2.5703,-2.5703,-2.58,-2.6713,-2.8111,-2.9315,-3.0429,-3.127,-3.2201,-3.2562,-3.281,-3.2896,-3.2884,-3.2982,-3.3081,-3.3081,-3.3081,-3.3081,-3.3081,-3.3081,-3.3081,-3.3081,-3.3081,-3.3081,-3.3081,-3.3081,-3.3081,-3.3081,-3.3129,-3.3142,-3.3167,-3.3326,-3.3738,-3.3456,-3.3469,-3.3875,-3.3936,-3.4007,-3.4224,-3.4544,-3.5093,-3.5621,-3.5329,-3.5142,-3.5114,-3.5386,-3.5835,-3.5884,-3.5783,-3.5809,-3.5822,-3.5619,-3.5415,-3.5241,-3.5024,-3.4849,-3.4501,-3.4457,-3.4414,-3.4414,-3.4414,-3.4414,-3.4414,-3.4414,-3.4414,-3.4414,-3.4414,-3.4414,-3.4414,-3.4414,-3.4414,-3.4414,-3.4414,-3.4414,-3.4414,-3.4414,-3.4414,-1.6397,-1.7566,-1.8887,-1.9366,-1.9359,-1.9299,-1.9105,-1.8818,-1.8517,-1.8217,-1.7943,-1.7702,-1.7589,-1.7898,-1.8812,-2.0451,-2.2484,-2.2693,-2.3908,-2.503,-2.5342,-2.544,-2.5625,-2.5596,-2.542,-2.5176,-2.4961,-2.5127,-2.5293,-2.5352,-2.5215,-2.5029,-2.4932,-2.4941,-2.4941,-2.4941,-2.5205,-2.5342,-2.5478,-2.5565,-2.6119,-2.7118,-2.8168,-2.9306,-3.0293,-3.1371,-3.2213,-3.2388,-3.2475,-3.2636,-3.2723,-3.281,-3.2982,-3.3081,-3.3081,-3.3081,-3.3081,-3.3081,-3.3081,-3.3081,-3.3081,-3.3081,-3.3081,-3.3081,-3.3091,-3.3101,-3.3183,-3.3136,-3.327,-3.3444,-3.3878,-3.3736,-3.3847,-3.4124,-3.4498,-3.4729,-3.472,-3.4944,-3.5137,-3.5353,-3.5123,-3.5093,-3.5149,-3.5222,-3.5583,-3.5294,-3.5186,-3.5143,-3.514,-3.4907,-3.4733,-3.4646,-3.4545,-3.4545,-3.4443,-3.4443,-3.4414,-3.4414,-3.4414,-3.4414,-3.4414,-3.4414,-3.4414,-3.4414,-3.4414,-3.4414,-3.4414,-3.4414,-3.4414,-3.4414,-3.4414,-3.4414,-3.4414,-3.4414,-3.4414,-1.6397,-1.7572,-1.8887,-1.9366,-1.9332,-1.9105,-1.8818,-1.8531,-1.825,-1.7929,-1.7682,-1.7609,-1.7582,-1.7996,-1.8812,-2.0151,-2.1481,-2.2693,-2.3809,-2.5137,-2.5235,-2.544,-2.5577,-2.5303,-2.5176,-2.4932,-2.4639,-2.4521,-2.4609,-2.4619,-2.459,-2.4512,-2.4502,-2.4502,-2.4502,-2.4502,-2.4512,-2.459,-2.4619,-2.5441,-2.686,-2.8232,-2.9381,-3.0338,-3.1125,-3.1604,-3.1831,-3.2005,-3.2216,-3.2339,-3.2562,-3.2686,-3.281,-3.2995,-3.3081,-3.3081,-3.3081,-3.3081,-3.3068,-3.3006,-3.298,-3.2943,-3.2955,-3.3056,-3.2988,-3.3091,-3.3204,-3.3342,-3.3449,-3.3712,-3.3909,-3.3745,-3.3742,-3.3905,-3.4197,-3.4238,-3.4349,-3.4711,-3.4965,-3.4932,-3.4708,-3.4992,-3.5163,-3.5204,-3.5285,-3.4893,-3.4588,-3.4603,-3.4588,-3.4472,-3.4414,-3.4414,-3.4414,-3.4414,-3.4414,-3.4414,-3.4414,-3.4414,-3.4414,-3.4414,-3.4414,-3.4414,-3.4414,-3.4414,-3.4414,-3.4414,-3.4414,-3.4414,-3.4414,-3.4414,-3.4414,-3.4414,-3.4414,-3.4414,-3.4385,-1.6985,-1.7578,-1.8887,-1.9366,-1.9325,-1.9045,-1.8751,-1.8464,-1.8176,-1.7876,-1.7629,-1.7582,-1.7884,-1.8506,-1.9642,-2.0885,-2.2013,-2.302,-2.4125,-2.4932,-2.5137,-2.5333,-2.5538,-2.5283,-2.499,-2.4619,-2.4277,-2.3877,-2.3906,-2.416,-2.4326,-2.4072,-2.4062,-2.4072,-2.4062,-2.4062,-2.4219,-2.4529,-2.4965,-2.5583,-2.6694,-2.7977,-2.9173,-2.9628,-3.0503,-3.0881,-3.1003,-3.104,-3.1199,-3.1284,-3.1454,-3.172,-3.1791,-3.2031,-3.2102,-3.2114,-3.2102,-3.2403,-3.2918,-3.2742,-3.2629,-3.2491,-3.2353,-3.2077,-3.2218,-3.2723,-3.3012,-3.2932,-3.3421,-3.3837,-3.4156,-3.4079,-3.4311,-3.4374,-3.4147,-3.4112,-3.42,-3.4241,-3.4459,-3.4394,-3.4428,-3.469,-3.4893,-3.4878,-3.4878,-3.4704,-3.4501,-3.4501,-3.4501,-3.4443,-3.4414,-3.4414,-3.4414,-3.4414,-3.4414,-3.4414,-3.4414,-3.4414,-3.4414,-3.4414,-3.4414,-3.4414,-3.4414,-3.4414,-3.4414,-3.4414,-3.4414,-3.4414,-3.4414,-3.4414,-3.4414,-3.4341,-3.4269,-3.4327,-3.4254,-1.7487,-1.7859,-1.8951,-1.9325,-1.9225,-1.8945,-1.8644,-1.8357,-1.8043,-1.7796,-1.7635,-1.7582,-1.8094,-1.8916,-1.9849,-2.0775,-2.2106,-2.3329,-2.4242,-2.4735,-2.502,-2.5256,-2.5324,-2.5088,-2.4648,-2.4258,-2.3828,-2.3516,-2.3486,-2.3662,-2.3857,-2.3633,-2.3623,-2.3623,-2.3623,-2.3643,-2.384,-2.4476,-2.5576,-2.6203,-2.6595,-2.7951,-2.863,-2.9136,-2.9557,-3.0086,-3.0086,-3.0134,-3.0302,-3.041,-3.0697,-3.0913,-3.115,-3.1327,-3.148,-3.1562,-3.1562,-3.1813,-3.2215,-3.2215,-3.2051,-3.1958,-3.2041,-3.2094,-3.2313,-3.2647,-3.297,-3.3188,-3.3602,-3.4242,-3.4578,-3.4384,-3.447,-3.4565,-3.4586,-3.4491,-3.4361,-3.4365,-3.434,-3.4404,-3.4414,-3.4414,-3.453,-3.4486,-3.4457,-3.4443,-3.4414,-3.4414,-3.4414,-3.4414,-3.4414,-3.4414,-3.4414,-3.4414,-3.4414,-3.4414,-3.4414,-3.4414,-3.4414,-3.4414,-3.4414,-3.4414,-3.4414,-3.4414,-3.4414,-3.4414,-3.4414,-3.4414,-3.4399,-3.4356,-3.4283,-3.4153,-3.4095,-3.4124,-3.3906,-1.7409,-1.8479,-1.9132,-1.9192,-1.8931,-1.8644,-1.8357,-1.8096,-1.7769,-1.7629,-1.7589,-1.7582,-1.7687,-1.8199,-1.9228,-2.0261,-2.1191,-2.2391,-2.371,-2.4726,-2.5109,-2.5218,-2.509,-2.4766,-2.4297,-2.3867,-2.3496,-2.3262,-2.3076,-2.3271,-2.331,-2.3193,-2.3291,-2.3223,-2.3232,-2.331,-2.373,-2.4625,-2.5903,-2.6786,-2.7304,-2.8257,-2.9094,-2.9284,-2.969,-3.0086,-3.0074,-2.9941,-2.9881,-2.9952,-3.0094,-3.0343,-3.0458,-3.0716,-3.0854,-3.1016,-3.111,-3.126,-3.1536,-3.1744,-3.1543,-3.1655,-3.2012,-3.245,-3.2837,-3.354,-3.3918,-3.3761,-3.3944,-3.4239,-3.4416,-3.4448,-3.4495,-3.4466,-3.4545,-3.4501,-3.4414,-3.4414,-3.4375,-3.4428,-3.4414,-3.4414,-3.4414,-3.4414,-3.4414,-3.4414,-3.4414,-3.4414,-3.4414,-3.4414,-3.4414,-3.4414,-3.4414,-3.4414,-3.4414,-3.4414,-3.4414,-3.4414,-3.4414,-3.4414,-3.4414,-3.4414,-3.4414,-3.4414,-3.4414,-3.4414,-3.4414,-3.4414,-3.437,-3.4269,-3.4124,-3.3862,-3.3529,-3.334,-3.3079,-1.8033,-1.8517,-1.8738,-1.8764,-1.8637,-1.8343,-1.815,-1.8009,-1.7722,-1.7589,-1.7589,-1.7582,-1.7996,-1.8715,-1.9746,-2.0877,-2.2013,-2.3311,-2.4223,-2.4735,-2.5089,-2.516,-2.4964,-2.46,-2.4199,-2.376,-2.3359,-2.3144,-2.3144,-2.3144,-2.3144,-2.3144,-2.3144,-2.3144,-2.3144,-2.3222,-2.382,-2.4669,-2.5757,-2.6588,-2.7383,-2.8148,-2.8811,-2.8847,-2.8931,-2.9112,-2.91,-2.9112,-2.9112,-2.9229,-2.9403,-2.9521,-2.9707,-2.9936,-3.0164,-3.039,-3.0403,-3.0694,-3.1202,-3.1409,-3.163,-3.183,-3.2168,-3.2522,-3.305,-3.329,-3.3479,-3.3649,-3.4094,-3.4361,-3.4428,-3.4428,-3.439,-3.4428,-3.4414,-3.4414,-3.4414,-3.4414,-3.4414,-3.4414,-3.4414,-3.4414,-3.4414,-3.4414,-3.4414,-3.4414,-3.4414,-3.4414,-3.4414,-3.4414,-3.4414,-3.4414,-3.4414,-3.4414,-3.4414,-3.4414,-3.4414,-3.4414,-3.4414,-3.4414,-3.4414,-3.4414,-3.4414,-3.4414,-3.4414,-3.4414,-3.4414,-3.4414,-3.437,-3.4312,-3.3906,-3.3412,-3.305,-3.2629,-3.2295,-1.7663,-1.8217,-1.8217,-1.8277,-1.8323,-1.8136,-1.7989,-1.7876,-1.7682,-1.7589,-1.7589,-1.7891,-1.8408,-1.9332,-2.0364,-2.1395,-2.2417,-2.342,-2.4125,-2.4679,-2.4965,-2.4996,-2.4665,-2.4404,-2.3955,-2.3613,-2.3359,-2.3144,-2.3144,-2.3144,-2.3144,-2.3144,-2.3144,-2.3144,-2.3222,-2.3734,-2.4317,-2.5253,-2.6174,-2.6835,-2.7684,-2.8191,-2.8546,-2.8546,-2.8607,-2.8619,-2.8643,-2.8667,-2.8631,-2.8619,-2.8674,-2.8773,-2.8907,-2.9118,-2.9509,-2.9716,-3.0012,-3.0443,-3.1088,-3.1593,-3.1977,-3.2436,-3.2485,-3.2602,-3.2875,-3.3241,-3.3758,-3.373,-3.4128,-3.4414,-3.4414,-3.4414,-3.4414,-3.4414,-3.4414,-3.4414,-3.4414,-3.4414,-3.4414,-3.4414,-3.4414,-3.4414,-3.4414,-3.4414,-3.4414,-3.4414,-3.4414,-3.4414,-3.4414,-3.4414,-3.4414,-3.4414,-3.4414,-3.4414,-3.4414,-3.4414,-3.4414,-3.4414,-3.4414,-3.4414,-3.4414,-3.4385,-3.4385,-3.4414,-3.4414,-3.4414,-3.4414,-3.4399,-3.4399,-3.4399,-3.3761,-3.2991,-3.2324,-3.1888,-3.1675,-1.5684,-1.749,-1.7629,-1.7796,-1.8043,-1.8043,-1.7876,-1.7655,-1.7602,-1.7589,-1.7687,-1.8513,-1.902,-1.9435,-2.0364,-2.1497,-2.2417,-2.3011,-2.371,-2.4473,-2.4688,-2.444,-2.4195,-2.389,-2.3621,-2.3281,-2.3144,-2.3144,-2.3144,-2.3309,-2.3222,-2.3309,-2.3474,-2.3387,-2.3309,-2.4819,-2.608,-2.7092,-2.7765,-2.8007,-2.8271,-2.8431,-2.851,-2.851,-2.851,-2.851,-2.851,-2.851,-2.851,-2.851,-2.851,-2.8657,-2.8803,-2.9496,-2.996,-3.0317,-3.1132,-3.1636,-3.2028,-3.2114,-3.2547,-3.3115,-3.3241,-3.3381,-3.4045,-3.4264,-3.4182,-3.4113,-3.4332,-3.4414,-3.4414,-3.4414,-3.4414,-3.4414,-3.4414,-3.4414,-3.4414,-3.4414,-3.4414,-3.4414,-3.4414,-3.4414,-3.4414,-3.4414,-3.4414,-3.4414,-3.4414,-3.4414,-3.4414,-3.4414,-3.4414,-3.4414,-3.4414,-3.4414,-3.4414,-3.4414,-3.4414,-3.4414,-3.4385,-3.4341,-3.4269,-3.4167,-3.4225,-3.4312,-3.4254,-3.4109,-3.424,-3.4385,-3.4399,-3.4365,-3.3296,-3.2547,-3.1772,-3.1311,-3.1197,-1.618,-1.7582,-1.7589,-1.7642,-1.7736,-1.7742,-1.7675,-1.7595,-1.7589,-1.7589,-1.7687,-1.8101,-1.8617,-1.9339,-2.0467,-2.1599,-2.2526,-2.3728,-2.4332,-2.4365,-2.4487,-2.4278,-2.3923,-2.3654,-2.3367,-2.3164,-2.3144,-2.3144,-2.3144,-2.3484,-2.3897,-2.4069,-2.4231,-2.4573,-2.4327,-2.4914,-2.5579,-2.694,-2.751,-2.7834,-2.8431,-2.851,-2.851,-2.851,-2.851,-2.851,-2.851,-2.851,-2.851,-2.851,-2.851,-2.8657,-2.8882,-2.9496,-3.0012,-3.0393,-3.0996,-3.1736,-3.2403,-3.2931,-3.3479,-3.3839,-3.3977,-3.4031,-3.4346,-3.4414,-3.4414,-3.4414,-3.4414,-3.4414,-3.4414,-3.4414,-3.4414,-3.4414,-3.4414,-3.4414,-3.4414,-3.4414,-3.4414,-3.4414,-3.4414,-3.4414,-3.4414,-3.4414,-3.4414,-3.4414,-3.4414,-3.4414,-3.4414,-3.4414,-3.4414,-3.4414,-3.4414,-3.4414,-3.4414,-3.4414,-3.4414,-3.4414,-3.4312,-3.4196,-3.4095,-3.3949,-3.3601,-3.347,-3.363,-3.379,-3.3819,-3.392,-3.4365,-3.4214,-3.3085,-3.2451,-3.1984,-3.1448,-3.1086,-1.618,-1.7582,-1.7589,-1.7589,-1.7589,-1.7589,-1.7589,-1.7589,-1.7589,-1.7793,-1.8199,-1.8617,-1.9435,-2.0459,-2.1489,-2.2308,-2.3138,-2.3945,-2.4165,-2.4207,-2.4096,-2.3833,-2.3601,-2.3429,-2.3231,-2.3096,-2.3144,-2.3144,-2.3144,-2.3734,-2.4069,-2.4488,-2.5073,-2.5337,-2.5337,-2.5841,-2.6257,-2.7441,-2.7926,-2.8007,-2.8351,-2.851,-2.851,-2.851,-2.851,-2.851,-2.851,-2.851,-2.851,-2.859,-2.8736,-2.8895,-2.9184,-2.9858,-3.0519,-3.0983,-3.1663,-3.2475,-3.3157,-3.3507,-3.3922,-3.4128,-3.4278,-3.4346,-3.4346,-3.4414,-3.4414,-3.4414,-3.4414,-3.4414,-3.4414,-3.4414,-3.4414,-3.4414,-3.4414,-3.4414,-3.4414,-3.4414,-3.4414,-3.4414,-3.4414,-3.4414,-3.4481,-3.4414,-3.4414,-3.4414,-3.4414,-3.4481,-3.4467,-3.4414,-3.4414,-3.4414,-3.4414,-3.4414,-3.4414,-3.4414,-3.4414,-3.4414,-3.4269,-3.408,-3.3819,-3.363,-3.3122,-3.2701,-3.2948,-3.3151,-3.3224,-3.3383,-3.3667,-3.3529,-3.2864,-3.2338,-3.2138,-3.1628,-3.1073,-1.553,-1.7477,-1.7589,-1.7589,-1.7589,-1.7589,-1.7589,-1.7589,-1.7589,-1.8199,-1.9228,-2.0055,-2.0775,-2.2207,-2.3438,-2.3746,-2.38,-2.4007,-2.3984,-2.3721,-2.3636,-2.34,-2.3276,-2.3073,-2.3066,-2.3086,-2.3144,-2.3144,-2.3135,-2.357,-2.3993,-2.4573,-2.5073,-2.5757,-2.6505,-2.701,-2.7441,-2.8018,-2.8259,-2.8339,-2.851,-2.851,-2.851,-2.851,-2.851,-2.851,-2.851,-2.851,-2.859,-2.8803,-2.9184,-2.9549,-3.0228,-3.1267,-3.1928,-3.2605,-3.3213,-3.3521,-3.3675,-3.3868,-3.3991,-3.4128,-3.4128,-3.4196,-3.4346,-3.4414,-3.4414,-3.4414,-3.4414,-3.4414,-3.4414,-3.4414,-3.4414,-3.4414,-3.4414,-3.4414,-3.4414,-3.4414,-3.4414,-3.4414,-3.4414,-3.4481,-3.4601,-3.4601,-3.4787,-3.5023,-3.5088,-3.5023,-3.4971,-3.4467,-3.4414,-3.4414,-3.4414,-3.4414,-3.4414,-3.4481,-3.4414,-3.4414,-3.4167,-3.3964,-3.3674,-3.3231,-3.2542,-3.2208,-3.2367,-3.2556,-3.2788,-3.2788,-3.278,-3.2538,-3.2537,-3.2346,-3.2159,-3.1513,-3.0999,-1.6287,-1.7582,-1.7589,-1.7589,-1.7589,-1.7589,-1.7589,-1.7589,-1.7589,-1.8199,-1.9235,-1.9539,-2.057,-2.1395,-2.2426,-2.2929,-2.3223,-2.3466,-2.3694,-2.3623,-2.3317,-2.3265,-2.3124,-2.2996,-2.3018,-2.3057,-2.3144,-2.3135,-2.3309,-2.3647,-2.4488,-2.5316,-2.5924,-2.6682,-2.7267,-2.7846,-2.8179,-2.8431,-2.851,-2.851,-2.851,-2.851,-2.851,-2.851,-2.851,-2.851,-2.851,-2.851,-2.8657,-2.9328,-2.9549,-2.9845,-3.067,-3.1563,-3.2304,-3.3002,-3.3312,-3.3466,-3.3675,-3.3744,-3.3868,-3.3991,-3.4059,-3.4196,-3.4346,-3.4414,-3.4414,-3.4414,-3.4414,-3.4414,-3.4414,-3.4414,-3.4467,-3.4534,-3.4601,-3.4654,-3.4654,-3.4787,-3.4787,-3.4787,-3.4721,-3.4905,-3.5037,-3.5154,-3.5335,-3.5642,-3.577,-3.5706,-3.5529,-3.5023,-3.4773,-3.4787,-3.4721,-3.4839,-3.4601,-3.4601,-3.4481,-3.437,-3.4339,-3.4046,-3.3323,-3.2781,-3.1965,-3.1704,-3.1886,-3.2203,-3.2527,-3.2445,-3.2217,-3.2507,-3.2562,-3.2323,-3.2044,-3.1471,-3.1117,-1.6617,-1.7582,-1.7589,-1.7589,-1.7589,-1.7589,-1.7589,-1.7589,-1.7589,-1.8408,-1.9746,-1.9952,-2.0775,-2.2308,-2.302,-2.315,-2.3054,-2.3374,-2.3496,-2.3149,-2.3018,-2.3009,-2.3022,-2.3036,-2.2998,-2.3047,-2.3144,-2.3144,-2.3387,-2.4069,-2.4999,-2.6329,-2.7021,-2.7348,-2.7753,-2.8179,-2.8431,-2.851,-2.851,-2.851,-2.851,-2.851,-2.851,-2.8486,-2.8486,-2.8462,-2.8462,-2.8462,-2.8924,-2.9691,-2.9845,-3.0594,-3.1341,-3.216,-3.2618,-3.3241,-3.3312,-3.3396,-3.3466,-3.3619,-3.373,-3.3839,-3.3948,-3.4142,-3.4278,-3.4346,-3.4346,-3.4414,-3.4414,-3.4414,-3.4414,-3.4414,-3.4601,-3.4787,-3.4839,-3.4957,-3.5088,-3.5204,-3.527,-3.527,-3.5335,-3.5514,-3.5642,-3.577,-3.5834,-3.6087,-3.6134,-3.615,-3.6024,-3.577,-3.5578,-3.5578,-3.5449,-3.54,-3.5154,-3.5037,-3.5154,-3.5255,-3.5329,-3.4775,-3.3568,-3.2926,-3.2691,-3.2049,-3.1382,-3.1733,-3.2021,-3.1871,-3.1757,-3.2044,-3.2241,-3.1914,-3.1693,-3.1486,-3.1249,-1.6611,-1.7589,-1.7589,-1.7589,-1.7589,-1.7589,-1.7589,-1.7589,-1.7793,-1.8923,-2.0577,-2.0885,-2.2005,-2.342,-2.3764,-2.3663,-2.332,-2.3286,-2.3063,-2.2712,-2.2719,-2.2782,-2.2938,-2.2969,-2.296,-2.3047,-2.3144,-2.3144,-2.3474,-2.4155,-2.5337,-2.7021,-2.7185,-2.7429,-2.7926,-2.8339,-2.851,-2.8498,-2.8414,-2.8366,-2.845,-2.8474,-2.845,-2.839,-2.8342,-2.8294,-2.8385,-2.8579,-2.8929,-2.9757,-3.0504,-3.1222,-3.216,-3.2704,-3.3171,-3.3157,-3.3185,-3.3185,-3.3169,-3.3154,-3.3223,-3.3417,-3.3656,-3.3647,-3.3705,-3.4132,-3.4295,-3.4479,-3.4501,-3.4682,-3.4732,-3.4984,-3.527,-3.54,-3.5514,-3.5642,-3.5755,-3.5819,-3.5834,-3.5834,-3.5897,-3.6072,-3.6399,-3.6523,-3.6707,-3.6646,-3.6768,-3.6829,-3.6707,-3.6585,-3.6322,-3.6244,-3.6009,-3.5946,-3.5961,-3.5897,-3.6087,-3.6166,-3.6137,-3.5584,-3.441,-3.3879,-3.3597,-3.2773,-3.197,-3.1455,-3.1427,-3.1501,-3.159,-3.1427,-3.1501,-3.1323,-3.1249,-3.138,-3.138,-1.7371,-1.7589,-1.7589,-1.7589,-1.7589,-1.7589,-1.7589,-1.7687,-1.8513,-1.9531,-2.0672,-2.1089,-2.2089,-2.3881,-2.3831,-2.362,-2.3428,-2.2969,-2.2658,-2.2527,-2.2503,-2.2631,-2.2735,-2.2706,-2.2784,-2.296,-2.3057,-2.3484,-2.4241,-2.4659,-2.5084,-2.6257,-2.6846,-2.7603,-2.7753,-2.8179,-2.851,-2.8498,-2.8174,-2.8198,-2.8378,-2.8089,-2.7909,-2.7789,-2.7681,-2.7758,-2.7937,-2.8176,-2.9269,-3.0487,-3.0882,-3.1796,-3.2974,-3.3157,-3.3241,-3.3255,-3.2988,-3.2917,-3.2774,-3.2631,-3.25,-3.2516,-3.2672,-3.268,-3.3014,-3.3703,-3.4203,-3.4446,-3.4681,-3.4871,-3.5165,-3.5546,-3.5882,-3.6009,-3.6197,-3.6322,-3.6446,-3.6508,-3.6523,-3.6523,-3.6523,-3.6707,-3.7087,-3.7282,-3.746,-3.7637,-3.7886,-3.796,-3.7828,-3.7653,-3.7071,-3.6874,-3.6508,-3.6384,-3.6569,-3.6707,-3.6829,-3.6613,-3.6336,-3.5827,-3.5272,-3.4554,-3.3923,-3.3301,-3.2619,-3.2159,-3.1792,-3.1853,-3.1769,-3.1509,-3.1467,-3.1524,-3.1467,-3.1539,-3.1482,-1.7153,-1.7582,-1.7589,-1.7589,-1.7589,-1.7589,-1.7589,-1.7786,-1.8715,-1.9758,-2.0694,-2.1399,-2.2432,-2.3815,-2.3629,-2.3235,-2.3033,-2.2575,-2.2446,-2.2295,-2.2354,-2.2508,-2.253,-2.2618,-2.2872,-2.3047,-2.356,-2.4241,-2.5337,-2.5841,-2.6257,-2.6835,-2.7592,-2.7765,-2.7834,-2.8259,-2.851,-2.8486,-2.7969,-2.7909,-2.8102,-2.7693,-2.7392,-2.7236,-2.7179,-2.7323,-2.7705,-2.8084,-2.932,-3.0882,-3.1717,-3.2345,-3.3115,-3.3241,-3.3312,-3.3255,-3.3045,-3.2762,-3.2506,-3.2192,-3.1928,-3.1903,-3.2298,-3.2634,-3.2956,-3.3627,-3.3847,-3.4091,-3.4896,-3.5171,-3.5354,-3.5706,-3.6338,-3.6707,-3.6829,-3.7011,-3.7326,-3.7519,-3.7519,-3.7519,-3.7519,-3.7578,-3.7844,-3.7844,-3.8017,-3.8017,-3.8335,-3.8335,-3.8391,-3.8391,-3.7886,-3.7504,-3.7131,-3.7207,-3.7519,-3.7594,-3.7519,-3.7196,-3.6739,-3.6648,-3.6353,-3.511,-3.4155,-3.3881,-3.3451,-3.2788,-3.254,-3.2501,-3.2256,-3.2007,-3.1966,-3.1966,-3.1853,-3.1796,-3.1894,-1.6679,-1.7575,-1.7535,-1.7522,-1.7515,-1.7475,-1.7448,-1.7651,-1.8786,-1.9633,-2.0428,-2.1894,-2.2849,-2.3275,-2.3363,-2.2878,-2.2492,-2.2254,-2.2178,-2.2128,-2.2124,-2.2362,-2.2539,-2.2706,-2.296,-2.3551,-2.4231,-2.5495,-2.6835,-2.6928,-2.7267,-2.8259,-2.851,-2.851,-2.851,-2.851,-2.851,-2.833,-2.7969,-2.7621,-2.7404,-2.7115,-2.6986,-2.689,-2.6892,-2.7311,-2.7773,-2.84,-2.9332,-3.0801,-3.2361,-3.2933,-3.3199,-3.3312,-3.3312,-3.3255,-3.3059,-3.2679,-3.2368,-3.2055,-3.1806,-3.1732,-3.2315,-3.2697,-3.2945,-3.3396,-3.3615,-3.4201,-3.495,-3.5592,-3.5778,-3.6271,-3.6899,-3.731,-3.7488,-3.7621,-3.7985,-3.8262,-3.8278,-3.8278,-3.8278,-3.8335,-3.8335,-3.8335,-3.8391,-3.8391,-3.8391,-3.8391,-3.8391,-3.8391,-3.8148,-3.8017,-3.7886,-3.8091,-3.8278,-3.8164,-3.796,-3.7985,-3.7604,-3.7665,-3.7381,-3.6082,-3.515,-3.4777,-3.4319,-3.363,-3.3266,-3.3161,-3.2857,-3.2602,-3.2532,-3.2477,-3.2422,-3.2422,-3.2461,-1.716,-1.7562,-1.7335,-1.7235,-1.7201,-1.6987,-1.6874,-1.717,-1.885,-1.9768,-2.0443,-2.1926,-2.2917,-2.2948,-2.2676,-2.2364,-2.2282,-2.2034,-2.1878,-2.175,-2.2008,-2.2274,-2.253,-2.2872,-2.3202,-2.4049,-2.5158,-2.6152,-2.7336,-2.7429,-2.7684,-2.8419,-2.851,-2.851,-2.851,-2.851,-2.8486,-2.8258,-2.7669,-2.7164,-2.6959,-2.6807,-2.6761,-2.6685,-2.6685,-2.7413,-2.7973,-2.8372,-2.9656,-3.1154,-3.2485,-3.3045,-3.3312,-3.3312,-3.3312,-3.3241,-3.3045,-3.2539,-3.2131,-3.1702,-3.1432,-3.1142,-3.1628,-3.1916,-3.2521,-3.3532,-3.3964,-3.4659,-3.5426,-3.6294,-3.6701,-3.7371,-3.8001,-3.7921,-3.8019,-3.8019,-3.8133,-3.827,-3.8335,-3.8335,-3.8335,-3.8335,-3.8335,-3.8391,-3.8391,-3.8391,-3.8391,-3.8391,-3.8391,-3.8391,-3.8391,-3.8391,-3.8391,-3.8391,-3.8335,-3.8335,-3.8278,-3.8335,-3.8375,-3.8221,-3.7751,-3.6978,-3.6222,-3.5716,-3.5043,-3.4347,-3.4083,-3.3815,-3.3491,-3.323,-3.3108,-3.3039,-3.3002,-3.3002,-3.2986]}]]